GFSCGP_sfc_dewp_000.txt.gz
Dewpoint
51 46 43 43 43 40 36 32 33 30 29 28 27 28 29 30 28 26 31 35 37 38 40 42 42 42 41 42 42 42 46 49 55 56 56 56 57 58 58 59 59 59 58 57
47 42 44 44 43 41 33 31 30 32 31 28 28 27 28 29 26 26 32 35 37 38 40 41 42 42 41 41 41 41 42 44 51 56 57 57 57 58 58 56 53 53 54 55
41 44 44 44 39 37 33 32 33 33 31 30 28 27 28 26 29 31 34 36 38 38 40 40 41 42 42 42 42 42 42 42 43 46 51 50 51 50 49 49 46 47 47 45
44 45 45 42 42 41 39 34 33 30 29 26 28 25 27 24 27 31 33 36 38 39 40 41 41 41 42 42 42 42 42 42 42 43 43 44 44 44 45 46 44 44 44 45
42 44 45 43 42 42 40 35 33 32 28 25 27 24 25 24 27 30 32 34 37 39 40 41 41 41 42 42 42 42 42 43 43 43 43 43 42 43 43 43 42 42 42 43
40 44 45 45 44 40 37 32 29 29 26 24 26 25 24 23 25 29 31 32 37 39 40 41 41 41 41 41 42 42 42 43 43 42 42 42 41 40 39 40 39 39 39 41
36 42 39 41 34 33 33 30 29 25 24 24 26 24 25 25 25 29 31 32 36 39 40 40 39 40 40 41 41 42 42 42 42 41 40 40 40 40 39 38 37 35 34 35
35 35 33 30 38 36 33 30 26 23 23 23 25 23 23 27 31 29 32 32 36 39 39 40 39 39 40 41 41 41 41 40 41 40 39 38 37 37 36 35 35 34 34 34
34 34 27 27 28 37 29 27 29 27 25 26 27 25 27 30 31 31 32 33 36 38 38 39 39 39 40 41 40 39 38 38 38 38 37 35 33 33 32 32 30 29 29 26
31 24 29 26 25 24 27 28 26 27 24 23 24 22 24 24 29 31 31 33 35 37 38 39 38 39 41 40 38 36 36 35 35 35 34 31 29 28 26 25 24 24 23 23
29 27 29 26 26 24 23 23 25 27 26 22 20 21 25 24 28 31 32 32 35 37 38 38 38 40 40 37 35 33 33 33 32 32 30 26 23 22 21 21 21 20 21 21
33 29 25 26 32 28 25 23 25 25 22 23 21 22 25 27 28 32 33 34 34 37 38 38 39 39 37 34 31 30 30 30 29 29 25 21 20 19 18 18 18 18 17 18
36 31 30 30 32 33 30 26 24 25 25 22 21 22 26 26 30 32 33 34 35 36 38 39 40 38 36 32 29 26 26 26 26 24 20 16 16 15 15 15 15 15 15 16
39 32 28 28 28 31 30 28 26 25 24 23 23 24 26 26 29 31 34 37 35 37 37 40 40 37 34 30 26 24 23 22 22 18 15 14 14 14 13 15 15 15 16 15
34 29 29 26 30 31 29 29 26 25 25 25 26 24 27 29 29 28 31 32 36 37 36 40 39 36 32 28 25 23 22 19 19 14 14 15 15 15 14 16 15 15 15 14
33 27 25 21 24 22 25 28 28 27 26 25 27 26 25 32 34 35 34 34 36 36 35 40 38 34 31 26 24 22 20 14 15 13 13 15 15 15 16 15 14 14 14 13
26 24 23 22 24 23 18 21 29 27 27 28 26 24 28 33 33 35 36 35 35 35 34 40 36 33 27 25 23 20 15 11 12 13 13 14 15 15 15 14 14 13 13 13
24 23 22 18 24 13 20 31 24 25 27 28 31 32 33 34 33 33 34 35 35 34 39 37 33 29 25 24 20 16 11 9 11 11 12 14 15 15 15 14 14 13 13 13
27 26 26 23 21 22 28 28 30 29 31 34 33 33 33 32 33 33 36 36 35 35 37 34 31 27 22 18 13 9 9 9 10 11 12 13 14 14 14 13 13 13 14 14
29 29 25 25 23 21 25 30 31 32 29 34 34 34 34 33 30 32 35 37 36 36 33 30 27 22 16 11 8 8 8 8 9 12 13 14 15 15 14 14 13 14 15 14
26 27 25 28 26 27 30 32 32 26 27 35 33 32 33 32 32 34 37 35 34 32 29 26 23 17 12 9 9 8 8 7 11 13 14 15 15 15 14 14 15 15 15 15
23 25 26 28 26 24 32 33 29 31 33 32 32 32 32 32 34 37 37 35 32 30 28 24 18 13 10 11 9 8 7 10 12 14 14 14 14 14 14 16 17 17 16 15
27 28 27 29 29 33 34 33 35 33 32 32 33 33 32 33 35 36 36 35 32 29 25 21 18 12 9 11 10 8 9 12 13 13 13 14 14 14 14 16 17 16 16 15
31 33 31 31 33 32 33 33 33 34 33 34 35 34 33 32 33 32 35 34 32 26 22 17 12 8 10 11 10 10 11 13 13 13 13 13 14 15 15 15 16 17 16 15
31 33 32 32 33 34 33 34 34 34 34 34 34 33 33 32 31 31 33 33 30 24 18 14 12 11 10 11 11 12 12 13 12 12 13 13 14 15 16 16 17 16 16 18
34 33 31 30 34 33 33 35 34 34 34 34 33 32 31 31 32 32 33 33 28 20 16 14 11 10 10 11 11 12 13 13 13 13 12 13 15 16 16 16 16 20 22 23

GFSCGP_sfc_dewp_003.txt.gz
Dewpoint
47 45 43 43 44 40 35 34 34 36 33 30 30 29 30 31 31 30 33 37 38 39 41 42 42 42 42 42 43 45 50 54 57 58 58 58 56 53 51 48 47 46 46 46
43 43 45 44 44 39 36 34 33 34 33 30 31 30 31 31 31 29 33 37 38 39 40 41 42 42 42 42 42 43 44 47 54 58 58 58 52 49 47 46 45 45 42 42
39 43 44 43 43 42 37 35 34 35 33 31 30 29 29 29 29 32 35 38 38 39 40 41 41 42 42 42 43 43 44 45 45 47 47 47 47 47 46 44 43 43 42 40
42 45 43 43 41 42 40 35 36 33 34 31 29 25 28 28 27 32 35 37 38 40 41 41 42 42 42 43 45 45 45 45 45 46 45 45 44 42 43 42 41 39 39 38
41 43 42 42 42 42 40 40 38 35 31 26 26 26 27 25 25 30 33 36 39 41 41 41 42 43 43 44 44 44 44 44 44 43 44 42 41 41 39 38 36 36 35 36
43 45 46 43 43 42 34 35 35 30 27 25 26 26 26 25 24 29 32 34 38 40 41 41 42 42 42 44 45 44 43 42 42 41 41 40 39 35 34 33 30 30 29 31
41 43 45 48 38 37 35 38 34 31 26 25 25 25 26 27 25 29 32 33 38 40 40 40 41 41 42 43 43 42 42 40 39 38 36 36 35 33 29 27 25 23 21 25
36 36 38 43 41 37 39 38 31 25 24 24 26 24 24 26 30 30 33 33 39 40 40 40 41 41 42 42 41 40 39 38 37 34 31 29 29 27 24 23 21 19 19 21
32 34 34 37 35 38 35 36 31 27 27 26 28 28 29 29 30 30 32 35 39 39 40 40 40 41 41 40 39 37 36 36 36 31 26 23 21 20 19 19 18 18 17 14
36 28 32 25 31 27 35 32 32 27 24 23 26 24 27 25 27 31 31 34 38 39 39 39 39 41 40 37 36 35 34 33 31 26 21 17 16 16 16 15 15 15 15 16
30 29 29 25 26 25 29 33 29 28 27 24 21 23 26 26 26 31 31 34 37 38 39 39 40 41 37 34 33 32 31 30 28 22 16 14 13 13 12 11 13 14 14 15
30 29 26 25 31 29 26 28 28 25 23 23 23 24 26 27 28 32 32 34 36 38 39 39 40 37 32 30 29 29 28 27 25 18 13 12 12 11 10 10 11 12 12 14
34 31 28 29 31 33 28 25 26 26 25 23 23 24 26 29 32 33 33 34 35 37 39 39 39 35 31 28 26 25 24 24 19 13 11 10 11 10 10 11 11 12 12 13
38 32 30 28 29 30 29 27 25 26 24 23 23 24 25 27 31 31 33 34 35 36 38 39 38 34 30 27 24 22 20 20 15 12 11 11 11 12 12 13 13 13 13 12
35 30 29 27 30 29 29 28 25 25 25 25 25 24 26 25 29 30 30 32 35 37 38 39 38 33 29 25 23 21 18 16 13 11 11 12 13 14 14 14 14 13 14 13
34 29 26 23 27 27 29 29 28 26 26 26 26 26 27 30 32 34 34 34 36 37 38 40 37 33 29 25 23 21 16 12 13 11 11 14 13 14 15 14 14 14 14 12
32 26 26 25 24 22 21 23 28 28 28 27 26 28 28 33 33 33 34 35 35 36 37 40 37 33 28 25 23 19 11 11 10 11 11 13 14 14 15 14 13 13 13 13
30 30 26 20 22 16 24 29 29 28 26 25 27 27 31 33 33 32 34 34 34 35 36 39 34 30 26 24 20 14 10 9 10 11 11 13 15 14 14 14 13 13 13 13
28 27 26 23 20 22 28 28 28 27 27 32 32 33 33 32 32 33 36 36 36 35 38 37 32 26 24 20 15 10 9 8 9 11 12 13 14 14 13 13 12 13 13 13
29 28 27 27 22 17 24 30 31 32 26 34 33 33 32 32 30 31 35 37 36 36 34 31 26 22 17 11 8 8 7 7 8 11 13 14 15 14 12 13 13 13 14 13
26 27 25 28 24 26 30 32 31 26 26 34 33 33 33 31 32 34 37 36 34 31 29 25 22 17 12 9 9 8 7 7 11 13 14 14 14 13 13 13 14 14 14 14
25 26 25 28 25 21 32 32 28 31 32 32 32 32 32 32 35 36 37 35 32 29 28 22 17 13 11 11 9 7 6 10 13 14 14 13 12 12 13 15 16 16 15 14
24 25 26 27 27 33 33 33 34 32 32 32 33 33 33 33 34 37 36 35 32 29 26 22 18 13 11 11 9 7 9 12 13 13 11 11 11 12 13 15 15 15 14 15
31 33 31 30 33 32 33 33 32 33 33 33 34 33 33 33 33 33 35 35 32 29 24 20 15 10 11 11 10 10 11 12 12 11 10 11 11 14 13 14 15 15 15 15
31 32 32 32 33 33 33 33 33 34 34 33 33 33 33 32 32 33 33 34 32 27 22 17 13 13 11 10 10 11 11 12 10 10 10 11 12 13 15 15 15 15 16 18
34 32 31 30 34 33 33 33 34 34 33 34 34 33 32 33 32 34 33 33 30 23 18 16 13 11 10 10 10 11 12 12 11 10 10 11 14 15 15 15 15 20 22 23

GFSCGP_sfc_dewp_006.txt.gz
Dewpoint
42 41 40 42 44 39 34 35 36 36 35 34 36 36 32 35 33 32 31 35 37 38 40 41 42 43 44 45 48 52 56 57 56 57 56 54 50 48 46 45 43 42 41 41
38 38 41 45 43 41 37 35 35 34 34 33 35 36 37 35 32 32 32 35 37 38 38 41 41 42 42 43 44 47 52 55 57 57 53 50 48 46 45 44 42 41 39 38
36 39 42 46 41 39 37 35 33 33 35 35 33 34 33 28 28 29 31 36 37 38 38 39 41 42 43 43 45 45 47 48 47 47 47 47 47 46 44 42 40 38 37 34
34 39 44 43 41 41 36 38 37 37 38 34 33 29 31 29 28 30 34 36 37 39 39 40 41 42 44 46 47 46 46 46 46 47 46 44 42 41 40 38 37 35 33 29
35 40 41 43 41 40 36 40 39 39 38 36 34 29 28 27 26 29 34 36 38 39 40 41 42 43 44 46 47 45 44 43 43 43 42 40 39 38 36 34 32 30 29 26
34 46 43 40 41 41 39 37 37 34 34 32 31 29 27 24 23 27 34 36 38 39 40 41 43 43 44 46 46 44 42 41 41 40 38 38 36 32 31 28 24 21 19 21
35 36 47 43 43 40 39 38 36 35 32 29 26 26 26 27 25 28 33 36 38 40 40 41 42 42 43 44 44 41 40 38 37 36 34 32 31 28 25 21 18 16 13 17
33 35 45 44 41 39 38 37 30 26 27 26 26 25 23 27 29 28 32 36 38 40 40 41 42 43 43 43 42 40 38 36 33 31 28 25 24 21 17 16 14 12 12 14
34 35 43 44 41 39 40 38 33 27 27 25 26 28 29 28 29 30 31 36 39 40 40 41 42 42 42 41 39 38 37 35 31 27 22 19 16 16 15 13 13 13 12 10
33 34 38 38 43 38 40 39 33 30 25 23 24 26 25 25 26 29 30 35 38 40 40 40 41 42 40 38 38 37 34 31 27 22 17 14 11 10 11 11 11 12 11 12
35 33 32 37 37 37 37 38 37 31 27 24 21 23 25 26 27 29 30 34 38 39 39 40 40 41 39 37 36 33 32 29 23 18 13 12 10 9 7 8 9 10 11 11
38 30 34 32 31 35 37 35 34 31 26 26 25 23 25 27 28 30 31 34 38 39 40 39 40 40 36 34 33 31 30 27 21 14 10 9 10 9 7 7 9 8 8 10
34 30 29 32 32 30 34 34 36 31 27 26 25 24 25 30 32 33 32 34 37 38 39 39 40 38 34 32 30 28 26 22 16 11 9 8 9 8 8 9 9 9 9 10
38 32 27 26 29 31 31 31 34 34 29 27 25 25 25 28 32 33 33 34 36 38 39 39 40 37 33 30 27 24 22 19 13 10 9 10 9 10 11 11 11 11 10 10
38 30 31 30 30 30 30 31 29 29 31 27 28 26 27 26 32 32 34 34 34 36 38 39 39 37 33 29 26 23 20 17 10 8 9 12 12 12 12 12 12 12 12 12
37 32 27 26 30 29 28 29 32 32 31 28 27 27 28 27 30 30 30 31 34 36 37 39 39 37 33 29 26 23 18 13 10 8 10 12 12 13 13 13 12 12 13 12
35 31 29 26 25 26 27 28 29 29 28 27 26 29 29 30 30 31 34 35 35 36 38 39 39 37 32 28 26 22 14 9 8 9 9 11 12 12 13 12 11 12 12 13
35 31 30 27 23 25 27 29 29 29 29 29 29 28 30 31 33 34 35 34 35 36 37 40 39 36 31 27 24 16 10 8 9 8 9 10 12 11 11 11 10 11 11 11
36 38 34 27 31 24 23 28 26 29 29 29 29 28 32 33 33 34 36 36 36 35 36 39 38 34 28 25 20 13 9 8 7 8 9 10 10 10 9 9 10 11 11 12
35 41 38 31 26 22 24 29 29 29 21 30 30 32 32 33 30 32 35 36 36 37 37 36 32 28 26 20 13 12 8 5 5 8 9 11 11 10 8 10 11 12 12 10
30 30 34 30 31 25 28 31 33 23 26 34 33 33 33 32 33 35 36 35 35 35 34 30 28 25 21 13 11 10 6 4 8 10 11 10 9 9 9 11 12 13 11 10
31 29 28 31 33 31 32 31 29 33 36 34 35 35 33 34 35 36 36 35 33 32 30 27 24 20 14 12 10 7 5 8 10 11 10 9 8 8 10 15 15 13 10 9
25 29 27 28 28 34 34 34 34 35 34 33 34 34 34 34 34 36 36 35 33 31 28 25 23 18 14 11 8 6 7 10 10 9 8 7 7 8 11 13 13 11 9 9
30 33 29 30 33 32 33 33 33 34 34 34 34 34 34 34 35 35 36 36 34 32 29 25 22 19 14 11 10 8 9 10 9 7 6 6 8 11 11 10 10 11 10 11
31 33 32 32 33 33 32 33 33 34 34 34 34 34 34 34 34 34 34 35 35 33 29 25 23 18 15 11 8 9 10 10 8 6 5 7 8 11 11 9 10 12 14 17
33 32 31 30 33 33 32 34 35 34 35 35 34 34 34 34 34 34 34 34 34 32 27 23 20 18 12 8 8 9 10 10 8 6 7 9 11 11 9 9 11 17 20 22

GFSCGP_sfc_dewp_009.txt.gz
Dewpoint
39 39 37 38 39 41 38 39 35 36 35 36 36 35 32 34 34 34 31 31 35 37 40 41 43 43 45 49 52 54 54 56 56 57 55 52 49 48 46 44 42 40 39 38
37 37 36 35 39 40 40 36 35 34 35 35 33 33 34 34 36 36 31 31 35 37 38 40 41 41 41 44 49 51 55 56 54 52 51 49 47 45 44 43 40 37 35 35
34 37 36 33 37 41 40 39 34 34 35 34 34 35 35 36 35 32 32 32 35 36 37 39 40 42 43 43 46 47 48 49 49 50 49 47 47 46 42 40 38 36 32 28
34 36 38 33 36 42 39 41 35 34 35 32 35 26 28 31 29 29 29 33 36 37 37 39 40 42 44 46 47 46 46 46 46 46 45 44 41 39 38 37 35 33 30 25
33 36 38 34 39 42 40 40 36 37 36 38 37 32 29 30 28 29 30 34 36 37 38 39 41 43 45 47 47 45 44 43 43 42 41 39 38 37 35 33 31 27 26 24
32 39 39 37 41 46 44 39 40 38 35 31 31 31 26 27 27 27 31 34 37 37 39 40 42 44 45 46 45 45 41 40 39 39 38 37 36 33 32 29 25 22 20 21
35 36 40 42 41 45 43 40 36 32 32 27 28 29 28 24 26 26 31 34 37 38 39 40 41 42 44 44 43 40 39 37 36 35 34 33 33 30 27 23 20 17 15 17
33 31 37 38 43 41 41 40 30 25 25 25 27 26 26 27 27 28 32 35 37 38 39 40 41 43 44 43 41 39 37 35 33 31 29 27 27 24 20 18 16 14 13 14
32 34 39 42 44 41 40 38 33 29 27 25 27 27 26 28 29 28 31 35 37 38 40 40 42 43 43 42 40 39 36 33 30 28 25 21 19 19 18 15 14 14 12 9
37 33 38 44 44 44 41 37 32 29 24 23 24 24 24 26 27 29 29 34 37 39 39 40 41 42 41 40 39 38 35 32 28 24 21 18 14 13 12 12 12 12 10 11
40 35 35 40 40 39 42 37 36 31 28 23 22 23 26 25 26 29 29 33 37 39 39 40 40 41 40 39 38 36 33 29 25 21 18 16 12 11 10 9 10 9 9 9
40 38 33 34 32 39 41 38 35 29 27 26 25 23 25 26 29 30 30 33 37 39 39 39 40 41 39 38 36 34 33 28 24 18 14 13 13 12 11 9 9 7 8 8
37 35 35 36 33 38 38 36 37 34 31 27 23 24 26 29 31 31 31 32 37 39 39 38 40 40 37 36 34 32 30 26 19 16 13 12 13 13 11 10 9 9 9 9
40 33 30 27 29 36 36 37 35 33 29 27 27 25 25 28 31 32 32 34 37 38 39 38 40 39 37 35 33 30 27 22 18 14 12 13 13 12 12 12 11 10 10 10
38 31 29 27 29 32 33 35 35 34 33 29 27 27 26 26 30 31 33 34 36 37 38 38 40 38 36 34 31 28 24 20 15 12 12 14 13 13 12 13 13 11 12 12
37 33 30 29 30 29 29 31 33 33 33 32 30 29 29 29 28 30 32 33 34 36 37 38 40 39 36 33 30 27 23 19 14 11 11 12 12 12 12 13 12 12 13 13
36 36 30 27 28 30 28 29 30 31 31 30 29 31 31 29 29 30 31 33 34 35 36 38 39 39 37 33 30 25 20 15 12 11 10 10 11 11 12 11 10 12 12 13
36 35 32 30 26 26 27 29 30 29 31 32 32 31 30 30 30 31 33 33 35 36 37 39 39 39 36 32 28 23 15 13 12 11 9 10 10 9 10 9 10 10 11 12
39 37 34 31 31 31 31 26 28 29 29 30 29 30 30 33 34 34 35 35 35 36 37 39 40 37 33 29 24 17 15 13 10 9 8 8 8 8 8 8 9 10 12 13
39 40 38 35 28 26 25 29 28 30 26 29 32 31 31 34 31 32 36 36 37 37 38 39 37 32 30 26 20 18 15 11 7 8 8 8 9 8 7 8 10 12 13 12
37 39 36 36 34 30 29 30 30 23 29 30 30 32 33 32 34 35 35 35 36 36 36 34 32 30 27 20 18 17 11 7 8 9 8 8 8 7 7 9 12 15 13 11
34 34 35 37 34 31 32 31 28 34 35 32 33 34 34 35 35 34 34 34 34 33 32 31 29 25 19 17 17 12 9 8 9 9 8 8 7 6 10 17 18 16 12 10
34 32 29 31 32 34 33 34 35 36 35 35 35 35 35 34 34 35 35 34 33 32 30 28 26 20 18 16 14 10 9 8 8 8 7 7 6 8 11 16 16 13 10 8
29 31 30 29 32 32 33 34 34 35 35 35 35 34 34 34 35 35 35 35 33 32 29 27 24 21 18 14 11 8 9 8 8 7 6 5 7 11 11 11 12 11 9 10
30 31 31 31 33 33 33 34 34 34 35 34 34 34 34 34 34 34 35 35 35 33 31 28 26 24 19 14 10 9 9 8 8 6 5 7 9 10 12 11 10 9 11 14
32 31 31 30 33 32 33 34 34 34 34 34 34 35 35 35 35 35 34 35 35 33 31 28 26 22 18 13 9 8 9 9 8 6 7 10 11 12 11 10 11 17 19 20

GFSCGP_sfc_dewp_012.txt.gz
Dewpoint
37 37 35 37 38 38 37 36 38 36 40 37 36 35 37 37 36 35 34 31 35 38 40 42 44 46 50 53 53 55 56 56 57 58 52 49 48 46 44 42 38 37 36 38
36 34 34 35 36 37 36 38 39 38 38 37 35 35 36 36 35 34 34 31 36 38 39 41 42 43 47 50 52 55 55 53 52 51 50 49 46 45 43 42 38 33 31 31
33 33 35 33 33 34 34 35 39 39 38 39 34 34 33 34 33 35 36 32 37 37 39 40 41 43 45 47 47 49 50 50 50 49 47 46 47 45 42 40 37 33 27 26
33 33 31 33 32 33 31 36 39 41 41 35 34 29 32 33 34 35 33 33 37 37 38 40 41 43 45 47 47 47 47 48 48 48 47 44 41 39 39 37 35 32 27 24
32 33 31 31 36 34 34 38 39 41 41 39 36 31 32 31 33 31 29 31 36 37 38 40 42 45 46 47 46 45 44 43 43 41 41 40 38 37 36 33 29 25 25 23
34 36 34 33 34 37 36 37 41 42 40 35 39 33 30 30 29 29 30 34 36 37 39 41 44 45 46 46 45 42 40 40 40 38 38 37 35 33 31 27 25 23 24 25
35 35 36 37 38 36 37 38 35 33 34 33 32 33 31 25 27 29 30 35 36 38 40 42 43 44 45 44 42 40 39 37 36 35 33 32 30 27 23 22 21 17 19 21
28 26 36 37 37 35 38 38 33 29 31 26 29 28 29 27 27 31 33 36 37 38 40 41 42 43 44 43 40 38 36 34 32 30 27 26 25 25 22 19 18 16 16 16
32 31 38 38 36 40 36 34 39 36 27 26 27 27 26 28 27 30 34 36 37 38 40 41 42 44 43 41 39 37 34 32 29 26 23 20 18 18 17 15 16 17 14 10
34 32 38 39 41 43 41 42 37 36 25 25 26 26 25 27 28 28 33 35 37 39 40 40 42 43 42 40 39 36 32 29 26 23 20 16 13 12 13 13 11 12 11 12
36 34 35 36 41 38 40 40 40 37 32 25 23 24 28 27 29 29 31 35 38 38 39 40 41 42 40 39 38 35 31 26 24 21 18 15 13 12 11 11 10 9 10 10
37 36 33 35 38 42 42 40 36 29 29 30 26 24 26 28 29 30 30 35 38 39 39 40 41 40 39 38 36 34 30 26 22 18 15 14 14 13 11 10 10 10 9 10
38 35 32 33 39 43 41 41 37 36 33 29 23 24 28 31 30 31 31 35 38 39 39 40 41 39 38 37 35 33 30 23 19 16 15 14 15 13 12 11 11 11 11 11
45 38 34 33 34 38 38 38 36 36 31 29 27 24 27 31 31 31 32 34 38 39 39 39 40 39 37 36 34 31 27 21 18 15 15 15 13 13 13 13 13 13 12 12
39 37 38 35 37 37 37 36 36 35 34 30 28 25 25 30 32 32 33 35 38 38 38 39 40 38 37 34 32 28 24 20 16 14 17 15 14 14 14 15 15 14 14 14
35 35 35 29 31 33 35 36 36 35 33 32 33 31 29 28 31 32 33 35 36 37 38 39 40 38 35 33 29 26 23 18 15 14 15 15 14 13 14 14 14 14 15 14
35 36 33 26 29 29 27 30 34 35 35 34 32 33 30 28 29 31 32 34 35 37 38 39 40 38 35 32 28 24 20 16 14 14 13 13 13 13 13 12 12 13 12 12
36 36 35 28 27 24 28 29 30 31 32 33 32 32 32 31 32 34 33 33 35 37 38 39 40 38 34 31 27 21 16 15 15 13 12 12 12 11 11 10 11 11 11 12
37 37 35 31 30 30 31 27 28 29 30 31 32 33 32 35 34 34 36 36 37 38 39 40 39 34 30 27 19 16 16 14 13 12 10 9 9 9 9 10 9 10 12 14
41 41 39 32 28 26 27 29 29 31 28 31 32 32 34 34 31 34 36 37 38 39 39 37 33 31 28 22 18 17 14 12 9 9 10 9 10 9 8 9 9 12 15 14
37 38 36 35 32 33 30 30 29 25 28 32 31 34 34 34 35 35 36 36 37 36 34 32 31 29 24 20 19 15 11 8 10 10 10 9 9 8 7 10 12 15 14 13
35 36 35 36 34 31 32 31 29 34 33 33 35 36 36 35 35 35 35 35 34 33 32 30 26 21 18 19 15 11 9 10 10 10 10 9 8 7 9 15 17 16 13 11
35 37 35 36 35 35 34 35 35 36 34 35 36 36 35 35 34 35 34 33 33 31 30 27 21 19 18 16 14 10 10 10 9 8 8 7 7 7 11 14 15 14 11 10
36 35 31 30 32 33 34 34 35 36 36 36 36 35 35 35 35 35 34 33 31 29 29 25 21 19 16 12 10 10 10 10 9 7 7 6 7 12 12 13 14 13 10 10
31 31 31 32 33 33 34 34 35 35 35 35 35 35 35 35 35 35 35 34 33 31 29 26 24 21 16 13 10 11 10 9 8 7 6 8 11 12 13 13 12 11 12 15
32 30 30 30 33 32 33 34 35 34 35 35 35 35 36 36 35 35 35 36 34 32 30 29 26 20 17 13 10 11 11 10 9 7 9 11 13 14 14 12 12 18 19 21

GFSCGP_sfc_dewp_015.txt.gz
Dewpoint
37 36 33 35 37 37 34 34 36 39 39 39 38 39 39 38 38 37 32 32 38 39 41 43 45 50 52 53 54 55 56 57 53 50 47 45 45 40 38 35 33 32 33 32
35 33 34 36 36 37 36 36 35 36 40 39 38 37 38 38 38 37 36 34 38 40 41 43 44 48 50 52 53 53 52 52 51 50 48 46 43 41 39 37 30 27 26 27
32 33 34 34 33 34 35 35 34 34 37 40 39 38 36 37 37 36 36 35 39 40 40 40 43 46 47 48 49 50 49 48 47 46 44 44 44 42 39 36 32 26 24 25
34 33 32 33 33 33 31 34 34 34 35 35 40 34 36 36 34 34 34 35 38 39 40 41 42 44 46 47 48 48 49 48 47 45 44 43 40 38 37 36 32 27 22 22
32 33 32 31 32 33 31 33 32 33 35 36 38 37 34 33 33 33 35 36 38 39 40 41 43 45 46 45 44 43 43 43 43 43 41 39 37 36 35 30 27 24 22 21
33 36 35 32 32 32 37 35 35 36 36 32 36 36 31 31 32 32 32 36 37 39 40 43 45 46 45 43 41 40 39 38 38 39 38 36 33 29 27 24 23 23 24 23
36 36 37 37 35 37 36 33 27 27 29 28 34 35 36 30 32 33 30 36 37 39 42 44 44 44 43 41 40 38 36 35 34 32 30 28 25 23 21 20 18 17 18 19
27 21 34 36 34 31 33 32 29 21 25 29 38 35 34 36 31 32 34 36 38 40 42 44 44 44 42 40 38 36 34 32 30 28 26 24 22 22 20 18 17 16 15 15
27 28 35 35 34 34 32 30 32 34 35 33 36 33 29 28 30 34 36 36 38 40 42 43 44 43 42 39 37 34 32 29 26 23 20 18 18 17 16 14 15 15 13 12
33 28 31 34 35 36 35 36 32 33 29 28 29 25 25 26 30 34 35 36 38 40 41 42 43 43 41 38 36 33 30 27 24 20 16 14 12 13 13 12 10 10 10 11
33 33 32 34 36 32 35 36 35 37 34 31 28 26 28 27 29 33 35 37 38 40 40 42 43 42 40 38 34 31 28 24 20 18 14 12 13 12 11 10 10 9 10 10
37 35 30 32 38 39 34 36 35 32 33 35 25 23 27 29 29 33 35 37 38 40 40 42 42 41 39 37 34 29 26 23 20 17 14 14 14 12 11 10 10 11 10 11
37 34 28 32 37 40 36 39 36 36 39 33 23 23 30 29 30 30 35 37 38 39 41 41 41 39 38 36 32 29 25 21 17 16 15 15 13 12 11 11 11 12 12 12
39 36 34 31 36 39 36 35 39 38 35 31 25 25 29 29 30 30 35 38 38 39 40 41 39 38 38 35 33 30 23 19 16 16 16 14 13 13 12 13 14 14 14 13
37 34 36 35 35 37 38 38 37 36 37 30 25 25 28 30 31 31 36 38 38 39 39 40 39 38 37 34 32 26 20 17 16 16 16 15 15 14 14 15 15 14 14 14
38 35 38 37 38 38 38 40 38 36 36 33 33 32 27 31 32 32 36 38 38 38 39 40 39 37 36 33 29 22 19 16 16 17 16 16 15 13 14 14 14 13 14 14
35 36 37 28 37 35 34 36 36 36 35 33 31 33 28 31 32 32 35 38 38 38 38 40 39 37 34 30 25 20 16 15 15 14 15 14 14 13 13 12 11 12 11 12
33 36 36 31 28 23 26 30 36 36 36 36 35 33 31 32 35 35 35 36 37 38 39 40 39 35 32 27 23 17 15 15 16 14 13 13 13 11 11 10 10 10 10 12
37 36 35 30 29 28 29 27 29 31 31 34 35 33 33 34 34 34 37 37 38 39 39 39 35 31 27 22 17 15 15 15 14 12 11 10 10 9 9 9 9 9 12 15
39 39 36 28 24 25 27 29 29 30 27 32 31 33 33 33 30 33 37 39 38 37 35 31 29 24 19 16 16 14 13 13 11 10 11 10 10 9 8 8 8 11 14 14
37 37 31 32 31 31 33 29 30 26 26 33 32 34 34 32 33 36 37 36 34 33 31 29 26 21 18 17 15 14 11 9 11 11 10 10 9 8 7 9 12 15 15 14
36 35 35 36 33 28 32 29 24 30 33 35 36 35 35 35 36 35 34 34 33 32 30 26 23 20 19 18 13 10 9 11 11 11 10 9 8 7 9 14 15 15 14 12
36 37 36 36 35 36 35 34 35 35 34 35 35 35 35 35 34 34 33 32 31 30 25 22 19 18 17 13 11 10 10 11 10 9 8 7 6 7 12 13 14 14 12 11
37 38 33 35 34 33 33 34 35 36 36 36 36 35 35 34 33 33 32 31 30 28 23 20 18 16 13 12 11 10 10 10 9 7 6 6 9 14 12 13 14 13 12 12
33 35 33 31 33 33 33 33 35 35 35 35 36 35 35 34 34 33 32 31 30 29 24 21 19 16 13 10 10 10 10 9 8 6 6 10 12 13 14 14 13 14 14 17
31 30 31 32 33 31 32 35 35 34 35 35 35 35 36 36 35 35 34 32 30 28 27 25 21 17 14 10 11 11 11 10 8 8 10 12 14 14 14 13 14 18 20 21

GFSCGP_sfc_dewp_018.txt.gz
Dewpoint
37 35 32 33 37 37 36 33 33 35 38 39 38 38 38 41 39 38 38 36 34 39 41 42 45 49 52 53 55 55 56 50 48 46 44 43 39 36 34 32 30 30 29 29
35 33 33 34 35 36 36 35 34 35 35 37 38 38 39 39 39 39 38 37 35 39 41 43 48 51 53 54 55 55 54 51 49 47 45 42 39 37 34 30 26 25 26 26
31 31 33 34 34 34 34 34 33 33 34 35 33 33 36 40 39 39 39 38 37 40 41 43 48 49 51 51 51 51 50 48 47 44 41 39 37 37 34 30 26 24 23 25
33 34 33 33 33 34 32 35 35 34 33 29 36 30 35 37 38 38 37 35 38 40 41 43 46 48 49 48 49 48 48 46 44 43 39 36 35 34 36 32 27 23 21 23
33 33 33 32 31 33 32 33 33 34 33 32 31 31 32 36 36 38 37 35 38 40 41 44 46 47 47 47 47 47 46 45 45 44 41 39 37 36 34 29 24 20 20 21
33 36 34 32 31 34 36 33 33 33 33 28 27 29 29 35 35 36 36 35 37 40 41 43 45 45 44 43 42 43 43 42 42 41 38 36 34 30 28 26 24 23 22 22
35 36 36 37 33 34 32 31 24 23 24 21 27 27 28 35 36 34 35 35 38 39 41 44 44 43 41 40 39 38 39 37 37 35 34 31 27 23 20 19 20 18 17 17
29 26 35 36 34 32 32 30 25 16 17 20 30 29 33 35 35 36 36 35 38 39 42 44 43 42 40 38 37 35 34 32 30 29 26 22 21 22 20 17 17 16 15 15
28 28 34 35 33 33 32 31 30 27 29 29 31 35 38 38 32 32 35 36 38 41 43 43 43 41 39 37 35 33 31 28 26 23 21 19 18 18 17 15 14 14 13 12
31 24 32 34 35 35 33 32 28 28 22 20 30 35 32 32 32 34 35 36 39 42 43 43 42 41 39 37 34 31 28 25 21 19 16 15 14 14 13 12 10 10 10 10
33 29 31 34 33 29 32 32 30 27 27 30 25 30 35 28 31 34 35 37 40 41 43 43 42 41 38 35 32 29 26 22 18 15 13 12 12 12 11 10 10 9 10 10
32 32 27 29 31 34 33 30 30 26 25 28 31 28 31 30 33 37 38 37 40 41 42 43 42 40 37 33 30 27 24 20 17 14 13 14 13 12 10 10 10 11 10 11
34 34 27 28 32 36 35 34 33 32 35 32 30 28 29 31 35 38 36 38 39 41 42 42 41 39 36 33 29 25 22 19 16 15 15 14 13 12 11 11 12 12 12 12
39 35 32 26 34 36 34 32 34 32 28 29 31 32 32 29 30 35 37 38 39 40 41 42 40 38 36 32 28 24 20 17 16 16 15 14 13 12 12 13 14 14 13 13
37 32 34 35 35 37 34 32 34 35 34 32 32 32 30 30 29 34 37 38 39 40 41 41 39 38 35 32 28 23 18 16 16 16 16 15 15 14 14 14 14 14 14 14
38 32 35 35 37 37 37 35 37 36 36 35 34 35 29 31 32 36 37 38 38 39 40 40 39 37 35 32 27 20 17 16 17 17 17 17 15 14 15 14 13 12 13 12
37 35 34 33 38 37 36 36 36 36 36 35 33 36 30 31 31 35 37 38 38 39 40 39 38 37 35 31 23 18 15 17 16 17 16 15 14 13 13 12 11 11 10 12
36 34 35 33 35 24 28 40 39 38 38 40 38 31 31 32 35 35 36 38 38 39 40 40 38 36 33 27 21 16 15 15 16 16 14 14 14 12 11 10 9 9 10 12
36 36 32 30 28 28 28 28 35 37 35 36 36 32 34 35 34 35 38 38 39 39 40 39 37 32 26 21 16 14 15 15 15 13 13 11 10 9 9 8 8 8 11 14
37 37 35 27 26 25 27 28 29 30 27 32 34 33 33 33 31 33 37 38 37 35 35 32 28 24 20 16 15 14 14 13 12 12 11 10 11 9 7 7 8 11 14 14
37 35 30 30 31 30 33 31 30 26 26 32 32 34 34 30 33 36 35 32 32 30 26 25 23 19 16 15 14 13 12 11 12 12 11 10 9 8 7 9 12 14 14 13
34 34 34 34 29 25 33 28 26 29 34 35 35 35 35 36 36 34 33 32 30 28 25 22 19 17 17 15 13 11 10 11 11 11 10 9 7 7 11 14 15 15 13 11
34 36 35 34 33 35 34 34 36 34 35 35 35 36 36 35 34 34 32 31 28 25 23 21 19 17 14 12 11 10 10 11 11 9 8 6 6 10 12 14 14 14 12 12
35 37 36 35 35 35 33 35 35 35 35 35 35 35 35 34 33 32 31 29 25 23 21 19 17 15 12 11 11 10 11 11 8 7 5 7 11 14 13 14 13 14 14 14
37 37 34 34 33 34 33 35 35 35 36 35 35 34 34 33 32 31 30 28 26 22 20 18 16 14 12 11 10 11 10 9 7 5 7 10 12 14 14 13 14 16 16 17
32 36 35 34 34 32 32 35 35 35 35 35 34 34 34 33 32 31 30 29 26 22 21 19 16 13 11 10 10 11 11 9 7 7 10 12 15 14 13 14 14 19 20 21

GFSCGP_sfc_dewp_021.txt.gz
Dewpoint
37 36 34 34 36 37 36 35 34 34 36 36 36 37 38 40 40 40 40 39 38 37 38 41 43 45 49 52 52 49 54 49 47 45 43 42 38 35 33 31 29 28 28 28
35 32 34 33 34 34 35 34 34 34 36 35 34 33 35 36 38 40 39 39 39 36 40 41 44 49 52 53 54 54 50 48 48 46 42 40 36 32 29 28 25 26 26 26
33 31 33 33 32 32 33 32 30 31 33 34 32 27 25 30 36 39 41 40 40 37 39 41 47 50 52 53 53 52 50 48 46 41 38 34 31 29 28 25 25 24 24 25
35 35 31 31 31 33 29 33 33 32 32 27 33 23 27 32 33 37 38 40 39 37 39 42 48 50 51 52 52 50 48 45 42 40 37 33 32 29 31 27 23 22 22 23
33 34 32 31 32 33 30 33 34 34 33 31 29 29 26 31 29 33 38 39 38 38 40 43 48 50 50 50 49 48 46 44 42 40 37 36 34 33 31 24 21 19 20 21
33 36 35 33 32 33 35 33 32 33 32 25 26 27 23 20 28 34 38 39 38 39 40 44 48 48 47 47 47 46 45 44 42 40 38 35 33 29 26 24 22 21 21 21
35 36 37 37 33 33 33 33 26 24 24 20 25 26 25 25 31 34 35 37 37 39 42 45 46 46 45 45 44 44 44 41 39 37 35 33 30 27 24 23 23 19 17 17
28 26 36 36 33 31 32 32 26 17 17 19 20 19 22 30 28 28 33 36 37 39 42 45 46 46 44 42 42 42 41 37 35 33 30 26 23 24 21 20 18 16 15 15
28 26 36 36 35 36 34 30 31 27 27 26 26 28 35 32 35 34 33 35 37 39 42 45 45 43 41 39 38 38 36 32 30 26 23 20 20 19 17 15 15 15 14 12
32 23 32 34 35 36 35 33 29 30 20 17 21 28 26 33 33 30 34 35 37 40 42 44 43 40 39 36 33 32 31 28 23 20 18 17 15 14 14 13 11 11 10 11
34 31 27 35 33 30 33 31 32 28 26 20 21 23 36 34 34 33 33 35 38 41 42 43 41 39 36 33 31 28 24 21 18 16 15 14 13 12 11 10 10 10 10 10
33 32 27 27 32 32 30 28 29 26 20 23 21 19 30 31 31 36 37 39 41 43 43 42 40 37 34 32 29 25 21 18 16 14 13 13 13 11 10 10 10 11 10 12
34 33 25 29 29 33 34 31 29 28 30 23 20 14 30 33 34 37 40 41 42 43 42 41 39 36 33 30 27 23 19 16 14 14 14 13 12 12 11 11 12 12 12 12
36 35 31 25 31 32 30 31 31 30 26 24 24 25 30 35 36 37 38 41 43 42 42 41 39 36 33 30 26 21 18 15 15 15 14 14 13 12 12 13 13 14 13 13
37 31 33 33 34 34 34 30 31 31 29 25 23 31 34 35 37 38 39 39 40 41 42 40 38 36 32 28 24 20 17 16 16 15 16 15 14 14 15 15 14 14 14 13
38 30 33 31 35 35 34 35 32 31 29 28 31 34 34 36 36 36 38 39 40 41 41 40 39 36 32 28 23 18 16 16 16 16 17 17 16 15 15 14 13 12 12 12
35 33 33 32 36 35 32 35 32 32 32 33 33 34 36 35 36 35 37 38 39 40 41 40 38 36 32 27 21 17 16 17 16 17 17 16 15 14 13 11 11 10 10 13
36 36 35 33 35 28 36 41 34 31 35 37 38 39 38 38 39 36 37 38 39 40 41 40 38 36 32 25 20 16 16 16 17 17 15 15 15 12 11 10 8 8 11 13
38 36 35 32 30 30 28 40 39 38 36 41 40 39 38 38 36 35 38 39 39 40 41 39 38 33 27 21 17 16 16 16 16 15 14 12 11 10 9 8 7 9 12 14
37 37 36 32 28 25 27 29 39 39 35 38 38 38 38 37 31 34 38 39 39 39 38 35 30 26 21 17 15 15 14 14 13 13 12 11 11 8 7 7 10 12 14 13
33 36 34 31 30 29 33 32 33 29 26 32 37 40 39 34 38 36 33 31 31 32 29 27 26 22 17 15 15 14 13 13 13 12 11 10 9 7 7 11 13 14 13 12
33 32 32 33 28 24 32 29 27 28 34 35 35 34 35 36 34 32 31 29 28 26 24 22 19 16 15 15 14 13 12 12 12 12 11 9 7 9 13 14 15 14 12 12
32 34 33 32 31 34 34 34 36 34 34 34 35 36 36 34 33 32 29 26 24 23 21 20 17 15 13 13 13 11 11 12 11 9 7 6 11 12 13 14 14 13 14 14
35 37 35 35 33 35 35 35 36 35 35 36 36 36 36 34 32 29 26 25 23 21 20 17 15 13 12 12 12 11 12 11 8 6 6 11 15 13 13 13 13 15 15 15
36 37 35 34 34 33 34 34 35 35 35 35 35 35 34 33 32 29 26 24 22 20 19 18 15 13 12 11 10 11 10 8 6 6 9 12 13 14 13 13 14 17 17 18
35 36 35 34 35 33 33 34 36 35 35 34 34 33 33 33 31 29 27 24 21 19 18 16 14 13 11 10 10 10 10 8 7 8 10 16 14 14 13 14 15 18 20 21

GFSCGP_sfc_dewp_024.txt.gz
Dewpoint
37 36 34 36 35 34 34 35 34 34 36 35 34 34 34 36 39 39 40 40 40 40 40 39 40 43 46 49 49 55 56 50 49 46 44 43 40 37 33 31 29 28 28 28
34 32 34 35 35 35 34 33 32 31 32 34 33 33 33 34 35 37 39 40 40 41 38 39 42 45 49 51 51 53 52 49 49 48 43 48 37 32 29 29 26 26 25 26
31 31 34 34 32 32 31 31 29 29 31 32 31 27 23 24 28 30 32 35 38 40 40 39 41 46 50 51 52 52 49 48 46 41 37 35 31 27 27 25 25 25 24 25
35 35 33 32 31 32 29 32 32 32 31 25 29 22 22 24 23 26 28 33 37 40 39 39 41 48 50 51 52 50 48 46 42 40 37 34 34 27 27 24 24 23 23 23
32 34 34 33 31 32 30 32 32 33 31 31 28 27 23 25 25 27 35 37 38 40 40 39 43 47 50 51 50 49 46 44 41 39 37 36 32 28 25 22 20 20 20 21
33 36 35 32 32 32 34 32 32 33 32 25 25 26 21 20 21 22 24 31 37 39 39 40 44 50 50 50 48 46 44 42 40 38 36 34 28 23 22 21 20 21 21 21
35 35 37 37 32 34 33 34 25 23 24 20 24 25 24 21 23 24 24 32 37 39 39 44 47 49 48 48 47 45 44 41 39 37 36 31 26 22 20 20 20 18 17 18
27 23 33 37 32 30 31 31 26 18 16 17 22 19 22 27 28 28 27 34 36 38 40 44 47 49 49 48 46 45 43 40 38 35 32 29 26 25 23 22 19 17 16 16
30 26 35 35 35 32 34 30 31 29 30 26 24 25 26 31 27 31 30 28 30 38 41 44 48 49 48 46 45 44 41 37 34 30 27 24 23 22 20 16 16 16 15 13
29 27 31 34 36 36 35 34 28 29 20 19 19 20 21 26 28 32 32 33 32 38 41 44 47 46 45 44 40 39 37 33 27 24 22 20 17 15 15 14 13 12 11 12
32 31 27 34 33 29 34 33 34 31 29 17 14 17 28 30 32 35 35 34 35 39 41 45 45 42 38 37 36 33 29 25 21 19 16 15 14 13 11 11 11 11 11 11
33 33 27 26 31 33 31 30 30 24 20 24 21 18 32 35 37 37 37 38 38 40 43 44 41 37 36 33 31 29 25 21 18 15 14 13 12 11 10 10 11 11 11 13
33 32 26 26 30 33 33 33 29 28 29 22 18 15 19 24 33 39 40 41 42 42 41 39 37 36 33 30 26 23 20 16 15 14 13 13 12 11 11 11 12 12 13 13
36 35 30 25 27 32 30 32 34 31 27 22 22 22 22 25 37 40 40 41 42 42 41 40 37 34 31 27 23 19 15 14 14 14 13 13 13 12 13 14 13 14 14 13
36 31 32 33 33 33 33 32 33 31 28 24 21 21 22 34 36 41 40 44 44 44 40 38 36 32 29 24 20 17 15 15 14 14 15 15 15 15 15 15 14 14 13 13
39 31 33 31 33 34 32 34 34 31 30 29 27 26 30 36 40 41 42 42 44 41 41 38 35 32 28 23 19 16 15 15 15 16 17 16 16 16 15 14 13 12 13 14
36 33 33 29 34 33 31 32 33 33 31 29 28 28 29 31 39 39 38 38 40 41 41 38 35 32 28 23 18 16 15 16 16 17 17 16 16 15 14 12 11 11 12 13
36 35 34 31 34 28 36 41 34 33 32 32 31 33 38 40 38 38 37 38 40 41 41 39 36 32 27 21 18 16 16 17 17 17 16 16 15 13 12 9 9 10 12 13
36 36 34 32 31 34 30 39 35 33 32 33 32 33 36 38 36 35 37 39 40 41 41 39 36 31 24 19 17 16 17 17 17 15 15 13 12 10 9 8 9 11 13 13
37 37 35 33 29 26 27 30 40 39 35 39 39 37 38 37 34 34 38 39 40 40 39 36 31 26 20 17 16 16 16 15 15 14 13 12 11 9 7 9 11 13 13 12
35 35 33 33 29 29 33 32 40 32 29 32 40 40 38 38 36 35 34 33 34 35 32 29 27 23 18 16 16 15 14 14 14 13 12 11 9 8 10 12 13 13 12 12
31 31 32 32 29 23 32 32 29 30 33 35 35 38 40 36 34 32 31 31 30 29 27 23 20 17 16 16 15 14 13 13 12 12 10 8 9 12 14 14 14 13 13 13
31 32 31 31 29 32 35 33 35 35 34 34 34 35 35 33 32 30 27 26 24 23 22 20 17 15 15 15 14 12 12 12 10 8 7 10 12 13 14 13 13 14 14 14
33 36 35 34 34 35 36 35 36 35 35 35 36 35 34 32 29 26 24 23 22 21 19 18 16 14 13 12 12 11 11 10 7 6 10 15 13 13 13 13 14 16 15 15
35 36 35 34 35 34 34 34 35 35 35 35 35 34 32 29 28 26 23 22 20 19 18 17 15 14 12 11 11 10 9 7 6 9 11 13 14 13 13 14 14 17 17 18
36 36 35 34 36 34 32 35 35 35 34 34 34 33 33 30 28 25 23 21 20 18 17 15 13 12 11 10 10 9 9 8 8 9 14 15 14 14 14 14 15 18 19 21

GFSCGP_sfc_dewp_027.txt.gz
Dewpoint
38 36 33 35 36 35 35 35 32 34 35 33 32 32 32 34 35 35 35 36 38 40 42 43 43 42 43 46 49 52 59 61 56 52 51 50 47 44 43 35 32 31 33 29
36 33 34 33 36 35 34 33 32 31 31 32 31 31 32 34 34 34 33 34 37 38 41 42 41 42 44 46 49 55 58 56 55 54 52 52 49 42 35 33 33 32 29 28
32 31 34 34 33 32 33 32 30 27 30 31 30 26 22 23 26 30 33 34 34 36 37 41 41 42 46 48 51 54 54 53 51 48 43 41 41 38 29 28 32 31 27 27
34 35 33 33 32 33 29 32 31 30 30 23 29 20 20 21 21 22 24 27 31 33 35 39 41 43 46 50 53 53 51 50 46 46 44 44 43 39 30 30 27 26 25 25
32 34 34 32 31 32 30 32 31 31 31 29 27 26 23 25 24 26 26 27 29 33 37 39 41 43 46 52 54 52 50 47 44 45 45 48 47 38 26 24 22 22 23 23
33 36 35 34 34 33 34 32 32 33 32 26 25 26 21 20 20 22 25 26 32 36 38 40 42 44 48 53 53 50 48 45 43 43 45 43 40 25 23 22 21 20 21 21
33 36 37 35 32 34 33 34 26 24 25 21 24 26 23 23 25 25 24 25 26 32 36 40 43 47 50 52 51 48 47 43 41 40 39 35 28 23 22 21 21 20 18 19
29 23 34 37 33 31 32 32 26 18 18 19 23 23 23 27 26 26 27 28 29 31 38 40 44 47 49 51 49 47 45 41 40 39 35 29 26 24 22 22 20 18 18 17
28 27 34 36 36 33 33 30 31 27 26 25 23 23 24 25 27 30 33 36 34 32 38 41 45 48 50 50 49 47 44 41 39 35 30 26 26 26 24 20 19 18 16 14
31 26 30 34 35 35 35 33 28 29 20 18 22 23 21 22 23 35 37 38 39 36 36 42 46 48 50 50 47 45 42 39 35 30 27 24 22 21 19 18 16 16 14 14
32 29 26 35 32 28 33 32 33 30 28 19 14 17 20 20 34 37 38 40 40 40 37 42 46 48 48 45 44 40 37 33 28 25 21 20 18 16 15 14 13 13 13 14
33 31 25 26 29 32 30 30 30 27 23 27 21 17 33 35 36 39 40 41 42 42 40 45 45 42 42 41 38 36 32 27 24 20 18 16 15 14 12 11 12 12 12 14
33 31 24 24 29 30 32 33 33 33 32 26 21 17 21 27 33 39 40 42 42 42 41 40 40 40 39 38 33 30 26 20 17 16 15 14 13 12 11 12 12 13 14 14
35 32 28 23 28 33 31 33 34 32 27 24 24 22 22 22 24 31 41 43 44 42 39 38 37 36 33 31 28 23 19 17 16 15 14 14 13 13 13 13 13 14 13 14
35 31 32 32 32 33 32 32 33 31 29 27 23 22 22 23 26 39 41 41 43 43 40 38 35 32 28 25 22 19 16 15 14 15 16 15 15 15 15 15 15 14 14 15
37 32 34 31 32 32 32 35 34 33 32 30 28 26 26 34 37 37 36 40 42 43 41 38 34 30 26 23 20 18 15 15 16 16 16 16 16 15 16 15 13 15 16 15
37 34 33 28 32 34 32 35 34 34 33 31 29 29 30 30 33 34 37 41 40 43 40 36 32 29 25 21 19 19 15 16 16 16 16 16 15 14 14 12 12 14 14 14
34 35 34 30 34 28 37 39 38 34 34 33 32 31 33 35 39 40 41 42 39 42 39 36 32 27 22 19 17 16 16 17 17 17 16 16 14 13 11 10 12 12 13 14
36 35 34 31 30 32 31 34 36 33 34 35 33 33 34 36 39 39 38 38 40 42 39 36 31 25 21 18 16 16 17 17 17 16 15 13 11 10 9 11 11 12 13 13
37 36 35 32 29 26 29 33 40 39 33 37 35 33 33 37 36 35 37 39 41 40 38 33 28 23 19 17 16 16 16 16 15 15 13 12 11 8 9 12 13 13 13 11
34 35 31 32 32 29 32 33 40 29 27 32 38 37 38 37 37 35 35 34 36 36 33 28 25 22 18 17 17 16 16 15 14 13 11 10 9 10 12 13 13 12 12 12
30 30 33 33 30 24 32 36 32 30 33 34 35 40 39 36 34 33 31 32 32 30 27 24 21 18 17 17 16 15 14 13 12 11 9 9 12 13 14 15 14 13 13 13
31 31 30 31 29 32 34 32 34 35 34 34 35 36 36 33 32 30 27 25 25 24 22 20 18 16 16 16 15 13 12 11 10 8 11 12 13 13 14 14 15 13 14 14
33 36 35 34 34 35 36 36 35 35 35 36 36 35 34 31 28 25 24 23 22 21 19 18 17 15 13 13 13 12 11 9 8 10 12 13 13 13 13 13 15 15 15 16
34 36 35 35 35 35 35 34 35 35 35 34 33 32 30 28 26 24 22 21 20 19 19 17 15 14 12 12 11 10 9 8 9 12 14 15 15 13 13 14 15 17 17 18
35 35 35 34 35 34 33 35 35 35 34 34 32 30 29 27 25 23 21 20 18 17 16 15 14 12 11 10 9 8 9 10 11 12 13 14 14 14 14 14 14 18 19 20

GFSCGP_sfc_dewp_030.txt.gz
Dewpoint
39 36 32 32 31 31 32 32 31 31 33 32 30 29 30 31 32 32 32 32 33 35 37 40 42 43 44 44 45 45 48 53 57 59 61 62 59 57 53 51 47 41 39 35
36 33 31 33 33 32 32 31 29 30 31 30 29 28 29 29 30 30 29 28 28 29 32 35 39 41 42 43 44 46 50 54 58 59 58 59 57 54 50 47 45 40 36 32
31 31 33 33 32 31 30 30 30 29 29 28 28 25 23 21 22 24 26 28 28 28 28 30 33 38 42 43 45 47 51 57 58 57 57 53 46 42 40 40 42 37 33 28
34 33 32 32 31 31 28 29 30 30 29 25 28 22 22 21 21 22 22 24 26 29 30 30 31 33 38 43 49 50 54 56 57 57 52 50 50 45 44 39 37 34 31 32
32 33 34 32 31 31 30 31 29 29 28 28 27 27 20 23 22 22 23 23 24 26 27 28 32 34 36 44 50 52 54 55 55 53 53 53 52 48 42 37 32 27 26 27
32 35 34 32 32 32 32 31 31 30 30 26 25 26 21 20 20 21 21 21 23 24 29 31 33 36 37 44 52 53 53 53 53 54 53 54 52 42 35 28 29 28 27 26
32 33 34 34 32 34 33 34 25 25 26 20 19 23 24 20 22 22 22 23 24 29 27 28 33 39 41 44 52 53 52 51 51 52 52 52 46 44 34 28 28 24 23 23
30 27 32 36 33 28 31 30 25 17 16 16 20 20 18 21 23 22 25 29 37 37 37 31 32 38 42 47 51 52 51 49 50 51 51 46 41 38 28 25 24 22 23 22
30 28 32 34 33 32 33 31 31 28 26 24 21 18 19 19 21 22 29 35 35 39 40 37 35 38 42 47 50 51 50 49 48 48 42 34 30 29 28 27 24 23 21 18
31 29 29 31 34 35 33 32 29 31 19 16 16 16 16 18 21 32 31 34 38 40 41 40 37 39 44 47 50 51 49 47 47 44 39 32 27 27 29 22 22 22 17 17
32 28 27 33 32 28 32 32 34 29 27 19 14 15 16 16 18 27 32 35 40 41 42 41 38 42 47 49 51 49 47 45 42 38 33 29 26 23 26 21 20 18 17 16
31 30 26 28 27 29 25 26 28 28 24 27 24 21 21 27 32 34 30 34 39 42 42 43 43 45 48 49 48 47 44 41 38 32 29 23 21 20 19 17 17 16 15 15
31 31 26 28 30 29 30 28 28 33 31 28 24 20 20 25 30 28 29 34 37 42 42 42 43 44 46 47 45 43 40 34 29 27 22 19 19 18 17 16 15 14 14 14
35 31 29 24 30 34 32 31 34 33 28 26 26 25 22 22 23 23 23 28 36 42 42 41 42 43 44 44 42 38 31 28 26 20 19 19 18 18 17 16 15 15 14 14
34 31 32 32 31 33 33 32 33 32 32 29 25 23 24 25 25 25 26 34 35 41 42 40 40 40 41 38 33 28 24 21 19 18 19 19 18 17 16 16 15 14 14 15
35 31 34 32 31 32 33 35 36 35 34 34 32 30 29 29 29 29 34 33 34 41 40 41 38 38 36 31 25 21 18 18 25 22 19 19 17 17 17 16 15 16 17 16
34 34 32 30 31 31 32 36 37 35 34 33 31 31 30 30 30 33 34 39 40 41 41 41 37 36 31 26 21 18 21 22 22 20 18 17 17 16 16 14 14 17 16 16
34 35 32 29 31 28 37 38 38 38 36 37 34 33 32 32 36 39 42 43 42 41 42 40 36 30 27 25 21 22 21 21 19 18 17 16 16 14 13 12 14 15 15 15
36 34 32 30 31 30 32 37 38 35 36 36 37 36 37 38 39 39 40 40 40 42 42 37 32 24 23 23 18 18 18 18 18 17 16 14 13 11 11 13 14 14 15 14
37 36 33 30 29 24 30 37 39 38 32 33 35 36 35 34 38 38 38 41 41 40 37 33 29 26 24 20 19 18 17 17 16 16 14 12 11 10 11 14 15 14 13 12
34 34 31 31 31 31 32 33 39 28 28 34 34 37 35 36 37 36 37 37 38 35 31 28 26 23 19 18 18 17 17 16 15 14 12 11 10 11 14 15 14 14 12 12
31 31 31 32 31 28 33 36 33 33 36 35 35 37 41 36 37 34 34 34 34 32 29 25 22 19 18 18 17 16 16 14 13 12 10 10 12 13 16 18 16 14 13 12
33 32 30 32 30 34 34 35 35 36 36 35 36 36 39 35 34 33 30 30 29 28 26 24 22 19 18 18 16 14 13 12 11 10 12 13 14 15 17 17 17 14 13 11
35 36 35 35 35 36 36 36 36 36 36 36 37 37 36 33 31 29 28 27 25 24 22 21 20 18 17 16 15 13 12 10 10 11 12 13 14 14 14 14 15 14 12 11
35 37 36 36 36 36 35 36 35 35 35 33 33 35 34 31 30 28 26 25 23 22 21 20 18 17 15 14 12 11 10 11 11 11 13 15 15 14 14 14 15 14 14 17
36 36 34 31 36 36 34 35 36 35 34 32 31 30 30 30 28 26 24 23 21 20 19 18 16 15 13 11 10 10 11 12 12 12 13 14 14 14 14 13 12 17 18 19

GFSCGP_sfc_dewp_033.txt.gz
Dewpoint
37 34 32 32 34 32 29 30 28 28 30 30 29 28 28 29 29 30 30 32 32 33 35 37 39 40 39 40 42 43 44 47 49 54 58 60 62 65 64 64 59 55 50 43
36 35 33 31 31 30 30 29 28 28 28 28 27 26 26 26 26 27 28 28 30 30 30 32 35 38 40 40 42 43 44 46 50 55 59 61 63 62 60 57 55 49 43 40
33 31 32 31 31 31 30 29 28 27 29 28 27 25 23 22 24 25 26 28 28 28 27 27 29 34 40 41 43 44 45 49 53 56 59 61 56 51 48 49 49 46 43 39
33 32 30 30 30 30 27 28 28 27 28 24 27 21 22 20 20 22 22 23 23 26 26 28 29 30 34 41 47 47 47 50 55 59 58 59 53 50 48 47 46 43 36 37
32 32 32 30 29 30 29 30 29 28 28 27 26 26 22 21 21 21 22 23 24 25 25 26 29 33 34 39 48 50 50 51 56 58 58 57 52 51 47 44 41 38 35 32
31 33 32 32 31 31 32 29 29 29 28 26 24 21 19 17 17 18 20 23 22 21 23 26 29 30 33 40 45 52 51 53 56 58 56 54 55 49 43 40 36 35 34 33
32 31 32 32 31 32 31 31 26 25 26 20 17 21 22 20 21 20 20 21 23 25 31 34 30 28 34 39 42 50 52 53 55 56 54 53 54 46 44 39 36 34 33 32
29 29 31 34 32 29 29 29 26 17 17 16 19 17 16 18 20 21 22 22 24 31 34 37 39 35 34 42 43 47 51 52 53 53 54 55 49 46 41 40 35 32 34 30
29 28 30 33 32 30 30 30 29 27 24 22 18 16 17 17 17 18 20 23 26 33 37 38 40 39 31 37 43 48 51 51 52 53 54 53 46 43 37 36 32 28 28 26
30 29 28 31 32 32 31 31 28 31 20 17 15 15 15 16 16 17 20 30 33 36 36 39 40 39 35 37 43 49 50 50 50 52 52 48 41 33 31 30 29 27 25 23
30 28 28 30 31 28 30 30 31 29 28 20 16 16 16 17 18 17 29 30 34 36 37 38 41 39 38 40 44 48 49 49 50 49 42 36 33 31 28 28 24 25 21 21
30 27 28 27 26 27 27 28 28 29 23 28 26 23 23 20 21 28 28 29 31 35 38 40 42 43 44 45 48 49 49 48 48 43 36 32 28 26 26 23 25 20 19 20
30 29 27 29 28 28 28 27 27 31 33 29 25 22 21 23 23 23 28 26 26 32 38 40 42 43 45 47 48 48 47 45 41 36 33 28 25 24 22 21 22 21 19 17
35 29 29 26 32 33 33 31 31 34 30 27 26 25 25 24 25 27 25 27 25 29 35 41 42 43 44 46 46 45 42 38 36 32 28 27 24 22 19 22 20 21 17 16
33 32 30 31 30 33 33 31 33 33 33 30 28 28 30 30 29 28 29 28 27 31 36 42 41 42 43 44 43 38 34 32 29 27 26 23 20 20 22 20 21 18 17 16
34 31 34 31 28 30 31 30 34 37 37 36 35 34 37 35 31 30 30 29 30 32 34 41 40 40 42 40 35 32 29 26 24 23 22 21 20 20 21 19 18 19 19 16
33 34 32 27 30 29 31 36 37 37 38 38 34 34 34 31 31 32 37 38 37 38 40 41 39 39 37 30 26 22 23 24 24 23 22 22 23 22 22 18 18 20 18 17
33 33 33 29 29 27 31 34 37 37 38 38 38 38 38 36 39 38 41 41 42 41 42 41 38 35 29 23 21 25 27 26 26 25 25 23 19 18 17 17 18 17 16 17
35 32 30 28 25 27 30 33 35 37 37 36 36 39 40 41 40 40 39 41 41 40 42 39 33 27 23 22 24 26 25 26 26 25 27 22 17 15 15 16 16 15 16 15
35 35 32 29 27 23 29 34 35 38 34 35 34 37 37 38 39 38 39 40 40 40 37 29 25 22 22 24 27 27 27 27 27 24 17 15 15 15 15 16 16 16 15 13
35 35 32 31 29 27 30 33 39 30 30 37 35 39 38 38 38 38 38 37 37 36 30 28 28 28 32 34 35 34 29 26 22 16 14 14 14 15 16 16 16 15 13 12
30 30 31 32 32 28 33 34 33 35 36 36 35 39 40 38 35 35 36 34 32 30 28 27 26 24 24 23 20 18 17 15 15 14 13 14 14 14 18 21 20 17 14 13
30 30 31 31 31 34 35 36 37 37 37 36 36 37 43 40 38 34 34 32 31 27 24 22 20 19 19 18 17 15 15 13 12 13 13 14 16 18 20 21 21 16 13 11
34 35 34 34 34 35 36 37 37 36 36 36 37 37 41 36 33 31 30 29 28 27 26 23 21 19 17 15 15 13 12 13 13 13 14 15 15 15 15 16 17 15 12 10
35 37 35 35 36 36 35 36 36 36 35 34 36 38 36 33 32 31 29 27 25 24 23 22 20 18 16 13 12 12 13 13 13 13 14 15 15 14 15 15 15 14 14 15
35 35 34 32 34 36 35 36 36 36 33 33 33 33 33 33 31 29 27 25 24 22 21 20 19 17 14 11 11 13 15 15 14 14 14 15 15 15 15 14 13 19 17 17

GFSCGP_sfc_dewp_036.txt.gz
Dewpoint
45 40 38 37 37 36 35 31 28 29 29 29 29 28 29 29 29 29 31 31 32 34 35 36 37 39 38 37 37 44 46 46 47 51 58 60 60 63 64 64 62 57 53 50
36 33 34 34 35 35 30 28 28 29 28 28 27 27 28 28 27 27 27 28 29 31 32 33 34 38 39 40 39 39 44 46 46 49 55 59 62 61 60 60 59 54 48 44
32 32 34 33 31 30 30 29 28 27 28 28 27 25 25 25 26 27 27 27 27 28 29 30 31 33 37 39 40 41 43 45 47 51 57 58 54 53 52 53 52 49 47 45
34 33 30 30 31 30 28 29 29 28 28 24 28 23 23 22 21 21 22 24 26 27 28 29 29 29 31 36 40 42 45 45 49 54 58 58 58 55 51 49 49 47 47 42
33 32 32 31 29 30 28 31 29 29 28 26 25 24 22 21 21 21 21 23 24 25 26 27 29 30 32 33 41 42 44 46 50 54 58 58 55 51 48 45 44 42 43 38
32 33 33 32 31 31 32 30 29 29 28 23 26 24 20 17 18 20 21 22 24 24 25 28 30 31 33 34 37 45 46 48 53 56 58 55 52 48 46 42 40 39 39 40
32 32 33 33 31 33 32 31 23 22 24 19 19 23 20 19 20 22 21 22 23 23 27 31 36 39 36 33 38 40 49 48 55 57 57 53 52 47 44 42 39 36 34 37
29 27 31 32 31 30 31 29 23 17 19 19 21 19 18 20 21 20 21 22 24 24 31 36 38 40 41 37 38 39 48 50 55 57 54 53 48 45 43 42 38 36 36 35
29 28 32 33 32 32 30 28 29 24 23 19 20 17 18 19 19 19 19 21 23 25 36 36 38 40 40 38 40 41 48 51 54 55 54 52 46 44 41 38 36 36 34 33
32 27 30 32 31 31 30 30 28 28 16 15 18 18 17 18 18 18 19 27 30 35 36 37 38 40 41 39 39 43 49 51 53 53 52 46 44 40 38 36 33 30 30 26
31 29 28 31 30 29 29 29 30 29 28 20 18 18 22 21 21 22 24 31 33 37 38 38 39 42 43 40 40 45 49 51 51 53 47 39 35 34 32 29 27 26 24 24
30 29 25 28 28 30 29 28 27 25 20 26 26 23 25 24 23 24 24 33 35 33 36 38 40 42 43 44 44 47 49 50 49 40 35 31 30 29 27 26 24 24 26 22
31 28 22 26 28 27 28 28 28 29 31 26 24 21 23 24 26 26 26 26 27 30 34 39 41 42 43 47 48 48 49 48 38 33 31 30 28 27 25 23 24 23 22 23
34 31 26 22 29 33 30 31 30 31 29 26 26 25 26 27 29 31 33 29 30 30 31 41 41 42 43 47 50 47 41 37 33 30 28 27 27 25 22 22 21 21 23 18
33 30 29 30 29 29 30 31 31 32 33 30 29 30 32 35 37 36 36 32 30 29 31 41 41 42 43 45 44 37 35 32 28 27 26 25 22 22 21 23 22 20 19 18
34 30 30 27 29 29 28 29 31 33 37 37 36 35 37 37 38 35 36 38 37 34 33 41 41 41 44 39 33 30 30 28 27 25 23 22 22 23 23 24 23 23 19 17
34 33 32 23 29 28 29 32 36 37 38 38 34 38 39 39 40 41 41 41 40 40 41 41 40 41 32 30 29 25 25 24 23 22 21 22 22 22 23 22 21 19 18 18
36 34 33 27 29 24 34 38 36 36 37 38 39 37 38 40 41 41 41 41 41 42 41 42 39 30 27 24 24 24 24 24 24 24 25 25 28 29 28 25 26 25 19 17
38 36 32 27 26 27 27 33 35 35 35 39 35 36 40 41 42 39 40 40 41 41 41 37 29 23 22 24 25 26 28 29 30 32 32 32 32 32 30 23 17 17 16 15
38 37 32 30 27 23 29 34 35 39 34 37 37 40 40 41 37 38 40 38 30 28 28 24 23 24 26 26 29 30 30 32 33 33 33 33 32 27 18 17 17 17 17 13
34 34 31 31 29 28 29 35 39 32 31 37 36 42 39 39 39 38 37 38 31 27 24 24 26 28 29 33 33 33 33 33 33 32 31 26 18 17 16 16 16 15 13 12
31 31 30 32 30 25 33 34 33 36 37 36 36 41 40 37 37 36 33 32 38 38 37 36 35 36 38 37 36 35 34 34 32 23 18 16 16 16 19 20 18 15 14 13
30 31 31 30 30 33 36 36 38 37 36 36 36 38 42 39 36 34 32 29 25 27 34 37 38 38 38 36 30 27 21 14 14 15 16 18 19 21 22 20 18 15 13 11
33 34 34 33 35 35 36 36 37 36 35 35 37 38 40 37 33 31 32 33 30 24 20 20 17 16 15 15 14 13 13 15 15 15 16 17 17 17 17 17 18 15 12 11
36 37 35 35 36 36 36 36 36 36 34 35 36 38 35 33 32 30 27 26 25 24 22 19 16 15 13 12 13 14 15 15 14 15 16 17 16 16 15 16 17 15 18 17
35 35 34 34 35 36 35 36 36 34 33 34 34 34 34 33 30 28 26 25 23 21 19 17 15 13 12 13 14 15 16 15 15 15 16 17 16 16 15 14 16 19 18 16

GFSCGP_sfc_dewp_039.txt.gz
Dewpoint
47 41 39 38 39 37 35 35 30 29 30 28 29 30 30 31 31 31 31 31 32 33 35 36 36 36 34 35 38 43 50 59 61 62 63 63 62 62 62 62 60 58 53 49
38 35 38 39 38 37 36 32 28 29 29 28 27 27 27 28 28 28 28 29 31 31 32 33 35 36 38 39 38 37 44 53 58 60 62 63 62 61 62 63 60 56 52 48
34 33 35 34 34 33 30 29 29 28 29 28 27 25 26 27 28 28 28 28 28 28 29 30 31 32 34 38 39 40 40 46 49 52 59 57 57 56 56 56 55 52 48 48
34 34 33 33 32 30 28 30 30 29 27 23 27 22 25 24 22 22 26 27 28 28 28 29 30 30 30 33 39 40 42 44 46 49 57 59 59 59 55 52 51 48 45 46
33 33 32 30 31 31 30 31 30 30 27 25 25 22 24 25 20 21 21 22 23 27 28 28 29 30 30 31 34 40 40 44 47 48 57 58 59 55 51 49 48 46 47 46
32 34 33 32 32 32 32 29 29 29 27 19 24 23 20 18 18 20 22 21 23 24 25 27 30 34 34 33 33 40 43 43 46 49 58 58 54 51 50 47 45 46 45 42
32 32 33 33 31 32 33 26 17 20 23 17 23 25 22 21 21 21 21 22 23 23 27 33 37 39 40 40 39 36 39 44 47 53 59 56 53 52 50 46 45 42 39 39
25 22 32 32 31 30 30 28 18 15 17 20 23 19 20 23 23 23 21 22 22 24 33 36 38 39 39 40 41 39 37 42 49 57 56 54 50 50 49 47 44 42 39 35
26 27 32 32 32 32 30 24 28 22 22 15 20 19 19 20 20 19 21 22 22 24 36 36 37 38 39 41 42 40 39 46 53 56 54 50 49 49 47 44 43 40 39 35
31 28 32 33 33 33 29 30 25 22 10 14 18 19 18 19 20 22 22 24 31 35 36 37 38 39 41 42 44 41 40 47 55 55 51 47 47 45 43 40 38 36 34 32
31 29 30 33 30 28 29 28 29 26 25 18 19 20 21 21 23 23 24 28 34 36 37 37 38 41 42 43 44 43 44 51 53 50 47 46 44 41 39 38 35 33 31 29
31 30 26 26 29 31 30 28 27 19 16 23 23 22 25 25 25 26 27 28 29 33 35 37 40 41 42 42 44 47 47 52 50 45 43 40 39 37 34 33 32 30 26 25
31 26 17 24 27 29 29 29 28 28 29 21 22 21 24 25 27 28 30 36 37 30 33 38 41 41 42 43 49 49 48 40 40 36 33 33 31 29 27 27 26 27 26 24
34 29 22 19 26 30 24 30 29 29 28 25 25 24 26 28 31 35 38 39 39 36 31 39 41 42 42 46 44 41 38 35 36 33 31 29 28 25 25 25 25 25 27 25
32 23 27 29 30 28 27 28 30 30 30 29 26 29 31 34 38 40 41 40 37 36 33 41 41 42 43 41 39 36 38 36 35 33 31 29 26 24 24 24 25 25 25 24
33 26 27 24 29 30 29 29 29 30 30 31 32 34 37 38 39 41 40 41 41 40 40 41 41 42 35 33 33 33 35 34 32 31 27 25 24 23 24 25 26 27 29 29
33 29 23 18 27 28 28 29 29 34 38 37 35 36 38 38 40 41 41 41 41 42 40 41 40 33 30 30 28 30 30 29 27 25 24 24 24 25 27 27 28 30 30 31
33 31 30 23 27 23 32 35 35 35 36 37 38 38 39 41 42 39 40 37 35 37 42 41 31 28 26 25 25 24 24 24 24 24 25 27 28 30 31 31 31 31 30 30
37 34 28 26 25 26 29 33 35 35 34 37 37 37 41 42 42 39 39 29 28 36 36 28 25 24 25 25 25 26 28 29 28 29 32 32 33 34 34 33 34 33 32 23
37 37 34 30 26 22 28 33 36 39 32 36 35 38 42 40 37 37 37 27 24 25 24 24 26 27 27 28 30 31 31 32 33 34 35 36 36 35 34 33 28 20 16 14
35 35 31 29 28 28 30 31 39 30 30 36 35 39 41 39 38 35 36 34 28 26 26 27 28 29 31 33 34 34 34 34 36 36 36 34 33 29 18 16 16 15 13 13
31 31 32 33 30 23 31 35 34 34 38 37 36 41 38 38 37 32 34 36 35 34 33 34 33 35 36 35 35 34 33 35 34 33 31 28 26 22 20 19 18 14 13 13
31 31 31 30 29 31 34 37 37 36 36 36 36 38 37 36 34 32 28 33 36 37 37 37 37 37 36 36 36 34 33 32 30 25 20 19 19 19 19 18 17 14 12 12
33 34 33 33 34 34 35 36 36 36 35 35 36 40 40 35 33 32 30 23 28 29 31 34 31 30 30 30 29 28 25 19 17 18 19 19 19 18 17 17 17 14 12 13
36 36 35 35 36 36 36 36 35 35 34 35 36 38 37 33 31 31 29 26 23 20 19 18 16 15 14 14 14 16 16 16 16 16 17 18 17 16 16 17 15 17 17 15
35 34 34 33 36 35 35 36 36 34 33 34 34 34 34 32 29 27 25 23 20 19 17 16 15 14 14 14 15 16 16 16 16 16 16 17 16 16 15 15 16 20 19 18

GFSCGP_sfc_dewp_042.txt.gz
Dewpoint
47 42 39 41 40 35 34 34 34 32 30 28 27 28 28 29 30 30 31 32 32 33 34 36 36 35 35 35 35 41 55 60 64 64 64 63 63 63 61 61 59 57 56 53
43 39 40 41 41 38 37 34 30 29 30 28 27 27 27 28 28 28 29 29 30 31 31 33 34 36 36 37 35 35 44 56 61 64 64 64 63 62 62 62 60 58 55 52
36 35 37 37 37 37 32 29 28 28 29 28 27 22 23 26 27 27 27 29 29 30 30 30 32 33 34 35 37 39 39 48 58 62 62 59 58 58 58 59 59 57 55 54
34 34 34 35 33 30 28 30 30 29 27 23 27 21 25 25 25 24 22 27 29 29 29 29 29 31 31 32 34 38 40 42 50 57 61 60 59 59 60 60 57 53 52 54
33 33 31 30 31 31 29 31 29 29 27 24 25 23 22 24 21 20 21 21 23 25 29 29 29 30 31 31 31 33 37 41 44 48 58 60 59 60 54 52 53 51 52 52
32 34 33 31 32 31 31 28 28 29 25 17 22 23 19 18 18 20 20 21 22 23 25 27 29 35 37 37 35 34 37 40 43 46 52 58 59 53 52 51 49 49 49 49
33 32 33 33 31 32 29 25 17 14 13 15 23 24 23 23 23 21 21 22 22 24 25 32 37 39 41 41 40 40 38 38 40 45 51 56 58 54 53 51 50 47 45 44
27 22 30 32 31 30 29 25 18 11 17 19 23 21 19 23 23 22 22 23 22 22 27 36 38 39 38 39 40 41 42 41 40 42 52 57 56 55 53 52 50 48 46 45
24 25 33 32 32 31 29 24 27 21 20 15 20 20 18 20 21 22 24 26 30 25 32 36 37 38 39 39 40 42 43 43 40 43 55 55 54 53 50 48 47 46 45 43
30 25 32 33 33 34 28 29 22 17 9 12 17 18 15 18 21 23 24 28 32 35 36 37 38 38 39 41 42 43 44 43 41 51 54 51 51 51 49 46 45 45 42 40
30 28 29 33 29 28 31 28 27 25 22 17 16 19 22 20 23 24 26 27 30 33 33 33 37 39 41 41 41 43 47 46 49 52 49 48 48 47 46 45 43 42 40 37
31 29 20 28 29 30 29 28 26 17 13 20 21 22 25 25 25 26 28 31 35 36 39 40 36 39 40 41 42 46 49 48 50 48 47 46 44 44 44 42 41 39 36 34
30 25 17 23 26 29 28 29 28 27 29 16 20 20 24 25 26 29 34 38 40 41 40 40 36 40 41 42 46 47 46 46 45 43 42 42 42 43 41 39 36 31 31 27
34 28 22 20 20 26 22 28 29 28 26 22 23 23 25 26 29 34 39 41 41 40 40 38 39 41 42 45 41 38 36 37 38 39 40 39 40 39 37 33 27 26 25 26
30 23 25 27 29 27 27 28 29 24 27 23 24 26 29 31 33 38 42 41 41 41 41 42 42 43 41 38 36 36 36 36 37 38 35 33 30 30 28 27 26 27 28 29
32 21 26 24 28 29 27 28 28 28 28 29 29 29 31 34 39 42 40 40 39 41 42 41 42 39 35 34 32 34 36 38 41 38 34 31 31 32 26 25 28 28 29 29
31 27 24 21 26 27 25 28 29 29 31 30 31 35 37 38 41 39 39 36 33 31 37 41 40 32 30 29 30 31 31 33 30 29 30 29 27 28 29 31 32 33 33 33
31 30 27 20 25 19 31 33 32 29 32 36 37 38 38 40 43 38 37 30 27 26 36 41 31 26 25 27 27 29 31 32 32 32 30 31 30 32 33 33 33 33 33 33
35 33 28 22 22 25 29 33 34 33 32 36 37 37 37 43 42 39 36 26 26 24 25 25 26 25 25 26 27 27 29 31 32 32 32 33 34 34 34 34 34 34 34 33
37 37 31 26 24 22 27 32 37 37 32 37 36 36 38 41 37 37 35 26 26 26 27 27 27 29 30 30 30 30 31 31 32 34 35 37 36 35 35 35 34 32 30 25
35 34 29 28 25 28 30 31 39 30 31 37 37 36 41 39 39 35 35 32 31 30 29 30 31 32 34 34 33 33 34 34 36 37 36 36 36 35 34 32 29 23 16 14
31 29 29 30 28 23 31 37 35 35 37 37 36 38 38 38 35 32 37 36 34 34 34 34 35 35 36 35 35 34 32 34 35 33 33 31 30 30 26 21 18 14 13 13
30 31 30 31 29 31 31 36 37 36 36 35 35 38 38 36 33 30 34 36 36 35 36 36 36 36 36 36 35 32 33 33 32 31 27 21 19 18 18 17 16 13 12 11
33 34 34 32 33 33 33 35 36 37 35 34 35 39 37 35 32 28 27 34 35 36 36 35 34 34 33 34 34 33 32 30 23 19 19 19 18 17 16 16 15 13 13 13
35 36 35 34 35 36 36 36 36 36 34 35 36 40 39 34 32 29 26 27 26 26 25 22 22 22 24 23 23 24 22 19 18 18 19 19 18 16 16 16 16 16 14 11
35 33 32 30 35 35 35 37 36 34 33 34 35 34 34 32 31 29 26 23 21 19 18 16 16 16 15 16 16 17 18 18 17 16 16 16 16 15 15 16 17 22 20 20

GFSCGP_sfc_dewp_045.txt.gz
Dewpoint
47 43 39 40 38 35 33 34 33 34 32 28 28 28 29 29 29 30 31 32 34 34 35 35 36 36 36 36 36 38 54 60 64 65 65 64 63 64 62 62 61 59 56 55
44 39 41 43 42 40 37 34 32 30 30 28 28 27 28 28 28 28 29 29 30 31 31 32 34 35 36 36 36 35 42 58 62 64 64 64 64 64 64 62 61 59 57 56
36 38 42 41 40 39 36 32 30 29 29 28 27 23 24 24 26 27 28 28 29 29 30 30 30 33 34 35 36 37 37 45 60 63 63 59 60 58 58 59 61 59 57 56
34 33 38 37 37 35 29 30 30 28 27 24 27 21 25 24 24 25 25 24 27 29 29 30 30 30 31 32 35 36 38 40 47 61 63 62 61 60 61 62 61 58 57 57
33 32 34 35 34 31 29 31 29 28 26 23 24 23 23 21 19 18 21 21 22 23 25 28 30 30 31 31 32 33 34 38 41 51 61 62 61 60 60 60 60 56 54 56
32 34 33 31 32 32 31 28 27 28 24 17 21 22 18 17 18 20 20 23 23 23 25 26 28 33 37 38 36 35 34 35 38 42 52 60 61 56 54 53 57 54 52 53
32 31 33 33 31 32 29 26 16 13 13 15 24 23 21 22 24 23 24 23 24 23 23 29 36 38 39 40 40 40 39 39 40 41 44 55 59 56 56 55 56 53 51 49
28 27 30 32 31 30 28 25 18 11 14 17 23 21 19 23 22 22 25 27 32 33 30 35 37 38 38 37 38 39 41 42 42 41 42 49 55 57 57 55 54 53 53 53
24 24 32 32 32 31 29 22 26 21 18 15 19 19 16 21 23 23 25 28 29 32 34 35 37 38 38 38 39 40 41 43 44 43 42 49 54 56 55 54 53 53 50 48
28 26 32 32 33 33 28 29 23 17 4 11 14 17 13 17 20 24 25 26 27 30 32 33 34 35 38 39 40 41 42 43 45 45 45 49 54 55 54 51 49 47 46 46
30 28 31 33 29 29 29 27 26 25 21 15 15 15 21 20 23 25 26 29 31 37 39 39 35 36 37 38 41 40 43 46 47 48 49 49 48 48 46 47 46 45 44 42
30 28 29 29 29 30 29 27 25 17 13 23 22 20 25 25 25 26 28 34 38 41 42 42 42 41 40 38 41 42 48 47 48 48 46 45 45 45 44 44 44 43 42 43
29 24 17 22 25 28 28 28 26 25 23 14 15 18 24 25 26 28 32 36 41 42 41 41 41 41 38 42 45 43 40 40 42 44 43 42 43 43 43 44 43 40 38 37
33 26 21 17 20 25 23 28 28 25 19 21 21 23 24 26 27 31 34 43 42 41 42 41 42 42 44 41 38 36 35 37 39 40 41 41 42 42 42 39 40 38 33 32
30 23 25 27 28 27 27 27 28 23 26 20 23 24 26 28 30 33 42 40 39 39 39 41 42 42 41 36 34 35 38 38 37 37 37 37 37 36 34 32 33 31 30 29
30 23 26 23 27 28 27 28 28 28 28 28 28 28 29 30 33 41 40 38 36 33 32 32 40 37 33 31 31 33 34 36 36 35 35 33 31 31 33 32 32 30 30 30
29 27 23 20 25 27 24 27 28 28 29 28 26 29 32 37 38 42 38 35 30 28 27 32 39 32 29 29 30 32 31 31 30 30 31 32 33 33 34 33 32 33 33 33
30 28 27 20 23 19 25 31 30 28 29 31 31 33 35 38 41 39 36 29 26 26 25 28 28 26 26 27 30 33 34 34 34 34 34 34 35 35 34 35 34 34 34 33
34 33 28 25 19 22 28 31 33 31 31 34 33 35 38 38 41 40 34 25 26 26 26 26 26 27 28 27 30 32 33 34 35 35 36 35 35 34 34 34 34 34 34 33
36 36 32 28 23 21 28 33 37 36 30 36 37 36 36 41 38 39 35 29 28 28 28 30 31 30 30 30 31 31 32 33 34 35 36 36 36 35 35 34 33 34 34 32
34 35 30 26 24 26 29 30 39 28 32 36 36 36 36 38 40 36 35 32 32 31 31 33 34 34 35 35 35 34 34 34 36 36 35 36 36 35 34 34 33 32 30 28
32 31 29 30 26 22 31 37 34 35 37 36 36 36 38 38 35 33 37 35 34 34 34 34 34 35 35 35 34 33 32 34 35 35 35 34 34 33 30 27 23 18 15 14
31 31 30 29 27 30 32 32 36 37 35 35 35 35 39 38 35 33 37 36 35 35 36 36 36 35 36 35 34 33 34 34 33 31 29 23 20 20 19 17 15 13 12 11
32 34 32 33 34 33 34 36 36 37 35 36 34 35 38 37 33 29 35 37 36 36 35 35 34 34 34 34 34 33 32 30 26 20 18 17 16 16 15 14 14 13 13 13
34 35 35 34 35 35 36 36 36 37 36 34 35 37 38 36 32 28 30 31 31 30 28 29 29 31 31 32 32 31 22 20 19 18 19 17 16 15 16 16 14 12 11 11
34 33 31 30 33 35 35 36 37 36 34 33 35 35 36 35 33 29 26 26 23 20 19 19 20 21 19 19 18 19 19 19 18 17 16 16 15 16 17 18 19 23 22 22

GFSCGP_sfc_dewp_048.txt.gz
Dewpoint
46 43 39 38 38 34 34 33 31 33 33 29 30 28 29 30 29 29 29 30 30 31 35 36 36 36 37 37 36 37 41 59 66 67 66 65 64 64 63 63 62 59 57 58
42 39 43 41 39 36 35 34 32 32 30 29 28 27 28 29 29 29 29 30 30 30 31 32 34 35 36 36 36 36 38 46 60 65 65 65 64 64 64 63 62 61 57 57
38 40 43 41 41 39 38 35 32 31 29 28 27 25 23 24 25 25 27 28 29 29 28 29 30 31 32 34 35 36 36 41 55 63 64 60 61 60 63 61 62 61 59 57
34 41 41 41 39 39 35 33 30 28 27 25 27 23 25 25 22 23 22 22 23 23 24 27 29 30 30 31 33 35 37 38 44 60 63 62 62 61 62 62 62 61 59 58
34 38 40 39 38 37 30 31 29 28 26 22 24 22 22 21 17 19 21 24 25 24 24 28 29 28 31 32 32 32 34 38 41 46 62 62 61 61 59 61 60 59 57 58
33 34 34 32 33 32 31 27 27 26 24 17 21 20 15 16 19 21 23 26 30 29 29 31 36 39 39 40 40 38 33 33 36 42 51 60 61 60 56 56 59 56 55 57
32 32 33 33 30 31 29 29 25 13 14 15 24 22 19 22 24 24 24 27 30 32 33 35 36 37 38 38 37 38 40 40 40 40 41 51 59 59 56 57 58 57 55 55
27 28 31 32 30 29 27 26 19 9 14 16 23 21 17 23 21 25 27 28 28 30 33 34 35 36 36 37 38 38 38 40 41 42 41 42 48 55 57 57 57 57 55 55
25 25 32 32 32 31 28 23 26 21 18 15 18 18 12 22 23 24 26 27 28 29 31 34 36 37 36 36 38 39 39 40 41 43 44 43 44 49 54 55 56 56 54 54
28 26 31 32 32 32 29 29 22 17 10 10 12 15 10 17 21 25 26 27 29 32 36 38 39 39 37 38 40 40 40 40 42 46 46 46 46 49 52 53 52 51 49 48
30 28 31 32 29 28 28 26 26 24 21 14 11 9 20 19 24 25 26 28 32 38 41 42 42 41 41 42 40 39 40 44 46 47 48 47 47 49 48 48 46 45 45 45
30 29 29 29 29 30 29 27 25 16 15 23 21 18 24 25 26 26 28 31 37 43 42 41 41 42 42 40 41 43 40 41 42 44 45 45 47 47 46 44 44 44 43 43
28 24 18 26 28 28 28 28 25 24 21 14 15 16 24 25 25 27 30 34 42 41 41 41 42 42 42 41 38 37 37 38 40 42 43 43 45 45 45 45 44 43 42 40
32 25 21 18 21 26 24 28 26 24 18 19 20 21 23 24 26 28 31 41 40 39 38 36 35 41 40 36 36 37 37 37 38 39 41 42 43 43 42 41 39 37 36 34
29 22 23 26 27 26 26 27 27 21 24 19 21 24 25 27 28 30 35 40 38 35 31 31 30 38 35 32 34 35 36 36 36 35 35 36 37 36 37 36 35 33 32 32
29 26 26 22 26 28 27 28 28 28 27 27 27 27 28 29 31 37 41 39 35 30 29 27 32 37 31 30 31 31 31 33 34 33 33 32 33 33 33 33 34 34 34 35
30 27 23 18 25 26 24 27 27 28 29 28 26 27 29 32 36 40 39 36 30 28 26 27 29 28 29 30 32 33 32 33 33 33 34 34 34 33 33 32 33 33 35 35
29 27 27 20 22 17 21 31 28 27 27 29 29 29 30 33 38 39 36 29 27 27 26 25 25 25 26 30 33 34 35 35 35 35 35 35 35 35 35 34 34 34 34 34
32 32 27 24 20 21 26 31 30 29 31 31 30 31 34 38 39 36 33 27 26 27 28 28 29 29 29 30 32 33 33 34 35 35 35 36 36 35 34 33 33 32 34 33
36 33 27 27 22 20 25 33 36 35 32 34 36 36 36 38 35 36 34 30 30 29 30 31 32 32 32 32 34 35 35 35 35 36 36 36 35 35 34 34 34 34 34 33
33 34 29 26 24 25 27 30 38 31 31 36 36 36 35 36 38 36 34 32 32 32 33 34 34 34 34 35 35 34 34 35 35 36 36 35 35 34 33 33 33 32 32 30
28 28 29 29 26 21 30 37 35 35 37 37 36 35 36 37 35 36 36 34 34 34 34 35 35 34 35 34 34 34 33 35 36 35 34 34 35 35 34 31 29 23 18 15
30 31 28 27 26 29 32 32 33 37 36 35 35 35 35 37 37 36 37 35 35 35 35 36 35 35 35 34 35 34 34 35 34 33 31 31 29 24 20 17 15 12 11 12
32 34 34 33 33 33 34 36 36 36 36 36 35 34 36 36 35 33 37 36 35 35 34 35 34 34 34 34 34 33 33 30 23 18 17 16 15 14 13 14 14 13 13 12
34 34 34 34 34 35 35 36 37 36 36 35 34 36 37 37 34 30 36 36 36 34 34 34 33 33 33 33 32 26 23 20 18 18 17 16 15 15 15 14 11 9 9 11
33 32 31 30 34 35 35 36 38 36 35 35 34 34 36 37 34 29 33 30 32 26 24 26 27 28 27 27 23 20 20 19 17 16 15 16 17 17 18 19 20 24 23 24

GFSCGP_sfc_dewp_051.txt.gz
Dewpoint
46 41 36 39 37 33 33 32 32 33 32 31 32 31 30 31 31 31 31 31 31 31 32 36 38 38 38 39 39 38 41 55 66 65 65 65 64 64 64 65 63 61 60 61
43 37 39 40 37 35 34 33 33 32 30 30 28 28 29 30 30 31 30 30 31 31 30 30 32 35 36 37 38 38 39 41 56 64 64 64 64 65 65 64 64 63 60 60
36 40 41 39 39 36 36 33 32 31 29 28 28 27 25 26 25 25 24 25 26 27 25 27 29 30 33 33 36 37 39 41 45 60 65 65 64 64 64 64 63 63 61 60
38 43 41 40 38 38 36 37 31 28 29 26 27 23 25 24 20 22 26 28 27 26 26 31 36 36 35 36 38 37 38 40 42 51 62 63 60 61 62 63 63 63 63 60
35 41 40 38 39 38 35 32 29 28 26 26 24 23 20 20 19 22 25 29 31 31 31 35 38 40 40 43 43 41 37 36 40 43 56 62 62 61 63 63 63 63 62 61
33 36 37 38 38 38 31 28 27 26 25 23 22 21 14 17 20 23 25 28 31 32 34 36 38 40 40 42 42 42 42 41 39 40 44 59 62 62 62 62 62 62 61 61
36 33 33 36 35 33 30 31 25 19 20 21 23 22 19 21 23 24 26 28 30 31 34 37 38 40 42 42 41 41 41 41 41 43 42 43 55 62 61 61 61 61 59 58
30 29 31 32 31 30 28 29 26 13 14 14 23 20 17 24 23 24 27 28 29 32 34 37 39 41 42 42 41 41 41 41 41 42 43 44 44 48 58 60 60 60 60 59
26 28 32 32 32 32 29 27 25 21 19 19 17 19 15 23 23 25 27 30 32 33 37 39 41 42 41 41 42 42 42 41 42 42 45 47 46 46 48 52 58 59 59 58
28 27 32 32 32 31 29 28 25 23 15 11 11 13 8 19 21 26 27 29 31 35 41 43 42 42 42 43 43 42 41 41 43 47 48 48 49 49 49 50 52 55 56 55
30 29 31 32 30 28 28 27 26 24 20 13 6 6 18 18 24 26 27 29 32 40 43 42 42 42 43 42 41 41 41 42 43 44 46 47 48 49 50 51 52 52 51 51
30 30 29 29 29 30 29 27 24 21 19 21 20 14 23 23 25 26 27 30 35 43 41 41 41 42 43 40 38 37 38 39 40 43 44 46 47 48 48 48 48 47 47 48
29 26 23 27 28 29 29 28 25 23 23 21 18 12 23 25 25 27 28 32 42 40 39 36 35 34 40 36 37 38 38 37 38 40 42 44 45 46 46 46 45 45 44 44
31 26 23 20 23 27 26 28 26 25 21 20 21 19 22 24 26 28 31 37 40 38 33 32 31 32 36 34 35 35 36 36 36 36 37 40 40 41 42 40 39 39 38 35
29 25 24 26 27 27 27 28 27 23 24 22 19 23 23 25 28 29 33 41 38 33 30 28 31 35 32 32 32 31 32 34 34 33 34 35 35 36 36 35 34 33 32 31
29 28 26 23 27 28 28 28 28 27 27 26 26 27 28 29 30 35 41 39 35 29 29 28 28 29 30 31 32 32 33 34 34 34 34 34 34 34 35 35 36 36 35 36
30 27 24 19 25 26 25 27 28 28 29 28 27 28 29 29 33 36 39 35 29 28 27 26 26 26 29 31 33 34 34 35 35 35 35 34 34 33 34 34 35 36 36 38
28 27 27 23 23 16 21 30 29 28 28 30 30 30 29 30 34 39 35 30 27 27 28 27 27 28 28 32 34 35 35 36 36 36 36 36 36 35 35 35 35 35 35 36
31 30 27 23 22 21 26 30 28 28 31 29 29 29 32 37 40 39 33 28 27 28 29 30 30 29 30 31 32 33 34 35 35 35 36 36 35 35 35 33 33 33 34 33
34 31 26 27 21 19 23 33 33 34 32 35 33 35 36 37 34 38 35 31 30 30 32 32 33 33 33 34 35 35 35 35 35 36 36 36 36 36 35 35 33 33 33 32
33 33 27 26 24 23 26 29 38 32 32 36 36 36 36 35 37 37 33 32 32 33 34 34 34 33 34 35 35 35 35 35 36 36 36 36 35 34 35 33 33 32 31 30
27 27 28 29 26 20 28 37 35 36 37 36 36 36 35 36 37 36 36 34 34 34 34 34 34 34 34 34 33 34 34 36 36 36 35 35 35 35 33 31 29 25 19 16
29 28 28 27 24 28 32 32 34 35 36 36 36 36 35 36 37 37 36 35 34 35 36 36 35 35 35 34 35 34 34 35 33 32 32 30 26 20 17 16 14 12 13 13
33 34 33 32 32 33 34 36 37 36 36 36 36 35 35 36 37 36 37 35 35 34 34 35 34 34 34 34 34 33 33 28 23 20 16 15 14 13 13 13 13 13 13 12
33 34 33 34 34 35 35 36 37 38 37 36 35 35 36 37 36 34 37 36 36 35 35 34 34 34 33 33 29 27 23 19 18 17 16 15 14 13 13 10 8 8 10 10
34 32 31 30 33 36 36 37 36 35 35 35 34 34 36 38 36 32 36 37 35 33 31 32 33 34 33 32 23 22 21 19 16 14 14 17 17 19 20 21 21 25 24 24

GFSCGP_sfc_dewp_054.txt.gz
Dewpoint
44 42 38 37 33 30 28 28 25 29 32 31 30 31 32 33 32 32 31 30 31 32 33 34 34 35 35 37 39 40 40 43 51 61 66 66 65 66 65 65 65 64 63 62
41 39 36 37 36 33 30 27 27 33 31 31 30 30 31 31 31 31 29 30 30 30 28 29 30 30 31 33 35 38 40 41 43 51 60 64 64 65 65 66 65 65 64 63
38 39 38 36 35 32 32 28 30 29 30 29 28 27 26 26 25 27 25 25 25 26 30 35 37 36 35 35 36 36 37 40 41 44 51 60 63 65 65 65 65 64 64 64
37 41 37 36 33 32 32 35 33 31 30 25 28 17 24 20 25 27 29 30 31 33 35 37 38 39 40 42 45 41 38 38 39 42 45 53 58 59 60 61 63 64 64 64
36 38 40 36 34 35 35 35 31 29 28 28 25 24 19 20 23 26 29 32 34 37 39 39 41 42 43 45 45 44 42 41 38 40 42 46 55 57 58 59 61 62 63 63
39 43 41 39 40 37 32 30 28 29 28 28 25 22 14 17 22 27 29 32 34 37 40 42 43 44 43 46 46 46 44 42 42 42 41 43 48 54 58 60 61 62 63 62
36 34 39 40 35 36 32 32 30 27 29 24 23 22 17 21 25 28 31 32 34 37 40 42 42 43 44 45 45 44 43 43 43 42 42 42 43 48 56 58 59 60 61 61
33 30 34 38 36 33 34 32 30 18 17 16 22 16 16 22 24 25 29 32 33 36 41 42 43 43 43 43 43 43 43 42 43 43 43 43 44 45 45 49 54 56 57 60
33 31 32 31 31 33 30 32 26 24 21 22 16 19 21 21 24 25 30 34 35 37 43 42 42 42 43 44 44 43 43 42 42 43 45 46 46 48 48 47 47 50 53 55
30 31 31 30 32 31 30 28 27 31 21 15 11 11 11 21 24 25 30 33 34 39 42 41 41 42 43 43 42 43 43 43 44 45 47 47 49 50 50 51 51 50 50 52
30 30 31 31 30 29 28 29 26 25 21 10 0 6 16 23 23 25 29 32 34 41 42 40 40 39 43 42 41 40 40 41 41 43 44 47 48 49 49 50 50 51 52 52
30 31 30 30 29 30 28 27 24 27 23 24 19 10 23 21 25 26 30 33 37 41 40 37 37 37 41 39 39 39 39 39 40 40 43 45 46 47 48 49 49 49 50 50
30 30 27 28 28 30 29 28 25 25 28 27 17 13 24 25 25 27 31 33 39 40 37 35 35 36 39 37 37 37 38 37 37 38 40 41 43 44 44 43 44 45 45 45
32 27 26 23 28 30 31 29 27 32 30 22 19 18 22 23 25 29 32 36 40 37 33 33 36 37 36 35 35 34 35 36 36 36 37 38 39 40 39 37 36 35 34 35
31 33 29 26 27 31 29 29 28 29 28 31 20 20 19 23 28 30 33 40 39 34 32 32 33 34 34 33 34 35 36 36 36 36 36 36 36 36 36 36 35 35 35 35
31 31 30 28 27 28 28 28 28 27 27 26 26 26 27 28 29 32 36 40 36 32 31 30 30 31 32 33 35 35 36 36 36 36 35 35 34 35 35 36 36 37 37 37
30 31 30 26 26 26 25 26 27 28 28 28 27 27 28 29 32 35 39 38 34 31 30 29 28 29 30 33 35 36 35 36 36 36 35 34 35 34 35 35 36 37 38 39
29 30 30 27 25 22 24 29 28 27 28 29 29 29 29 31 35 39 39 36 32 30 30 30 29 30 31 33 34 35 36 36 37 36 36 35 34 34 35 35 35 35 36 36
29 30 29 26 24 23 25 29 29 28 28 28 29 30 32 36 38 40 37 32 31 30 30 31 30 30 32 33 34 35 35 35 36 37 36 36 36 36 36 35 34 33 33 33
32 31 29 28 23 17 28 34 34 31 34 35 31 33 36 36 36 40 37 33 31 31 32 32 32 33 33 34 34 34 34 35 35 36 36 37 37 36 35 35 34 34 35 33
31 31 28 26 23 23 25 27 36 34 33 36 37 36 36 36 37 39 35 33 32 33 33 33 33 32 33 34 34 35 35 35 37 37 36 36 36 36 35 35 34 34 33 33
27 27 28 27 24 21 28 36 33 36 36 36 36 36 36 36 37 37 36 34 34 34 34 34 34 33 34 35 35 34 35 37 36 36 36 36 35 35 35 32 28 25 21 20
26 27 26 26 24 28 32 33 34 36 36 36 36 36 36 35 38 38 37 35 34 35 35 35 34 35 35 36 36 35 36 35 34 34 32 29 24 20 19 18 17 14 13 13
33 33 30 32 31 30 31 36 37 38 38 38 37 36 35 36 37 37 38 36 35 35 34 34 35 35 35 36 36 36 34 31 29 27 21 16 14 14 13 13 14 13 13 12
32 34 33 33 34 35 36 37 37 37 36 36 36 36 35 36 37 37 37 37 35 35 35 35 36 35 35 34 34 32 27 28 21 17 16 15 14 12 10 10 9 7 9 9
34 32 32 30 33 34 35 38 36 36 35 35 34 34 35 37 38 37 37 38 36 35 35 35 36 36 35 34 32 29 26 20 17 15 14 14 15 18 19 20 21 25 24 24

GFSCGP_sfc_dewp_057.txt.gz
Dewpoint
46 42 38 35 30 25 22 23 18 22 32 31 27 28 25 29 31 31 29 28 27 27 29 32 35 35 36 37 38 39 39 40 42 50 57 66 66 66 65 66 65 63 62 62
43 36 39 34 30 28 27 23 23 27 31 30 26 27 29 30 29 29 29 29 29 29 30 31 31 32 31 32 34 37 39 41 41 44 49 61 64 64 65 66 66 65 64 63
36 38 40 40 32 29 26 26 23 26 31 30 28 27 27 27 26 27 26 26 26 27 28 34 36 36 36 38 40 37 37 40 42 44 45 51 61 63 64 65 65 64 64 65
37 39 40 39 33 29 26 27 27 30 28 18 28 11 26 24 25 27 26 26 29 33 35 37 38 40 41 43 46 43 41 38 39 42 43 44 49 55 59 60 62 62 63 63
37 37 40 34 33 31 27 34 32 31 29 28 26 22 21 22 24 26 28 31 34 37 38 39 41 42 43 46 47 47 43 41 42 40 40 43 45 50 56 58 58 59 61 63
39 41 41 37 37 35 36 32 31 30 29 28 27 21 19 19 22 26 30 32 35 37 40 41 43 43 44 46 47 47 45 43 43 43 42 42 45 45 49 55 56 57 59 62
34 35 40 39 36 35 34 33 31 29 30 24 23 24 20 18 24 27 29 32 35 38 40 41 42 43 43 45 45 44 43 43 43 44 43 42 43 44 46 49 53 55 57 60
34 30 35 38 37 36 35 33 31 22 23 21 21 18 17 22 27 29 31 34 35 37 41 42 42 43 43 44 44 44 43 42 42 43 44 43 43 44 44 44 46 51 54 55
33 33 38 38 39 37 36 33 28 22 20 20 17 18 21 22 24 26 31 34 36 38 42 41 41 42 42 43 43 43 43 43 44 44 45 45 45 47 48 48 47 46 46 48
31 31 33 34 37 34 34 30 30 34 22 15 14 12 13 20 23 25 30 33 35 38 41 40 40 40 42 43 42 42 41 41 42 43 44 45 47 48 48 48 49 50 51 51
31 29 32 31 31 29 29 29 27 26 22 13 4 8 17 20 24 26 30 33 35 40 41 39 38 39 42 42 41 41 40 40 40 41 42 44 46 47 48 48 48 49 49 50
31 30 30 30 29 30 29 27 26 29 23 24 20 15 19 22 24 26 30 33 36 41 40 37 37 38 40 39 39 39 39 39 39 39 40 42 43 45 44 44 45 47 47 48
29 30 28 28 28 30 29 28 26 25 32 29 17 17 22 22 25 27 31 34 38 40 37 36 36 37 38 37 37 37 37 37 38 38 39 39 40 41 40 40 39 38 39 41
34 28 28 25 30 31 30 28 28 33 31 21 18 20 22 23 25 30 31 34 39 38 35 34 37 37 37 36 36 36 37 37 38 38 38 38 38 38 38 37 37 36 35 34
30 34 29 27 27 33 31 29 28 32 29 32 19 19 21 21 27 29 31 38 39 37 34 33 35 35 35 35 36 37 37 37 37 37 37 36 37 37 37 37 37 36 36 35
31 32 31 30 26 28 28 27 28 28 27 26 25 24 24 27 29 32 34 39 39 35 33 32 32 33 34 35 36 37 37 37 37 36 36 36 35 36 36 37 38 38 38 39
30 31 31 27 26 26 25 26 26 27 27 27 26 26 27 29 32 35 38 40 37 34 33 32 31 31 32 34 36 36 36 37 37 37 36 35 35 35 36 36 36 36 36 36
29 29 29 27 25 23 28 28 27 26 27 28 28 27 28 32 34 37 40 39 36 33 32 32 32 32 32 33 34 35 36 36 37 36 35 35 35 36 36 36 36 36 35 35
29 27 27 26 23 24 22 27 28 27 27 28 28 29 31 35 37 38 40 35 33 33 32 32 32 31 33 33 34 34 35 35 36 36 36 36 35 36 35 35 34 34 34 33
30 30 28 27 24 19 29 33 31 31 30 31 29 31 34 36 36 40 39 35 33 33 33 33 33 33 33 33 34 34 34 34 35 36 36 37 36 35 35 35 35 35 34 33
29 30 28 25 24 22 26 34 36 33 34 36 36 36 36 36 37 40 37 35 34 34 34 34 33 32 32 34 34 34 34 34 36 37 37 36 36 35 35 35 35 33 33 33
26 26 25 25 25 22 28 30 32 36 37 37 37 37 37 37 37 38 37 36 35 35 34 34 34 33 34 34 34 34 36 37 37 37 36 36 35 34 34 33 31 28 23 20
25 26 25 25 25 30 34 35 37 37 37 38 38 37 37 36 36 38 38 37 35 35 35 36 35 35 35 35 36 36 36 36 36 35 33 31 28 23 20 21 21 16 14 13
29 30 28 31 29 29 32 34 37 38 38 39 39 37 37 36 36 37 38 37 36 36 35 34 35 35 35 36 37 37 35 35 32 31 25 18 15 14 14 14 18 16 12 10
30 33 31 29 30 34 35 36 37 37 37 37 36 36 36 36 37 37 38 38 36 36 35 36 35 35 35 36 36 35 32 32 29 20 16 15 14 13 12 13 12 8 14 15
30 30 30 28 31 31 34 37 37 36 36 36 35 35 36 36 37 38 38 38 37 36 35 35 37 36 35 35 35 33 31 30 20 17 16 14 15 17 19 20 21 26 24 24

GFSCGP_sfc_dewp_060.txt.gz
Dewpoint
42 40 36 37 36 31 28 29 28 26 31 30 30 31 30 29 29 30 31 29 29 29 29 31 34 34 34 35 37 38 39 41 42 45 54 66 65 65 66 66 66 65 63 62
40 36 37 37 35 32 26 25 25 25 32 31 29 27 28 28 30 31 31 29 28 29 29 31 34 33 32 32 36 37 38 40 42 43 46 57 65 66 65 65 65 65 65 64
35 35 38 37 33 30 26 26 23 26 30 30 28 25 28 29 29 28 28 28 27 27 28 34 36 37 39 43 43 42 39 39 40 43 45 46 57 63 63 63 64 63 64 65
39 40 38 39 36 30 26 27 27 30 29 24 28 14 25 27 25 27 26 25 26 32 36 38 39 41 43 45 47 46 42 41 39 40 41 43 44 49 60 62 64 65 65 63
36 38 38 37 37 33 27 30 32 32 29 28 26 24 27 24 24 26 27 31 34 37 37 39 41 43 45 47 47 47 46 44 42 42 40 41 43 45 48 54 58 59 60 63
38 40 40 38 41 40 35 33 32 31 30 28 28 23 21 21 24 27 29 33 36 38 40 41 43 43 44 46 46 46 46 44 44 43 43 41 42 43 43 46 53 56 58 60
36 36 39 41 38 38 34 31 27 28 27 25 25 24 24 21 25 28 30 33 36 38 41 42 42 43 43 44 45 44 44 43 43 43 44 43 43 43 44 44 47 51 55 57
32 29 35 38 37 35 34 32 27 19 23 21 22 22 19 24 29 31 33 35 36 38 42 41 42 42 43 43 43 43 43 43 44 44 45 44 45 46 46 46 46 46 47 49
33 31 37 38 39 38 36 34 29 24 19 22 20 20 20 27 28 28 32 34 36 39 42 41 41 41 42 43 42 42 41 42 43 44 45 46 47 47 48 48 49 50 50 50
33 31 36 38 38 38 36 34 27 28 15 17 16 18 17 22 24 26 32 34 36 38 41 40 40 40 42 42 42 41 41 40 41 41 42 44 46 47 48 48 48 48 49 49
33 33 34 37 36 35 35 35 30 27 23 18 11 13 19 21 24 25 31 34 35 39 40 39 38 38 41 41 41 40 39 39 39 39 41 43 44 44 44 43 44 45 47 48
32 32 31 31 30 32 33 30 31 31 25 23 21 18 19 21 26 30 32 34 36 41 39 37 37 37 40 39 39 38 38 38 38 39 39 40 41 41 40 39 39 38 38 42
31 30 26 26 29 30 31 30 29 29 31 27 21 18 22 24 26 27 31 34 39 40 36 36 36 37 37 37 36 37 38 37 38 38 38 38 38 38 38 37 37 37 35 35
35 29 28 24 29 31 29 29 29 30 23 24 21 20 21 24 26 29 32 34 39 38 35 35 37 37 36 35 36 37 37 37 38 38 37 37 37 37 37 37 37 36 36 35
33 28 27 28 31 32 31 29 29 25 28 22 23 21 22 23 25 30 31 39 39 37 34 33 35 35 35 35 36 37 38 37 37 37 36 36 36 37 37 37 38 38 38 37
33 28 29 27 27 29 28 28 29 28 28 27 25 25 25 28 30 33 34 39 39 36 34 33 33 33 34 35 36 37 37 37 38 37 36 36 36 36 36 38 37 37 36 36
31 30 27 23 26 26 24 26 27 28 28 28 26 26 29 29 33 35 38 40 37 34 33 32 31 31 33 35 36 36 36 37 37 36 35 35 35 35 36 37 36 36 35 36
29 30 29 25 25 17 29 29 28 27 28 29 29 29 28 32 35 37 40 40 36 34 33 32 32 32 33 34 34 35 36 36 37 36 35 34 35 36 36 36 35 35 35 34
29 29 27 24 23 25 27 27 28 27 27 29 28 29 30 36 37 37 40 35 33 33 32 32 31 32 33 33 34 35 35 35 35 35 34 34 35 36 36 34 34 33 33 33
30 30 28 27 23 21 31 31 31 30 30 29 29 30 34 37 36 39 37 34 33 33 33 33 32 33 33 33 34 34 34 33 35 36 35 35 35 36 35 35 33 33 33 33
28 28 28 26 26 24 34 34 34 31 33 36 33 36 36 36 38 40 36 35 34 34 34 34 33 32 32 34 35 35 35 35 36 36 36 36 36 35 35 34 34 33 28 24
28 28 28 28 26 20 31 31 32 36 37 37 37 37 38 37 37 39 37 35 35 35 34 34 34 33 34 35 35 36 35 37 37 37 36 35 34 34 34 32 30 29 26 22
24 26 24 25 26 31 33 36 37 37 37 38 38 37 37 37 37 38 38 36 35 36 35 36 35 35 35 35 35 36 36 37 36 35 34 33 32 28 26 21 18 15 14 13
27 29 28 30 30 29 35 35 38 38 39 39 39 38 37 37 37 37 38 38 36 36 35 35 35 34 34 34 37 36 36 36 35 32 29 20 16 15 15 15 17 14 12 9
31 31 30 29 30 34 33 36 37 37 37 37 37 37 37 37 37 37 38 38 37 36 35 35 35 35 34 35 37 36 35 35 32 24 16 16 16 14 15 22 24 12 20 22
31 31 31 28 33 32 35 37 37 36 36 36 36 35 36 36 37 37 38 39 37 36 35 36 36 36 35 36 36 35 33 32 24 17 16 15 14 14 19 21 23 26 25 25

GFSCGP_sfc_dewp_063.txt.gz
Dewpoint
43 39 35 35 37 33 35 33 29 31 31 32 31 32 32 32 30 30 30 30 30 29 30 32 33 32 32 32 34 36 38 39 42 53 64 63 64 64 64 65 65 65 65 63
41 36 37 37 37 36 31 31 30 29 31 31 31 32 33 32 29 29 30 31 30 29 30 33 33 32 38 42 42 41 39 38 39 43 45 60 64 65 65 65 65 65 65 64
36 36 38 37 35 34 32 26 27 27 30 30 28 26 28 29 30 30 29 29 28 27 33 36 39 41 43 44 44 44 41 40 39 39 41 44 53 62 63 62 63 64 64 64
37 39 37 36 34 33 30 28 28 30 28 25 27 20 23 27 27 27 27 26 26 35 37 40 41 43 45 46 46 46 46 43 41 41 39 40 42 44 54 61 63 63 63 63
37 37 39 37 36 37 30 30 32 31 28 27 27 23 22 27 25 25 26 25 29 35 38 40 41 43 46 46 47 46 46 45 43 42 41 40 40 43 45 46 50 57 62 63
39 41 41 38 40 41 40 32 31 31 30 25 28 24 20 23 25 26 29 34 36 39 41 42 43 44 44 45 45 44 44 44 44 43 43 42 41 41 42 43 44 47 54 58
37 36 39 42 37 39 39 30 24 23 21 22 23 26 23 23 25 28 31 33 37 40 41 42 42 42 43 44 43 44 43 43 44 44 44 44 44 43 44 45 45 46 49 52
28 31 37 39 37 37 37 29 24 17 20 22 22 24 22 23 28 30 32 35 37 40 41 41 42 42 42 43 42 42 42 43 43 44 45 47 47 48 48 48 49 49 49 50
29 29 37 38 41 39 37 30 30 23 21 18 21 20 24 29 31 33 34 35 36 40 41 41 41 41 42 42 42 41 41 41 41 41 43 45 46 47 47 48 48 49 49 49
34 29 36 38 41 39 37 35 27 24 14 16 18 18 19 26 27 29 32 33 36 40 41 40 40 40 42 41 41 40 40 39 39 40 42 43 44 43 42 42 42 43 45 47
36 31 34 38 36 36 34 33 31 28 23 16 13 15 18 26 27 28 32 34 36 39 40 38 38 38 41 41 40 39 39 38 38 39 40 40 41 40 39 39 38 37 39 41
33 33 30 34 37 38 37 34 30 25 22 20 18 18 20 24 25 28 33 35 37 41 38 37 37 38 39 38 37 37 38 38 38 39 39 38 38 38 37 37 37 36 35 35
31 30 25 27 29 32 34 34 34 29 29 21 17 17 22 27 29 30 32 34 40 39 36 36 36 37 37 36 36 37 37 37 38 38 37 37 37 37 37 36 36 36 35 35
35 30 27 21 25 30 28 31 28 29 25 24 22 20 24 25 26 27 31 35 40 36 35 35 37 37 36 36 37 37 37 37 37 37 36 36 37 37 37 37 37 37 37 36
32 25 26 29 32 30 30 29 29 25 26 21 22 21 22 24 26 28 32 39 38 35 34 34 35 35 35 36 37 37 37 37 37 36 36 36 36 36 38 38 38 37 38 38
32 26 27 25 29 28 26 28 30 28 27 27 27 25 24 24 31 33 35 39 39 36 34 34 34 34 34 36 36 37 37 37 37 36 35 35 35 36 37 37 36 36 36 36
31 28 25 21 26 26 22 26 28 29 29 28 25 26 28 28 32 34 38 40 39 35 33 32 32 32 34 35 36 36 37 37 36 35 35 35 36 37 37 37 36 35 36 36
30 28 27 21 24 15 19 29 28 28 29 30 29 28 28 32 34 38 41 40 36 33 33 32 31 32 33 35 35 36 36 37 36 35 34 36 36 36 36 36 35 34 34 34
30 29 25 22 19 20 28 27 27 27 27 30 29 29 29 36 37 38 38 36 34 33 32 32 32 32 33 34 35 35 35 35 35 34 34 35 35 36 35 34 34 33 33 32
30 30 26 24 21 21 30 30 30 32 29 31 29 29 30 37 35 38 34 33 33 33 33 32 32 33 33 33 34 34 34 35 36 34 34 35 36 36 35 34 33 34 33 31
28 28 25 25 23 24 32 33 33 30 29 34 30 32 37 36 38 40 36 34 34 34 34 33 33 32 32 34 35 35 35 35 36 36 36 36 36 35 35 34 33 27 22 21
27 27 27 28 26 20 34 31 33 36 37 37 37 37 38 37 39 38 36 34 35 34 35 34 33 33 34 35 35 35 35 37 37 36 36 34 35 34 34 32 29 28 25 22
24 26 24 27 27 29 32 35 37 37 37 38 37 37 37 37 37 38 38 35 35 35 35 36 34 34 34 35 36 36 36 37 36 36 35 34 33 33 32 26 23 20 19 15
29 29 27 28 30 31 36 37 38 39 38 39 39 38 37 37 37 37 39 37 35 36 35 35 34 34 34 35 36 36 37 36 35 34 32 31 26 21 19 17 17 14 11 9
29 30 29 29 30 32 34 35 38 37 37 37 36 36 37 37 37 37 37 38 36 36 35 35 35 34 34 34 36 36 36 35 34 31 25 16 16 15 19 23 15 16 20 17
31 31 30 30 32 32 35 37 37 37 36 36 36 35 35 36 36 37 37 39 37 36 36 35 35 35 34 34 36 36 36 35 32 23 16 16 15 13 19 22 24 25 25 24

GFSCGP_sfc_dewp_066.txt.gz
Dewpoint
46 40 35 36 37 36 35 31 32 33 33 33 34 32 33 33 30 31 32 31 30 30 31 33 33 32 34 40 38 37 38 39 53 63 63 62 63 63 63 64 65 65 65 63
42 35 36 38 38 36 35 32 31 30 33 32 32 31 33 33 31 30 30 30 31 30 31 33 33 41 42 42 42 41 40 38 39 43 46 61 63 63 64 64 64 64 64 64
36 36 38 37 37 36 33 32 30 28 31 30 30 29 31 32 31 30 30 31 30 28 33 37 40 42 44 44 45 45 45 41 39 39 41 44 49 61 62 62 62 64 64 63
38 38 37 37 36 35 32 30 29 29 29 27 28 24 23 29 29 29 29 28 28 32 37 39 41 44 45 45 46 46 46 44 42 42 40 39 41 43 52 55 60 61 62 62
37 37 36 36 35 33 31 30 29 30 28 26 26 23 23 26 27 27 27 27 26 37 39 41 42 45 46 46 45 44 44 44 44 43 42 41 40 42 43 44 44 45 52 59
39 41 40 38 40 40 39 31 31 31 30 24 26 24 21 23 25 27 27 27 30 37 40 42 44 44 44 44 44 44 43 43 44 44 44 43 42 42 42 43 44 46 49 54
37 37 39 41 35 38 36 29 26 27 27 22 26 25 24 23 25 27 30 35 38 40 42 42 42 43 43 43 43 43 43 43 44 45 46 47 47 46 47 47 48 48 49 49
31 31 37 39 37 37 36 28 23 18 21 22 23 25 25 26 26 28 33 35 39 40 41 42 42 42 43 42 42 41 42 42 42 43 45 46 47 48 48 48 48 48 48 49
28 30 38 39 39 39 37 30 29 20 20 18 21 23 23 29 29 31 33 36 38 41 41 41 42 42 42 42 41 40 40 40 40 43 44 44 43 43 43 43 44 46 46 48
31 29 35 38 40 40 38 35 26 22 14 16 19 18 20 28 30 32 34 36 37 41 41 41 41 42 42 41 40 40 39 38 39 41 41 41 40 40 39 38 37 38 40 41
33 29 32 37 36 36 36 33 30 27 21 17 14 17 20 27 30 32 34 35 36 41 40 40 39 40 41 40 39 38 38 38 39 39 39 39 38 38 37 37 36 36 36 36
35 32 30 32 37 38 37 34 29 25 20 18 16 15 21 26 29 32 32 35 37 40 39 38 38 40 39 38 37 37 38 38 38 38 38 38 37 37 36 36 36 36 35 35
32 28 22 28 31 35 36 35 34 29 25 17 16 13 24 25 27 31 34 35 39 39 37 36 37 38 38 36 37 37 37 38 37 37 37 37 37 37 37 37 37 37 36 36
35 30 24 21 24 29 30 34 33 30 22 24 23 20 23 27 30 32 33 34 40 38 36 36 37 37 36 36 37 37 37 37 37 36 36 36 36 37 38 37 37 38 38 38
29 23 25 29 31 29 29 32 30 27 31 27 26 21 22 27 28 29 32 36 39 36 35 35 36 36 35 36 37 37 37 37 36 36 36 35 36 37 37 37 37 37 37 38
31 25 24 25 29 27 26 29 30 27 26 27 27 26 26 26 27 30 33 39 38 36 35 34 35 35 35 36 37 37 37 36 36 35 35 35 36 37 37 36 37 37 36 36
29 27 23 19 26 25 21 26 28 29 28 27 25 26 27 27 31 33 36 40 39 37 34 33 34 34 35 36 36 36 37 36 35 35 35 36 36 36 36 36 35 35 35 35
29 26 26 21 22 13 19 28 27 28 29 29 29 28 28 30 33 35 38 40 39 35 33 33 32 33 35 36 36 36 37 36 36 35 35 36 36 36 36 35 34 34 33 33
30 29 25 22 18 20 25 27 27 27 26 30 29 29 29 34 36 36 40 39 36 34 33 32 32 33 34 35 36 36 35 36 36 35 36 35 36 36 35 34 33 33 33 31
30 29 25 23 20 20 27 30 30 30 26 30 30 30 32 37 33 35 34 33 33 33 32 32 32 33 34 34 35 34 35 35 35 35 35 36 36 36 34 34 34 33 29 25
28 29 25 23 20 24 26 33 33 26 26 34 30 30 35 35 36 39 35 33 33 33 32 32 32 33 33 34 34 34 35 36 36 35 35 36 36 35 34 34 31 24 20 20
26 27 27 26 24 19 33 33 31 34 37 36 36 37 37 38 40 36 35 34 34 34 34 33 33 33 34 34 34 34 35 37 36 36 36 35 35 35 34 30 27 26 24 23
25 24 24 26 25 28 31 31 37 38 37 37 37 37 38 38 38 39 37 35 35 35 35 35 34 34 34 35 34 33 36 36 36 36 35 34 34 32 31 29 28 27 24 19
28 29 27 28 28 29 35 37 38 38 38 39 39 38 37 37 37 38 39 36 35 35 34 35 34 34 33 34 36 36 37 36 36 34 34 33 32 30 28 22 19 17 14 13
29 29 28 28 29 32 34 36 38 38 38 37 36 36 37 37 37 37 37 38 36 36 35 35 34 34 34 35 36 36 37 36 35 34 31 30 27 24 16 16 12 13 16 11
31 30 29 28 31 30 32 35 38 37 36 36 35 35 36 36 36 36 36 38 38 36 36 35 35 35 34 34 35 36 36 35 34 32 27 20 16 16 19 23 23 24 25 24

GFSCGP_sfc_dewp_069.txt.gz
Dewpoint
45 39 32 35 37 35 33 32 32 33 34 35 34 32 33 32 31 31 32 33 33 31 32 33 32 34 39 39 37 38 40 39 59 63 62 62 62 63 62 64 65 65 64 63
42 33 34 38 38 36 34 32 32 32 34 34 33 33 33 33 33 31 31 31 32 30 32 32 38 40 41 41 41 40 39 38 39 46 53 61 62 62 63 63 63 64 64 64
36 37 38 37 37 35 33 31 30 30 30 30 31 30 31 33 33 32 31 31 31 31 32 36 39 41 43 44 45 45 44 41 39 39 40 43 46 60 61 61 61 62 63 63
39 37 36 37 36 35 31 32 31 30 29 28 30 26 26 30 31 31 32 30 30 28 35 39 41 43 44 45 46 45 45 44 43 42 40 38 40 42 48 49 53 49 54 59
36 36 36 35 36 34 31 32 30 30 29 27 26 25 26 25 29 30 31 30 29 31 37 40 42 44 45 45 44 43 43 43 43 44 42 41 40 42 43 43 43 44 48 54
39 41 38 37 39 36 37 31 31 31 29 24 26 25 24 22 23 27 29 29 27 36 40 41 44 44 44 44 44 43 44 44 45 46 45 44 43 42 43 46 47 47 49 51
37 37 40 39 36 38 34 29 25 24 26 23 26 25 25 24 25 26 27 27 27 38 41 43 43 43 43 42 42 43 43 42 44 46 47 47 47 47 47 47 47 48 49 49
32 30 37 38 35 33 32 28 23 19 22 22 25 24 25 27 28 27 28 31 36 40 42 42 42 43 42 42 41 42 41 41 43 45 45 45 46 47 46 46 47 46 47 48
29 31 38 40 39 37 34 32 27 21 19 18 22 22 22 27 27 27 33 37 39 41 41 42 42 42 42 41 40 41 39 39 42 43 42 41 41 40 40 39 39 42 43 44
30 29 35 39 39 39 36 35 26 21 14 17 19 19 19 25 27 30 34 37 40 41 41 41 41 42 42 41 40 39 38 39 40 40 40 39 39 38 37 37 36 36 36 37
31 29 32 38 36 34 37 34 30 27 20 17 15 17 21 20 27 30 33 37 39 41 41 41 40 42 41 40 39 38 38 39 39 39 38 38 37 37 37 36 36 35 35 35
33 30 29 33 36 38 37 35 29 23 20 18 16 17 20 22 28 32 34 36 38 41 40 40 39 41 40 38 38 37 38 38 38 38 37 37 37 37 36 36 36 36 36 36
33 30 27 29 32 36 37 36 32 27 23 17 17 18 22 26 29 33 33 35 37 40 39 38 37 40 38 37 37 37 38 37 37 37 37 37 37 37 36 37 37 38 37 37
35 29 24 21 22 30 33 36 33 27 21 22 20 20 21 25 27 31 33 35 38 39 37 36 36 38 37 36 37 37 37 37 36 36 36 36 36 38 38 36 36 37 38 37
29 27 26 29 31 28 29 31 33 27 30 26 27 24 23 23 27 31 34 35 39 38 36 36 37 37 36 36 37 37 37 36 36 36 35 35 37 37 37 37 37 37 37 37
30 24 24 24 29 27 25 28 33 33 31 31 29 26 25 25 28 30 33 36 38 38 36 35 36 36 35 36 37 37 37 36 36 35 35 35 37 37 37 37 37 36 36 36
28 26 22 17 26 24 19 24 28 31 28 29 27 30 26 25 28 30 31 37 38 38 36 35 35 35 35 36 37 37 36 36 35 35 35 36 36 36 36 36 35 35 35 35
27 25 25 19 21 12 20 27 27 28 30 30 29 27 27 27 28 31 34 37 39 39 36 34 34 34 36 36 37 37 36 36 35 35 36 36 36 36 35 35 34 34 34 33
29 28 25 21 17 20 24 27 27 26 25 29 30 29 29 32 35 35 39 40 40 37 34 34 33 34 35 36 36 36 36 36 35 35 36 36 36 36 35 34 33 33 33 29
30 28 24 22 20 18 22 30 29 29 24 32 30 30 29 36 32 34 37 36 34 34 33 32 33 33 35 35 36 35 35 35 34 35 35 36 36 35 34 34 33 29 28 24
28 29 23 24 20 23 26 32 32 23 23 35 31 30 34 35 34 36 35 33 33 33 32 33 33 33 34 35 35 34 34 34 36 36 36 36 36 35 34 34 32 22 27 21
26 26 26 24 22 17 30 33 28 30 36 36 32 32 36 37 38 35 34 34 34 34 33 33 33 33 34 35 34 33 34 37 36 35 36 36 35 34 34 31 27 26 24 24
24 26 25 25 24 26 29 33 35 37 37 37 36 37 38 39 38 37 36 35 34 34 35 35 34 33 34 34 34 33 34 36 36 36 35 35 35 34 32 28 26 25 23 21
28 28 26 27 28 29 31 36 37 37 37 38 38 37 37 37 38 38 38 36 35 35 35 34 33 33 34 34 34 34 36 36 35 35 34 34 33 32 29 29 27 26 21 19
29 29 27 28 29 30 32 36 37 38 38 37 36 37 37 37 38 39 41 42 40 37 35 35 33 33 34 34 35 35 37 36 35 34 33 32 32 32 27 23 17 17 14 14
31 30 28 27 29 29 30 35 38 37 37 36 36 35 36 36 36 36 36 37 39 37 36 35 34 34 34 34 35 36 37 36 35 34 33 31 29 24 19 18 21 23 22 27

GFSCGP_sfc_dewp_072.txt.gz
Dewpoint
41 37 33 36 36 34 34 32 32 33 38 37 38 38 34 45 45 42 39 33 33 34 32 33 34 34 38 38 38 39 52 43 61 62 62 61 62 62 63 63 64 64 63 62
40 33 34 38 38 34 33 31 30 32 36 36 35 36 38 39 37 35 32 31 33 32 31 32 35 38 39 40 40 40 39 38 41 52 58 61 61 61 62 62 63 63 64 64
35 36 37 37 37 34 32 31 31 30 33 31 34 34 38 38 39 34 32 31 32 32 31 32 38 40 42 43 44 44 43 41 40 39 40 42 45 58 60 60 61 61 62 62
38 38 36 36 36 34 30 33 30 30 30 29 31 28 32 35 33 33 33 32 31 31 31 35 39 42 43 45 45 45 44 44 43 42 40 38 39 41 45 47 48 46 48 54
37 36 38 36 36 34 32 32 30 30 28 28 27 27 28 25 29 31 32 32 32 30 32 37 41 43 45 44 43 43 44 44 44 44 42 41 40 41 42 43 44 46 50 51
37 40 39 37 37 36 34 31 31 31 29 25 26 27 26 24 24 25 30 32 32 30 34 40 44 44 43 43 43 44 44 45 46 47 46 44 43 42 43 46 48 48 49 50
38 38 40 38 36 37 31 29 24 24 23 23 26 25 26 27 24 25 25 28 30 32 38 42 44 43 42 42 42 43 42 43 46 46 47 47 47 46 46 47 47 47 48 48
32 29 37 38 34 33 32 29 22 18 20 22 25 24 25 27 28 26 27 28 28 36 41 43 43 43 42 41 41 41 41 42 45 44 43 43 44 44 43 43 45 44 45 46
30 32 38 40 39 36 32 32 26 20 18 17 22 23 23 25 25 27 27 33 32 39 41 42 42 42 42 41 41 40 40 42 43 42 41 40 39 39 38 38 38 39 38 39
30 30 36 38 39 38 34 32 27 21 13 15 18 19 20 20 23 27 30 35 37 41 41 42 42 42 42 41 40 39 39 40 40 40 39 38 38 37 37 37 36 36 36 36
31 30 34 36 34 33 36 31 28 26 21 18 16 17 22 21 20 23 29 36 39 41 41 41 41 42 41 40 39 38 39 39 39 38 38 37 37 37 36 36 36 36 36 36
32 29 30 31 36 37 36 34 28 22 19 17 17 18 20 22 24 27 32 37 40 41 41 41 41 41 40 38 38 38 38 38 38 38 37 37 37 36 36 36 36 36 36 37
32 27 26 28 31 35 35 35 33 27 24 16 19 21 20 25 31 33 34 36 39 41 40 40 39 40 39 38 37 37 38 37 37 37 36 36 36 36 35 35 36 37 37 36
34 28 23 20 22 30 32 34 35 30 29 24 22 22 23 23 26 30 33 35 37 40 39 38 38 39 39 37 37 37 37 37 36 36 35 35 36 38 37 36 37 37 37 36
30 26 25 26 30 28 29 31 34 33 31 29 27 25 26 25 24 27 32 35 37 38 38 37 37 38 38 37 37 37 37 36 36 35 35 36 37 37 37 37 37 37 37 36
29 25 26 25 29 28 26 29 33 34 33 32 31 30 28 26 28 31 32 35 38 38 38 37 37 37 37 36 37 37 36 36 36 35 35 36 37 37 37 37 36 36 36 37
27 26 23 19 26 24 20 24 28 31 33 33 31 32 28 26 27 30 33 36 37 38 38 37 36 37 36 36 37 37 36 36 35 35 35 36 37 36 36 36 35 35 35 36
26 24 23 19 21 13 21 27 27 29 31 32 31 29 30 29 28 29 32 35 36 38 38 37 36 35 36 37 37 37 36 35 35 35 36 36 36 36 35 35 34 34 34 33
28 27 24 20 17 20 22 27 27 25 25 29 31 31 29 29 33 32 33 35 34 38 38 36 35 35 36 36 37 36 36 35 35 35 36 36 36 35 35 34 34 33 32 29
29 28 24 22 19 16 17 31 29 28 24 29 31 30 30 34 30 30 37 39 38 37 34 33 33 34 35 36 36 36 35 35 35 35 36 36 37 35 35 34 33 31 28 26
27 29 27 25 21 23 25 26 31 22 23 34 34 31 30 33 32 34 36 34 34 33 33 33 33 34 35 36 36 34 34 34 35 36 36 36 36 35 34 34 30 26 29 24
26 24 26 24 25 19 26 32 28 29 34 35 34 31 33 36 37 35 34 33 33 33 34 33 33 33 34 35 35 34 33 35 36 36 36 36 36 34 34 32 28 27 25 24
24 25 25 25 25 26 27 32 33 36 36 36 35 35 36 38 36 35 35 34 34 34 34 34 33 33 34 35 35 34 34 36 35 35 35 35 35 34 33 30 28 25 24 23
27 27 26 26 27 27 28 31 35 36 35 36 38 37 37 37 38 37 36 36 35 35 35 34 33 33 33 34 35 34 35 36 35 35 34 34 34 33 31 28 27 26 24 21
28 29 27 27 28 29 30 32 35 37 37 36 36 37 37 38 39 40 41 41 40 39 38 37 35 34 33 34 34 34 36 36 35 34 34 33 33 34 31 28 26 25 22 21
31 29 27 26 28 28 29 33 36 37 37 37 36 35 36 36 36 36 36 36 38 38 36 35 35 34 34 34 34 35 36 36 35 34 33 33 32 31 30 26 22 25 24 24

GFSCGP_sfc_dewp_075.txt.gz
Dewpoint
40 36 34 36 35 33 34 33 33 37 41 40 40 38 39 43 45 44 43 42 40 38 35 33 34 35 38 39 43 51 62 61 64 64 64 64 63 65 65 65 64 63 63 63
37 34 36 38 37 35 34 32 32 33 39 37 38 37 38 43 42 45 44 42 39 35 33 33 34 37 38 39 40 41 45 44 54 62 63 64 64 64 64 65 65 65 65 65
34 36 38 38 37 34 33 31 31 31 37 34 35 34 38 40 41 43 43 42 40 33 33 32 36 39 42 42 43 43 42 41 42 42 44 47 50 59 62 63 63 56 58 62
36 40 37 37 36 34 32 33 32 32 34 31 34 28 35 37 39 41 42 40 39 33 33 33 37 40 42 45 47 46 45 45 44 44 41 41 42 44 48 48 48 46 52 53
36 38 36 35 36 35 33 33 31 31 29 29 28 29 29 34 36 37 40 40 38 35 33 33 38 43 45 46 46 45 45 45 46 45 44 43 42 43 44 45 47 48 51 51
37 41 41 37 38 35 33 32 32 31 30 29 28 29 28 25 33 35 35 35 36 34 32 35 42 45 44 45 45 46 46 46 48 48 47 46 45 44 45 48 48 49 50 50
37 38 41 39 37 37 32 31 28 26 27 24 26 26 28 28 26 27 27 29 32 33 32 38 44 44 43 44 45 44 45 46 47 47 47 48 48 48 48 48 48 47 48 48
31 29 38 38 36 33 31 28 25 19 22 23 26 24 25 28 28 28 27 28 30 31 34 40 44 44 43 43 43 43 44 45 45 44 43 43 44 44 43 43 44 43 44 45
32 31 39 40 39 36 33 30 27 22 20 21 22 23 23 24 25 27 28 29 31 31 38 42 43 43 42 42 42 42 43 44 43 42 41 40 40 40 39 39 39 39 38 38
33 31 36 38 39 38 34 31 27 24 18 17 18 19 19 21 21 22 23 30 33 37 41 43 43 42 42 41 41 41 41 42 41 40 40 39 38 38 38 37 37 37 37 37
32 32 34 36 34 34 34 31 28 26 22 18 16 17 22 22 21 22 23 29 36 39 41 42 42 42 42 40 40 39 40 40 39 39 38 38 37 37 37 37 36 36 37 37
31 31 31 34 36 37 36 32 28 25 21 19 18 19 20 21 24 25 29 34 39 41 42 42 42 42 40 39 38 38 39 39 39 38 38 37 37 37 37 37 37 37 37 37
32 27 27 29 31 33 35 35 30 26 25 20 22 22 20 24 28 33 33 37 40 41 41 41 41 41 40 39 38 38 38 38 38 37 37 37 37 37 37 37 38 37 37 36
33 28 24 20 22 29 31 33 32 30 29 24 23 23 25 25 26 27 33 36 39 41 41 40 40 41 40 38 38 38 38 37 37 37 36 37 38 38 37 37 37 37 37 36
30 25 24 26 27 30 31 32 33 30 30 28 26 26 27 28 27 26 28 34 37 40 40 39 39 40 40 38 37 37 38 37 36 36 36 37 38 38 37 37 37 37 36 36
29 24 26 24 29 29 28 29 32 33 33 30 30 30 31 30 28 29 29 33 36 38 40 39 38 38 39 38 37 37 37 36 37 36 36 37 37 37 37 37 37 36 37 37
27 25 24 20 26 24 21 24 28 31 33 33 30 31 32 32 33 33 31 34 35 37 38 39 38 38 38 37 38 37 37 36 36 36 36 37 37 37 37 36 36 36 36 36
26 24 23 20 21 15 22 27 27 27 29 33 34 34 32 33 34 32 32 33 35 38 39 39 38 38 37 37 37 37 36 36 36 36 36 36 37 36 36 35 35 35 34 32
27 26 25 21 18 20 22 27 27 26 26 29 33 34 34 32 32 32 32 33 35 37 38 39 37 37 37 37 37 37 36 35 35 36 36 36 36 36 35 35 34 34 33 30
28 27 24 23 19 15 15 30 29 28 25 29 31 32 32 32 30 31 34 36 38 38 38 36 35 36 36 37 37 36 36 35 35 36 36 37 37 36 35 34 34 33 30 29
27 28 26 26 25 24 25 26 30 23 23 32 35 33 31 32 32 34 37 35 35 34 34 34 34 35 36 36 37 36 36 36 36 36 37 37 37 36 35 34 32 30 29 27
26 24 25 26 26 21 26 32 28 27 33 36 35 33 32 35 37 35 34 34 34 34 34 34 34 34 35 36 36 35 35 36 36 36 36 36 36 35 34 33 29 30 28 26
24 25 25 25 24 27 27 32 33 35 36 37 36 36 35 38 36 35 34 34 34 34 34 35 34 34 35 36 36 35 35 36 36 36 36 36 35 34 34 32 29 28 26 25
28 27 25 25 26 27 28 29 31 35 36 38 38 38 38 38 37 37 36 35 35 35 34 34 33 33 34 35 35 35 35 36 35 35 35 35 34 33 32 31 30 28 26 24
28 28 27 26 28 28 29 31 32 36 38 37 37 37 38 39 39 38 38 37 37 36 36 36 35 34 34 34 34 35 35 36 35 35 34 34 34 34 32 30 28 27 25 23
30 28 27 26 28 28 28 33 35 37 37 37 36 36 36 37 36 37 38 37 38 39 39 39 38 38 37 36 35 34 35 36 35 34 34 34 34 34 32 31 30 31 30 29

GFSCGP_sfc_dewp_078.txt.gz
Dewpoint
41 37 35 32 30 27 32 31 31 34 41 39 38 37 38 38 39 38 38 38 40 41 39 38 35 35 52 55 58 63 63 64 64 65 64 65 65 65 66 65 66 65 64 63
38 35 37 35 34 30 31 30 30 34 38 37 36 36 36 36 38 39 38 36 39 41 40 37 37 35 38 48 48 53 60 63 64 64 65 65 65 65 65 66 65 65 65 66
35 37 37 35 34 30 30 28 30 30 37 37 35 34 34 35 38 39 39 40 41 41 41 37 35 36 40 40 43 45 49 52 55 60 60 60 60 63 64 65 65 60 60 63
35 39 37 35 31 29 31 31 32 33 32 27 33 22 29 32 36 38 37 38 41 42 41 37 35 36 40 43 47 45 44 44 45 44 46 49 52 53 53 53 52 50 52 53
37 38 37 34 32 32 28 34 31 31 28 29 31 28 24 32 32 34 36 37 40 43 42 37 36 38 42 47 48 47 46 45 46 45 44 43 43 44 45 45 46 48 51 51
38 40 39 34 37 34 34 32 32 32 30 28 27 27 23 27 30 31 33 36 39 42 40 37 37 41 44 47 47 48 46 47 47 48 47 46 46 44 45 48 48 49 50 51
37 37 40 39 35 34 33 31 30 28 28 23 27 28 24 27 29 28 32 36 37 39 40 38 38 42 44 46 47 47 46 47 47 48 48 48 48 48 48 48 48 48 48 49
33 30 37 38 36 33 32 28 27 18 20 20 26 24 23 27 28 29 29 29 33 36 37 36 37 42 44 45 46 44 45 46 46 46 46 47 47 47 46 46 46 45 45 45
32 32 39 38 39 36 32 32 26 26 23 24 22 24 24 22 24 26 27 29 31 30 31 34 37 42 44 44 44 44 45 45 45 44 44 43 43 44 43 42 42 42 41 40
34 32 37 38 39 37 34 30 28 32 23 18 18 19 15 19 19 21 22 24 28 33 33 36 41 43 43 43 43 43 44 43 43 43 42 41 41 40 41 41 40 40 39 40
33 32 34 35 34 32 32 31 30 27 24 17 13 14 21 21 21 25 27 30 31 34 36 39 42 43 42 42 42 42 42 42 41 41 40 40 39 39 39 39 39 39 39 39
32 32 32 35 35 36 35 32 29 28 25 24 21 16 20 22 24 28 30 34 37 37 39 41 43 42 41 41 41 41 41 40 40 40 39 39 39 39 39 38 38 38 38 38
31 31 29 31 31 34 33 34 31 29 30 29 22 17 20 23 27 31 32 34 37 39 41 42 42 42 41 41 40 40 40 40 39 39 39 39 39 38 38 38 38 38 38 37
35 29 27 26 28 30 32 32 33 33 33 26 24 21 23 24 26 27 29 33 37 39 41 42 42 42 41 41 40 39 39 39 39 39 38 39 39 39 39 39 38 38 37 37
32 33 29 26 26 33 32 31 32 34 32 30 25 23 24 24 25 28 29 29 34 38 40 41 42 42 41 40 40 39 39 39 38 38 38 39 39 39 38 38 38 38 37 37
30 33 31 30 29 30 29 29 30 32 31 30 30 29 29 29 30 31 32 31 32 36 40 41 42 41 42 41 40 39 39 39 38 38 38 38 38 38 38 38 38 37 37 37
29 30 29 26 26 26 24 26 28 29 31 31 30 30 31 31 32 33 34 35 34 33 36 41 41 41 41 41 40 39 38 38 38 37 37 38 38 37 38 37 37 37 37 37
28 27 27 26 24 20 21 26 26 26 27 29 31 31 32 32 34 34 35 35 34 34 34 38 41 41 41 40 39 39 38 38 37 37 37 37 38 38 37 37 36 36 36 35
28 27 26 24 22 21 20 26 25 24 23 27 28 30 32 33 34 34 34 32 31 32 35 38 40 40 40 39 39 38 37 37 37 37 37 37 38 37 36 36 36 36 34 33
29 28 26 26 22 15 17 30 29 28 24 31 33 34 33 33 30 31 34 34 33 35 38 39 39 38 38 38 38 38 37 37 37 37 37 38 38 37 36 36 35 35 33 33
29 29 28 25 23 21 25 27 30 22 24 32 36 35 33 31 32 35 37 37 37 37 37 37 37 37 37 37 38 38 37 37 37 38 38 38 38 37 36 36 35 33 33 33
25 26 26 26 25 21 28 30 27 27 33 35 37 37 33 33 36 36 36 35 35 36 35 36 36 36 37 38 38 38 38 39 38 37 37 37 37 36 36 35 33 32 30 28
24 25 24 26 24 28 28 32 33 34 34 36 38 38 35 35 38 36 36 35 35 35 35 36 36 36 37 38 38 38 39 37 37 37 37 37 36 35 35 33 31 31 29 25
28 28 26 26 26 28 28 29 30 33 33 36 39 38 37 38 37 37 36 36 35 35 35 35 35 35 35 36 37 37 37 36 36 35 36 36 35 34 34 33 31 30 26 23
28 28 28 27 28 29 29 30 31 33 35 38 38 38 38 39 38 38 37 36 36 36 37 36 35 34 34 35 35 36 36 36 35 35 35 35 35 35 33 32 32 30 27 25
30 29 28 27 29 28 29 31 36 34 37 39 38 37 37 39 38 40 40 39 40 41 41 40 39 38 38 36 36 36 36 36 36 35 35 35 34 35 33 32 31 33 31 30

GFSCGP_sfc_dewp_081.txt.gz
Dewpoint
39 36 35 32 28 22 23 24 22 25 35 37 36 36 37 39 39 39 38 37 38 39 42 39 37 39 54 63 63 64 64 64 64 65 65 64 64 65 65 64 64 64 64 63
37 35 38 32 28 30 27 31 30 33 36 36 33 32 33 35 37 38 36 36 37 38 41 39 38 37 40 55 57 61 62 64 64 64 65 65 65 65 64 66 65 65 65 65
36 37 38 34 30 31 28 27 28 29 33 35 31 30 32 34 35 35 37 37 36 37 39 41 38 38 38 45 50 51 57 62 63 64 65 64 64 65 65 65 65 63 61 64
34 38 36 34 28 25 26 27 28 31 33 28 32 19 25 30 32 33 36 37 37 37 38 42 39 36 38 40 47 46 48 51 52 56 59 61 61 60 58 59 59 55 54 55
36 37 36 32 29 27 25 29 29 31 30 24 29 26 22 28 28 30 33 36 36 36 39 42 40 39 39 45 49 47 46 46 46 46 46 47 46 47 46 45 46 47 51 51
37 40 38 35 32 31 33 31 29 28 26 26 25 24 18 23 26 27 30 32 35 36 39 42 40 39 42 49 50 49 46 46 46 47 46 46 49 46 45 47 47 48 49 50
36 37 39 40 34 34 30 28 28 26 28 22 23 23 21 25 26 28 28 31 32 35 39 42 39 40 43 47 49 48 47 46 47 48 47 47 48 48 48 48 48 47 48 49
33 30 38 37 34 32 28 26 25 17 18 17 25 22 21 26 27 28 29 30 32 35 39 43 40 41 43 46 47 46 46 46 46 47 47 47 48 47 47 47 47 46 46 46
31 32 37 38 38 35 31 31 27 25 23 22 21 21 23 21 22 25 26 28 31 30 34 38 40 39 42 45 45 45 45 45 45 45 45 45 45 45 45 44 44 43 43 41
32 32 37 36 38 36 34 30 25 33 22 14 17 17 15 19 21 23 23 23 24 30 32 32 36 38 42 44 45 45 45 44 44 44 43 43 42 42 42 42 41 41 40 40
33 31 34 35 37 34 32 31 30 27 24 17 10 12 18 22 25 26 28 30 30 29 33 34 38 41 43 43 44 43 43 43 42 42 41 41 40 40 39 39 39 39 39 39
32 32 32 32 34 35 35 29 28 28 23 23 21 17 21 23 26 29 30 34 35 35 36 37 40 42 42 43 42 42 42 42 42 41 40 40 40 40 39 39 39 39 39 39
31 32 30 31 32 33 32 31 30 28 33 32 21 16 21 22 24 30 30 31 34 36 38 39 40 41 41 42 41 41 41 41 41 40 40 40 40 39 39 39 39 38 38 38
35 30 29 27 29 31 30 29 30 32 34 25 24 21 20 22 26 28 28 29 30 36 39 40 41 41 41 41 41 40 40 40 40 40 39 40 40 39 39 39 39 39 38 38
33 33 30 27 26 33 32 30 29 33 32 30 24 22 22 23 23 24 27 29 30 34 38 40 41 41 41 41 41 40 40 40 40 39 39 40 40 40 39 39 39 38 38 37
32 34 32 30 28 29 29 28 28 29 30 30 29 27 27 28 28 28 28 30 30 31 36 39 41 41 41 41 41 41 40 40 40 39 39 39 39 39 39 39 38 38 38 38
30 31 29 26 25 25 23 25 27 28 28 29 28 29 29 28 29 31 31 33 33 34 32 38 40 41 42 42 42 40 40 40 39 39 39 39 39 38 39 38 38 38 38 38
29 29 28 27 24 21 22 25 24 24 26 28 27 28 29 30 31 31 33 33 34 35 35 35 37 41 42 42 42 41 40 39 39 39 38 38 38 38 38 38 37 37 37 37
29 27 25 24 21 20 19 22 24 23 21 24 25 27 31 33 33 33 33 34 34 33 32 33 33 39 42 42 41 40 39 39 39 39 38 38 38 38 37 37 37 38 36 35
29 29 26 25 21 17 21 29 29 28 22 32 32 33 33 33 29 30 35 36 35 33 35 37 38 41 41 41 40 39 38 38 38 38 38 38 39 38 37 37 37 36 35 34
28 27 27 25 24 21 22 29 29 22 25 31 33 35 35 32 32 35 37 36 37 37 38 39 40 39 40 39 39 39 38 39 39 39 38 38 38 38 37 37 36 35 34 34
23 24 24 24 23 21 29 28 24 28 32 32 33 35 37 34 33 37 36 36 37 37 37 38 38 38 38 39 39 40 40 41 39 39 38 38 38 37 37 36 34 33 31 31
23 23 22 23 23 28 28 28 30 32 33 33 35 37 38 34 36 38 37 36 36 36 37 38 38 38 39 39 39 39 41 39 38 38 38 37 37 36 36 34 33 32 30 30
27 28 26 26 25 26 27 28 28 29 31 33 33 37 38 36 38 38 37 36 36 36 35 36 36 36 37 38 38 38 39 38 37 37 37 36 35 35 35 34 32 32 31 30
29 29 28 27 28 29 29 30 29 30 32 33 36 38 38 39 38 38 37 37 37 37 37 36 36 35 35 36 36 36 37 37 37 36 36 36 35 35 34 33 32 31 32 30
31 29 28 27 28 29 29 31 35 35 34 34 37 38 38 39 39 39 40 41 42 42 42 40 40 38 37 35 36 36 36 37 37 36 36 36 35 35 34 33 32 35 34 32

GFSCGP_sfc_dewp_084.txt.gz
Dewpoint
39 35 33 37 34 31 32 28 30 32 39 40 39 39 39 42 42 41 40 40 39 40 44 41 41 41 56 62 64 64 64 64 64 64 64 65 65 65 65 65 63 64 63 64
37 34 37 38 33 28 28 28 30 37 39 38 37 35 37 37 40 40 40 40 40 38 39 39 40 40 41 60 63 64 64 64 65 65 65 65 65 65 66 66 65 65 66 66
35 37 38 37 35 30 25 24 34 35 36 35 32 31 31 32 34 37 38 38 39 38 39 39 38 38 38 46 56 58 62 64 64 65 65 64 64 65 64 65 65 58 60 62
36 38 38 38 34 32 30 29 30 31 32 29 32 22 27 29 33 34 35 35 37 37 37 40 39 39 39 41 47 46 51 56 56 59 62 61 61 62 56 57 59 54 54 54
35 36 36 33 32 32 31 33 32 33 32 30 29 27 22 28 30 32 33 34 37 38 38 40 39 38 40 48 49 46 46 48 48 48 51 55 48 47 47 46 48 49 51 51
38 39 38 38 36 34 35 33 30 28 28 24 26 26 21 25 26 28 31 33 35 37 37 39 40 39 46 49 49 48 46 46 46 46 46 45 45 44 45 47 47 49 51 51
35 37 38 39 36 35 33 29 26 24 21 22 23 24 25 25 27 27 28 29 32 35 36 39 40 40 45 48 50 48 46 46 47 47 47 48 48 47 47 48 48 48 49 49
31 28 36 39 37 33 31 28 26 16 19 20 24 22 21 25 27 28 29 29 31 31 36 39 40 42 45 48 48 48 47 47 47 48 48 48 48 48 47 47 47 45 45 45
31 31 38 39 40 37 31 29 28 27 23 23 24 23 23 24 23 27 27 28 30 30 32 40 41 42 45 47 47 46 46 46 47 46 46 45 46 45 45 44 44 43 42 40
32 29 36 39 40 38 35 32 26 30 18 13 19 18 18 20 21 22 22 25 27 29 31 34 36 41 44 45 46 45 46 45 45 44 44 43 42 42 42 42 41 40 40 40
33 31 34 37 35 33 33 31 30 28 25 20 15 16 21 23 26 27 30 31 31 28 32 33 35 40 44 45 45 45 45 44 43 42 42 41 41 40 40 39 39 39 39 39
33 33 29 32 36 36 35 35 29 26 23 23 22 20 24 26 28 30 32 34 35 35 35 36 39 42 43 44 44 44 43 43 42 41 41 41 40 40 39 39 39 39 39 39
32 33 30 29 31 33 33 33 33 31 31 24 20 18 23 23 23 30 30 30 35 36 37 38 40 41 42 42 42 42 42 42 41 40 40 40 40 40 39 39 39 38 38 38
37 31 28 25 27 32 29 30 30 31 27 27 26 25 21 22 24 28 30 29 31 36 38 39 40 41 41 42 41 41 41 41 40 40 40 40 40 39 39 39 39 39 38 38
33 30 27 29 26 33 32 30 30 29 30 26 27 25 24 23 24 26 28 29 30 31 38 39 41 41 41 41 41 41 41 40 40 40 40 40 40 40 40 39 39 38 38 37
32 30 31 27 28 28 29 29 28 29 29 31 31 30 31 31 29 30 30 31 30 31 32 39 41 41 41 41 40 40 40 40 40 40 40 40 40 40 39 39 38 38 37 37
31 31 27 23 25 24 23 26 28 28 28 29 28 30 31 30 30 31 31 33 32 33 34 35 40 41 41 41 41 40 40 40 40 39 39 40 39 39 39 39 38 38 37 38
30 29 29 24 24 15 24 26 25 25 25 28 30 30 30 29 32 33 34 33 33 34 35 35 39 41 42 42 42 41 40 40 39 39 39 39 39 39 39 38 38 37 37 38
29 28 26 23 21 22 22 24 25 23 23 23 24 27 31 33 33 33 35 35 36 35 34 34 35 38 42 42 42 41 40 39 39 39 39 39 39 38 38 38 37 36 37 36
30 29 27 25 22 18 26 29 29 29 22 32 33 32 33 33 30 32 36 36 37 37 36 36 38 38 42 42 41 40 39 39 39 39 39 39 39 38 38 37 37 35 35 34
27 28 25 25 26 26 27 29 30 21 25 31 33 34 35 34 33 33 37 37 37 36 37 39 39 40 40 40 40 39 39 38 39 40 39 39 39 38 38 38 37 34 34 33
25 25 25 26 23 22 28 28 24 29 32 32 33 34 36 37 34 35 37 36 37 37 38 39 39 39 39 40 40 39 39 40 40 39 39 38 38 38 38 37 35 34 32 32
23 24 25 24 25 29 29 29 29 30 32 33 33 35 38 38 35 38 37 36 36 36 38 39 39 39 39 39 40 39 39 39 39 38 38 38 37 37 37 34 33 32 31 31
26 27 27 26 26 27 28 29 29 29 29 31 33 33 37 38 37 38 37 36 36 36 36 36 37 38 38 38 39 40 40 38 38 37 37 37 36 36 35 34 33 32 31 30
32 30 28 28 29 33 32 32 34 35 35 33 34 35 38 39 39 38 37 37 37 38 37 37 36 36 36 36 37 38 38 37 37 37 37 37 36 36 35 34 33 32 32 32
31 30 32 33 33 33 34 33 34 34 36 37 35 36 38 39 39 39 38 39 41 41 42 40 39 37 36 35 35 36 37 37 37 37 37 37 36 36 35 33 33 35 35 35

GFSCGP_sfc_dewp_087.txt.gz
Dewpoint
37 35 32 34 37 36 33 33 32 35 42 42 41 40 41 42 42 40 40 40 40 43 44 39 42 50 58 63 64 65 65 65 65 65 65 65 64 64 64 65 64 64 64 64
36 33 36 37 35 35 33 32 32 36 39 37 39 38 39 40 40 40 39 40 40 40 41 40 40 39 47 61 64 64 65 64 65 65 65 64 64 65 66 66 65 66 66 66
32 37 39 38 35 32 33 31 35 33 40 41 38 36 36 37 40 40 40 40 40 40 39 38 39 39 39 54 61 63 64 64 64 65 65 64 64 64 64 64 61 59 60 60
35 38 38 36 33 33 29 34 37 37 35 32 36 28 31 34 34 38 39 38 39 39 40 39 37 38 37 44 53 54 61 64 63 65 63 63 62 62 60 64 59 58 55 54
36 37 37 37 35 36 33 36 37 39 33 33 30 27 26 30 30 32 34 36 36 37 38 39 38 39 38 45 47 48 51 55 54 57 62 61 55 53 53 53 53 51 51 51
37 41 39 38 39 38 40 35 34 34 30 23 29 26 24 27 29 31 34 34 35 37 38 38 39 39 42 47 48 46 46 46 52 49 50 50 45 45 45 46 47 50 51 50
33 35 37 40 34 38 39 29 27 25 21 21 24 26 26 26 27 28 30 33 34 36 37 38 39 40 47 47 48 48 49 50 51 47 47 46 44 44 45 47 48 49 50 49
25 21 36 38 38 34 35 28 23 18 19 20 24 21 22 25 28 29 29 29 30 31 35 38 40 40 46 48 48 47 47 48 49 47 48 48 48 49 48 48 47 46 46 45
27 30 38 39 40 37 31 26 27 25 23 20 23 24 22 26 27 27 27 30 30 30 32 38 40 41 46 47 47 47 47 47 48 48 47 46 46 45 45 44 44 43 42 40
31 31 35 39 39 37 34 33 23 24 16 15 21 21 18 19 21 22 24 26 27 28 32 36 40 42 46 47 47 46 47 47 46 46 45 44 44 43 43 42 41 41 40 40
33 30 33 36 34 33 33 31 30 27 25 20 15 16 21 23 26 29 31 32 32 31 32 33 37 43 45 46 46 46 46 45 44 43 42 42 41 41 40 40 40 40 39 40
32 31 29 30 35 36 35 34 32 24 22 22 21 18 24 27 29 31 33 34 37 35 35 35 37 43 44 44 45 45 45 44 43 42 41 40 40 40 39 39 39 39 39 39
32 29 22 27 29 33 32 33 34 31 28 23 20 18 22 27 29 31 32 33 35 36 36 38 40 42 43 44 44 44 44 45 42 41 41 41 41 40 39 39 39 39 38 38
36 30 24 19 24 30 29 31 32 30 24 26 25 25 23 22 23 25 30 29 33 36 37 38 40 41 42 43 43 42 42 42 41 41 40 40 40 39 39 39 39 38 38 38
33 27 24 28 28 31 31 30 30 27 29 25 26 27 27 27 24 26 27 30 29 35 38 39 40 41 41 42 41 41 41 41 40 40 40 40 40 39 39 39 39 38 38 37
32 27 28 24 28 27 28 29 29 30 30 30 30 29 30 31 32 31 30 30 30 30 36 39 40 41 41 41 41 41 40 40 40 40 40 40 40 40 39 39 38 38 37 37
31 29 25 21 25 24 21 24 28 28 29 29 28 30 32 31 32 31 31 32 32 32 33 34 39 41 41 41 41 40 40 40 39 39 40 40 40 39 39 38 38 37 36 37
30 30 29 22 22 14 22 26 25 28 28 29 30 30 31 31 32 33 35 34 34 34 34 35 36 41 42 42 41 41 40 40 40 39 39 40 39 39 38 38 37 37 36 35
29 28 26 22 20 21 23 25 26 24 24 28 24 32 33 34 33 32 36 35 35 36 37 36 35 37 42 42 41 40 40 39 39 39 39 39 39 38 38 36 36 37 35 35
30 29 26 24 21 19 23 28 29 28 20 31 32 33 34 33 31 31 35 37 37 37 37 38 39 39 39 42 41 40 40 39 39 39 39 39 39 38 37 36 37 37 34 32
27 27 23 24 21 25 28 29 29 18 18 31 33 34 35 34 34 33 36 37 37 37 37 38 39 40 41 42 41 40 39 39 39 40 39 39 39 38 37 36 37 36 34 34
25 23 24 24 21 19 29 26 22 24 31 32 33 34 35 37 38 35 37 36 36 36 38 39 38 39 39 40 40 39 39 39 40 39 39 38 38 38 38 37 36 35 34 33
21 23 23 25 25 28 29 27 29 30 29 32 33 34 35 37 38 36 37 37 36 37 37 39 38 38 39 40 40 39 39 39 39 38 38 37 37 37 37 36 35 33 33 32
30 30 26 26 26 32 33 32 33 34 32 32 32 32 33 35 38 37 37 36 35 36 36 37 37 37 37 38 40 40 39 39 38 38 37 37 36 36 36 35 34 33 32 31
31 31 29 29 31 33 36 35 34 35 36 36 36 36 36 37 39 39 37 37 37 36 36 36 37 37 37 37 38 39 39 38 37 37 37 37 36 36 35 35 34 33 33 32
31 32 31 32 34 34 33 34 35 36 37 38 37 37 38 39 39 39 38 39 39 39 39 39 37 36 35 35 36 37 38 37 37 37 37 37 36 36 35 34 34 37 36 36

GFSCGP_sfc_dewp_090.txt.gz
Dewpoint
38 34 32 34 38 36 33 32 33 38 42 39 40 39 40 45 46 44 40 39 42 43 44 45 56 60 62 64 64 65 65 65 65 65 66 64 65 64 64 64 64 63 63 63
36 32 35 37 37 35 32 32 33 38 39 39 40 39 41 46 46 45 40 40 40 41 42 41 42 53 59 62 64 64 65 65 65 65 65 64 64 64 65 66 65 66 66 65
34 36 37 37 37 35 34 32 32 36 40 40 37 36 36 41 43 42 40 40 40 40 41 41 39 40 46 61 63 64 65 64 65 65 65 63 64 64 64 62 62 63 62 62
37 39 36 37 34 32 31 34 33 37 37 34 39 29 33 33 35 38 39 40 40 40 40 40 39 39 39 50 61 63 63 64 64 64 64 62 62 61 62 63 60 60 58 57
34 38 37 36 36 35 33 37 35 37 35 35 36 32 28 29 33 34 37 40 39 40 40 40 39 39 39 41 55 58 61 62 62 63 63 63 61 61 58 59 57 56 53 52
37 40 40 38 39 38 39 37 37 37 35 29 30 30 24 27 32 33 33 36 38 38 38 38 40 39 39 43 48 51 55 57 56 56 61 61 58 53 54 53 53 51 50 50
34 36 38 40 36 38 37 33 29 27 26 22 27 29 27 27 27 31 32 33 35 36 37 37 39 39 41 45 47 47 48 50 54 52 55 55 55 53 53 52 53 51 51 48
25 27 35 38 38 36 36 33 26 21 20 19 26 26 23 25 27 29 30 31 33 34 34 36 39 39 42 45 47 46 48 48 50 52 53 54 51 52 51 51 52 51 49 46
24 27 37 39 39 39 35 27 27 23 22 19 21 23 23 26 27 27 27 27 34 35 31 37 38 40 45 46 47 46 46 47 48 49 49 50 47 47 46 45 45 45 43 42
30 25 34 37 37 36 32 31 23 24 15 16 20 22 18 21 24 24 24 27 26 27 32 36 40 40 45 46 47 46 46 47 48 47 47 45 45 44 43 43 42 41 41 41
32 28 30 34 31 32 32 29 29 26 23 16 16 17 20 21 23 26 30 32 34 35 32 33 38 42 45 46 46 46 46 46 46 45 44 44 43 42 41 41 40 40 40 40
33 30 26 29 34 36 34 33 29 21 20 20 19 17 24 25 28 31 32 33 36 37 34 34 36 42 44 45 45 45 46 46 45 44 42 42 42 41 40 40 40 40 39 39
33 27 26 24 27 31 31 33 34 29 26 20 18 17 22 29 30 31 32 33 34 36 37 37 40 42 43 44 44 45 45 45 44 42 41 40 40 40 39 39 39 39 39 38
35 29 22 19 23 29 28 31 32 29 22 25 24 24 24 23 25 24 27 30 30 35 36 37 39 41 42 43 44 44 44 43 42 42 41 41 41 40 40 39 39 39 38 38
32 26 23 28 28 30 30 30 30 27 29 25 26 27 27 27 26 28 30 30 30 30 35 38 38 40 42 43 43 43 42 42 41 41 41 40 40 40 40 40 39 38 38 38
32 26 26 24 27 28 27 28 28 29 30 30 30 29 31 30 31 33 31 31 31 30 32 37 39 40 41 41 42 42 42 41 41 40 40 40 40 39 39 39 38 38 37 36
31 28 24 21 26 23 21 23 26 28 28 29 27 28 31 31 32 33 31 32 31 32 33 33 34 39 41 41 42 41 41 41 40 40 40 40 40 39 39 38 37 36 36 35
30 29 27 20 21 13 21 25 25 27 28 28 29 29 30 31 32 34 34 34 34 34 35 35 36 36 40 42 42 41 41 40 40 39 40 40 39 39 38 37 36 35 35 35
29 29 25 22 19 21 22 24 25 22 21 30 28 32 33 34 33 31 35 36 35 35 37 37 37 37 37 42 42 41 40 40 40 39 39 40 39 38 37 36 35 35 35 34
29 28 25 23 20 18 20 28 29 26 21 27 32 33 34 34 28 30 33 35 36 37 37 37 37 39 39 41 41 41 40 40 39 39 39 40 39 38 37 36 35 35 36 33
26 26 23 23 21 24 27 29 28 19 17 30 32 34 34 33 33 34 35 35 37 37 37 38 39 39 39 40 41 41 40 39 40 40 39 39 39 38 37 35 35 35 35 34
25 23 23 24 20 18 28 28 22 22 30 31 31 33 34 35 36 38 37 36 37 36 37 38 38 38 39 39 41 40 40 40 40 40 39 39 38 38 37 35 34 35 35 34
22 24 22 25 25 29 31 28 33 33 31 31 32 33 34 34 35 37 37 37 36 36 37 38 38 38 38 39 40 40 40 40 40 39 39 38 38 38 36 35 34 35 34 33
28 30 26 27 28 32 34 35 34 34 34 36 36 36 35 35 35 35 38 37 36 36 36 37 37 36 37 38 39 40 40 39 39 38 38 38 37 37 36 36 35 34 33 33
29 29 29 29 31 33 34 33 35 35 37 37 38 38 38 39 39 38 37 38 37 36 36 37 37 37 37 37 39 39 38 38 38 38 37 37 37 37 35 35 35 34 34 33
31 30 28 26 33 33 33 35 36 34 34 36 37 38 39 39 40 40 39 39 38 39 39 37 36 37 37 37 38 39 39 38 38 37 37 37 36 37 36 35 35 37 36 36

GFSCGP_sfc_dewp_093.txt.gz
Dewpoint
37 34 31 33 37 35 31 33 35 38 42 39 38 40 42 45 45 43 43 41 43 48 51 51 59 62 63 63 64 64 65 65 66 65 65 65 65 65 65 65 63 63 62 62
35 31 34 36 36 36 34 32 32 39 42 38 39 38 43 45 45 44 44 42 40 42 43 43 45 58 61 63 64 64 65 65 65 64 65 65 65 64 65 65 65 64 63 63
32 34 36 35 35 36 34 32 34 35 40 39 37 36 38 42 45 42 44 43 41 41 41 43 40 47 53 60 62 64 64 65 65 65 65 63 63 63 63 63 63 64 64 64
36 38 35 35 37 34 31 36 38 38 37 34 39 29 35 36 39 39 40 41 40 40 41 41 41 40 41 46 60 62 64 64 64 64 63 62 62 61 62 61 61 61 61 61
35 37 36 36 37 36 34 37 37 37 36 35 36 30 31 32 33 33 35 38 40 40 40 41 41 41 40 41 45 59 61 62 63 63 64 63 61 61 60 60 59 57 57 56
37 40 39 38 39 38 39 37 37 38 35 28 35 32 29 26 30 31 32 34 38 40 40 40 41 41 40 40 44 53 58 60 59 61 62 61 61 59 58 58 58 56 55 53
35 36 38 39 36 38 37 33 29 26 27 25 31 31 29 30 30 29 32 33 34 37 39 39 38 39 40 41 45 49 54 56 55 55 59 59 59 58 58 58 56 54 53 53
29 23 37 38 37 35 34 31 26 21 21 20 29 27 27 25 27 29 31 32 33 34 35 36 37 39 39 40 44 47 49 51 54 53 53 54 55 56 56 55 55 54 54 51
26 30 36 38 39 38 32 31 28 23 22 20 24 22 23 26 27 27 27 28 29 30 30 34 39 38 39 41 44 46 47 48 49 50 51 51 53 53 53 52 52 51 48 45
29 27 33 37 38 38 33 29 25 27 20 13 19 21 18 23 26 26 25 25 26 27 31 33 38 40 41 44 46 46 46 47 48 48 48 48 48 50 48 45 43 42 41 42
31 27 28 32 32 33 32 28 28 25 22 15 17 18 21 21 23 24 27 30 30 30 31 32 35 41 43 45 46 46 46 47 47 47 45 45 44 44 44 44 43 41 41 41
32 29 23 28 34 36 34 32 26 20 19 19 18 17 23 25 25 29 30 32 33 34 34 35 36 40 42 43 44 45 46 46 46 45 44 43 42 42 41 42 42 41 41 40
31 26 17 21 25 30 31 32 31 28 25 20 17 15 24 29 29 31 31 32 32 34 35 36 37 40 41 42 43 44 45 45 44 43 42 41 41 40 39 39 39 39 39 39
34 27 22 18 22 27 27 30 32 28 20 23 23 24 26 24 25 24 26 30 31 30 34 36 37 38 41 42 43 44 44 44 43 42 41 41 40 40 39 39 39 39 39 38
31 26 23 27 28 29 29 29 30 24 28 25 27 26 27 28 28 26 28 32 31 30 30 34 37 38 40 41 42 43 43 43 42 42 41 40 41 40 40 39 39 39 38 38
31 25 24 24 26 28 26 27 27 29 30 29 30 29 31 31 30 30 32 33 31 31 31 31 36 38 39 40 42 43 43 42 42 41 41 40 40 39 39 38 38 37 37 37
30 27 24 20 25 23 19 23 25 27 28 29 26 27 30 30 31 32 32 32 31 32 33 34 34 34 36 39 41 42 42 42 41 41 40 40 40 39 38 38 37 36 35 35
30 28 26 20 21 11 19 24 25 26 26 29 28 27 27 30 32 32 34 34 33 34 34 34 35 36 37 37 41 42 42 41 40 40 40 40 39 38 38 37 36 35 34 34
30 28 25 21 19 20 22 24 24 24 22 29 30 32 33 34 33 29 34 35 34 35 35 36 37 37 37 38 40 42 41 41 40 40 40 40 39 38 37 36 35 34 34 33
29 28 25 22 19 17 18 28 29 25 21 24 32 31 33 34 29 28 31 35 35 36 37 37 37 37 38 39 40 41 41 40 40 40 40 40 39 38 37 36 35 34 34 33
25 25 23 23 21 23 26 28 27 19 18 28 31 31 32 32 33 33 36 36 36 37 37 37 38 38 38 39 39 40 40 40 41 40 40 40 39 38 38 36 34 34 33 35
24 22 23 23 20 17 28 28 23 26 31 31 32 33 33 34 34 35 36 37 37 37 37 37 38 38 38 39 39 40 39 40 40 40 40 39 38 38 37 36 34 33 34 35
23 25 24 24 24 30 32 28 33 33 33 33 34 35 36 36 35 36 36 36 37 37 37 37 38 37 38 38 39 39 38 40 40 40 39 39 38 38 37 35 34 34 35 35
26 29 26 26 27 30 32 33 34 35 35 36 37 37 37 37 38 38 39 39 39 38 37 36 37 37 36 37 39 39 39 40 39 39 39 38 38 37 37 36 35 34 33 34
28 28 28 27 28 30 32 32 33 34 33 32 32 34 34 33 35 37 38 39 40 40 39 36 37 37 37 37 37 37 39 40 40 40 39 39 38 37 36 36 36 35 35 35
29 29 26 24 30 31 31 33 34 31 30 31 31 32 32 32 33 36 37 38 40 42 41 37 38 38 38 38 39 39 39 39 38 38 38 38 37 37 36 36 35 37 37 38

GFSCGP_sfc_dewp_096.txt.gz
Dewpoint
37 32 30 30 33 31 31 32 33 37 42 38 37 37 39 44 44 43 43 42 43 47 53 59 61 63 63 63 61 64 63 64 65 65 65 65 64 65 65 64 63 61 60 60
34 30 33 34 36 34 32 33 34 40 40 38 38 37 40 41 44 44 44 43 41 42 44 43 53 60 62 62 63 64 63 63 65 65 65 64 65 65 65 65 64 63 62 62
31 33 35 36 35 35 32 33 36 36 39 40 38 35 37 40 41 44 43 45 43 41 41 42 42 56 59 61 63 64 63 63 64 64 64 63 63 63 63 63 64 64 64 63
35 36 33 34 35 34 31 35 37 37 36 33 38 28 36 38 38 39 40 41 42 42 41 41 42 41 51 56 60 62 63 64 64 64 64 63 62 62 63 63 62 62 62 62
35 36 35 34 37 35 34 38 36 36 36 35 35 32 32 37 35 35 36 38 39 41 41 41 41 42 42 42 49 59 61 62 62 63 64 63 62 62 61 61 60 60 59 59
37 36 37 38 39 38 38 35 36 36 33 26 34 31 29 28 31 32 33 34 37 39 40 41 41 41 41 41 42 47 57 60 61 61 63 62 61 60 59 59 58 57 56 56
34 37 39 40 35 39 36 29 24 23 25 23 33 29 27 30 28 29 29 31 33 37 39 40 40 40 40 41 41 45 51 56 58 58 61 61 60 59 59 59 57 55 55 54
20 26 37 39 38 36 35 30 23 21 22 21 31 27 25 25 27 29 31 31 33 34 36 37 38 39 39 39 40 44 49 53 55 53 55 56 56 57 57 57 56 55 54 53
26 31 35 38 40 38 35 26 27 22 21 22 26 25 22 25 26 27 26 26 28 31 32 35 39 39 38 38 40 43 47 50 53 53 53 53 53 53 54 55 55 55 53 51
28 29 33 36 37 37 32 29 23 24 16 13 18 20 20 21 25 25 26 27 28 29 31 32 34 40 40 42 43 45 47 48 49 50 49 50 51 51 51 51 50 50 48 46
29 27 29 31 32 32 30 28 27 25 21 16 15 15 21 22 23 24 29 31 32 32 32 33 34 39 43 43 44 45 46 47 47 47 46 46 47 47 47 47 45 44 43 42
32 28 27 28 33 35 34 31 25 21 20 19 18 17 21 28 29 30 31 32 33 34 35 35 36 39 41 42 43 44 45 46 46 46 45 44 44 43 42 42 41 41 41 41
29 25 17 21 25 29 29 31 29 26 24 19 14 15 24 28 29 28 31 30 31 31 32 34 35 37 39 40 42 44 44 45 45 45 44 42 42 41 40 40 40 40 39 39
32 26 21 17 22 27 27 30 30 26 19 22 21 21 25 26 26 25 26 29 31 31 31 32 34 36 38 40 41 42 43 44 44 43 42 42 41 40 40 40 40 39 38 38
30 25 22 26 28 29 29 29 29 23 26 23 25 25 27 28 29 30 28 29 31 32 31 31 31 34 37 39 41 42 42 43 42 42 42 41 41 40 39 39 39 39 39 38
31 25 23 24 26 27 26 27 27 28 29 29 28 28 31 32 31 31 32 32 33 31 32 32 33 34 36 38 39 41 42 42 42 41 41 41 40 40 39 39 38 38 38 37
29 26 23 20 24 22 18 23 24 27 27 28 24 25 29 27 29 30 31 32 32 32 33 34 34 35 35 35 37 39 41 42 41 41 41 40 40 39 38 37 37 36 35 35
29 26 26 19 19 7 17 23 24 25 25 27 28 28 30 31 32 33 33 33 33 33 34 34 35 36 37 37 37 39 41 41 41 40 40 40 39 38 37 36 36 35 34 34
30 27 24 20 17 17 22 24 25 23 22 26 31 31 32 33 32 29 30 34 34 35 35 36 37 37 37 37 38 39 40 40 40 40 40 40 39 38 37 36 35 34 34 33
28 28 24 22 18 14 17 28 30 27 19 29 31 31 31 32 28 30 33 35 35 36 37 37 37 37 38 38 39 40 40 39 40 41 41 40 39 38 37 36 35 34 33 33
25 25 23 23 20 22 25 28 29 19 19 30 31 32 32 31 32 34 35 35 36 37 37 37 37 37 38 38 38 38 39 39 41 41 40 40 39 38 38 36 34 34 32 33
24 22 22 22 19 16 29 27 22 28 31 33 32 34 34 35 36 37 37 37 37 37 37 38 37 37 38 38 38 38 38 40 40 40 40 39 38 38 37 36 33 33 33 33
22 23 23 24 23 28 31 31 33 33 32 33 33 35 34 34 34 34 34 36 38 39 39 39 38 37 38 38 38 38 39 39 39 39 40 39 38 38 37 35 34 33 33 33
25 27 25 25 25 30 30 33 33 33 32 33 33 32 33 32 29 30 30 31 32 34 36 39 38 36 37 37 38 38 39 39 39 39 39 39 38 38 37 36 36 35 34 33
27 28 26 26 27 28 31 31 30 31 31 30 31 31 31 31 32 33 33 34 36 36 37 40 40 39 37 38 37 38 38 39 38 37 39 39 39 38 37 36 36 36 35 35
29 28 26 25 28 28 28 30 31 30 30 31 31 32 33 31 31 32 34 36 38 38 40 39 40 41 38 39 38 38 39 40 40 40 39 39 39 38 37 37 36 38 37 38

GFSCGP_sfc_dewp_099.txt.gz
Dewpoint
37 32 29 30 30 30 34 27 27 34 40 37 36 36 38 40 41 43 47 48 51 55 59 59 60 63 62 62 61 61 61 61 63 65 65 65 64 65 66 65 63 63 62 62
32 30 35 31 30 31 31 28 32 36 39 37 37 37 40 41 41 43 45 48 47 49 52 59 60 62 62 61 60 61 61 61 62 64 65 66 65 66 66 66 65 64 63 62
30 33 37 35 32 31 28 30 34 33 38 39 37 36 37 40 43 42 44 45 47 46 45 48 56 60 61 61 60 60 62 62 62 65 65 64 65 65 65 65 65 65 64 65
34 37 36 34 32 34 30 34 34 36 36 33 39 28 36 39 41 41 39 41 43 44 44 44 46 50 57 60 62 61 62 62 63 64 64 63 62 61 63 64 64 63 64 63
34 36 33 34 33 36 31 37 37 37 35 34 34 31 33 36 38 39 36 38 40 42 44 45 44 45 49 51 58 61 62 63 64 63 64 64 62 63 63 63 61 60 59 59
34 38 37 38 39 37 38 36 36 36 33 27 32 27 26 33 36 35 33 37 39 42 42 41 42 43 43 46 46 52 60 61 62 63 64 63 62 62 62 61 61 58 58 57
35 35 40 40 37 38 35 29 26 23 25 23 27 28 27 30 34 32 32 30 31 36 39 40 41 42 43 44 44 45 49 54 60 62 62 63 62 61 61 61 59 57 56 55
29 30 36 39 38 35 34 29 24 19 22 23 31 25 25 25 29 29 30 31 34 35 36 37 38 39 41 42 42 43 46 50 57 58 60 61 61 60 60 60 59 58 56 55
29 31 37 39 40 38 33 27 28 23 22 25 24 25 22 25 26 26 26 28 31 33 35 35 38 40 41 40 40 42 44 49 55 55 55 56 57 58 58 58 58 56 55 54
30 31 35 36 39 38 32 29 24 26 18 15 18 20 20 22 23 26 30 30 31 31 32 34 34 40 43 43 45 45 46 48 52 54 53 53 54 55 55 56 55 54 53 52
29 29 31 33 33 34 33 30 26 25 21 16 13 17 21 24 25 26 31 33 33 34 34 35 36 38 42 44 45 45 46 48 49 49 49 50 51 52 52 53 52 51 49 48
32 28 28 30 32 34 33 32 24 23 20 19 18 18 22 28 30 31 32 32 32 33 34 35 36 38 39 42 44 45 46 46 47 47 47 47 47 48 47 46 44 44 43 42
30 25 19 22 24 29 30 32 28 26 24 21 17 18 24 28 29 27 28 30 32 32 33 32 34 36 38 40 43 44 45 46 46 46 45 45 44 44 44 43 42 42 41 40
32 26 21 17 22 28 28 30 30 26 22 23 20 21 24 28 30 31 31 29 30 32 33 32 32 33 37 39 41 43 44 45 45 45 44 44 43 43 42 42 41 41 40 40
29 26 23 26 28 28 30 29 30 24 26 24 25 25 27 30 31 31 30 32 33 33 33 33 33 34 36 38 39 42 43 44 44 44 44 43 42 42 41 41 40 39 39 39
30 25 23 24 25 25 26 26 28 29 30 30 29 29 30 29 29 31 31 32 32 33 33 34 34 35 35 35 36 39 41 43 44 43 43 43 42 41 40 40 39 39 39 39
28 26 23 21 24 21 19 23 25 27 28 28 24 26 30 31 33 33 33 33 33 34 34 34 35 35 35 36 37 37 38 41 43 43 43 42 41 40 40 39 39 39 39 38
28 26 26 20 16 6 18 23 24 24 25 27 29 31 32 32 33 33 34 34 34 34 35 36 36 37 37 38 37 38 38 40 41 42 42 42 41 40 39 39 39 38 37 37
29 26 24 20 17 14 22 25 24 22 24 30 30 32 32 33 32 30 34 35 35 35 36 36 37 37 37 38 38 38 39 40 41 41 42 42 41 40 39 38 38 37 37 37
28 27 24 22 17 9 14 27 29 24 20 31 31 32 32 33 28 30 35 36 36 36 37 37 37 38 38 38 38 39 39 40 40 40 41 42 41 40 39 39 37 37 37 36
25 24 23 23 19 21 24 28 28 21 17 32 32 33 33 32 33 35 36 36 37 37 37 38 38 38 38 38 38 38 39 39 40 41 42 41 41 40 39 38 37 37 36 36
23 22 22 23 20 14 29 27 24 27 32 32 34 34 34 33 33 33 33 32 32 32 33 35 36 39 39 39 38 38 38 40 41 41 41 41 40 40 38 38 36 36 35 35
22 22 22 23 23 26 31 30 33 33 31 33 33 32 32 31 32 31 30 30 31 30 31 33 34 35 38 40 39 38 39 39 40 40 40 40 39 39 38 37 36 35 35 35
24 27 25 24 25 30 31 33 33 34 32 32 31 31 31 31 30 29 29 30 31 33 34 36 37 37 39 39 39 38 38 39 39 40 40 40 39 38 37 37 36 36 35 35
25 28 25 25 27 28 31 32 31 33 31 30 31 31 31 31 31 30 30 30 32 34 37 38 39 39 39 38 38 38 38 39 39 39 39 39 39 38 37 37 36 36 36 36
28 28 26 24 28 27 29 31 32 28 29 30 30 29 30 31 31 31 31 32 33 34 36 38 39 38 39 38 40 39 39 40 39 38 38 39 39 39 38 37 37 38 38 39

GFSCGP_sfc_dewp_102.txt.gz
Dewpoint
31 33 30 33 32 28 32 22 20 26 27 33 32 35 36 39 40 40 41 44 48 53 56 60 58 62 62 61 61 61 61 61 61 63 64 65 64 64 64 64 63 62 62 62
33 30 32 31 30 28 33 27 24 31 34 31 35 35 37 39 40 40 41 44 47 53 57 57 56 58 61 61 61 61 62 61 61 62 63 64 65 66 66 66 65 63 63 64
31 31 35 35 27 27 31 27 25 30 36 36 35 34 37 39 41 41 42 43 46 51 55 55 55 58 61 61 61 61 61 62 61 62 64 65 66 66 66 66 66 66 66 66
34 36 35 34 28 29 25 27 29 32 33 31 38 28 33 38 39 41 42 43 46 46 49 53 56 58 59 60 62 61 61 62 62 63 64 62 61 62 63 65 66 65 65 65
34 34 33 32 30 31 25 30 34 34 32 32 32 28 33 37 38 40 42 42 44 46 46 49 52 56 60 61 62 61 61 61 62 63 63 62 62 63 63 64 63 62 63 63
35 38 38 36 32 34 37 35 35 33 32 29 30 28 32 35 38 41 39 40 41 44 45 45 45 46 49 55 60 62 61 61 62 62 63 63 62 62 62 62 63 61 60 60
35 37 39 40 35 38 37 35 30 26 28 24 29 27 29 33 36 39 38 36 31 38 41 41 41 43 44 46 48 50 58 61 62 63 63 63 63 61 62 62 62 60 58 57
33 31 37 40 37 33 32 28 26 18 19 23 30 30 29 29 27 32 35 33 35 35 37 38 39 41 41 43 44 44 44 47 53 59 62 63 63 63 63 63 62 60 58 57
30 33 38 38 39 38 31 29 26 25 26 24 24 23 26 26 26 28 29 32 33 34 35 36 38 41 43 42 41 42 43 45 49 54 58 61 61 60 61 61 61 60 58 57
31 33 36 36 38 37 31 29 26 30 21 17 18 20 22 24 25 28 29 30 32 33 34 35 36 39 42 44 45 45 43 44 48 53 56 57 57 59 60 59 59 58 57 55
30 31 34 34 34 33 32 28 26 24 21 14 12 19 24 24 25 29 30 32 33 33 34 34 35 38 41 44 46 45 46 47 49 53 54 54 54 55 56 57 57 57 55 54
31 30 32 31 33 33 33 30 25 26 20 22 18 21 27 29 30 30 31 32 32 33 34 33 35 36 37 40 44 46 46 47 49 50 49 50 51 53 54 54 54 53 52 52
29 28 28 27 28 29 31 32 29 26 28 24 19 21 27 28 29 31 31 30 31 32 34 33 33 33 34 37 40 43 45 46 47 47 47 48 49 50 51 52 50 49 48 48
32 27 24 24 27 30 28 29 30 29 34 21 22 23 27 29 28 28 29 31 32 33 33 34 34 34 35 36 38 39 42 44 46 46 46 46 46 47 48 48 47 47 47 44
31 30 28 28 28 30 29 29 29 33 27 27 25 25 26 28 29 31 32 33 33 33 34 35 35 35 35 34 35 36 38 41 44 45 46 46 46 45 45 45 45 44 43 42
31 31 27 27 25 26 25 26 27 28 29 29 28 27 31 31 32 30 32 33 33 33 34 35 35 36 36 36 37 38 38 38 40 43 45 46 45 44 44 44 43 42 42 41
29 28 27 25 24 21 21 22 24 26 28 28 22 29 31 30 31 32 33 33 33 34 34 35 35 36 36 37 37 37 38 38 39 40 41 44 45 44 43 43 42 42 41 41
28 28 28 25 18 14 21 24 24 25 27 28 31 31 32 33 33 33 35 33 30 31 31 33 34 36 37 37 37 38 38 39 39 40 40 42 44 44 43 42 42 42 41 41
29 27 24 20 16 18 22 25 24 22 25 31 31 32 31 31 31 31 34 31 29 30 31 32 33 34 36 37 37 37 38 39 39 40 41 41 43 44 43 42 42 43 42 42
28 28 23 24 15 5 20 28 29 25 20 32 31 30 29 28 24 25 26 28 29 30 30 31 31 33 35 34 35 36 36 38 39 40 40 41 43 43 43 43 42 42 41 41
27 27 24 23 21 19 23 28 29 21 18 32 30 29 27 22 21 25 28 29 30 30 31 31 31 31 32 33 35 36 37 39 40 41 41 42 43 44 43 43 43 42 42 40
23 23 24 25 23 16 28 28 24 27 32 29 30 27 26 26 27 29 30 30 30 31 33 34 34 35 36 37 36 36 38 40 40 41 41 42 43 42 43 43 42 40 38 37
22 23 21 24 21 27 31 29 33 30 27 30 28 25 28 29 29 30 30 29 29 29 30 33 33 35 37 38 40 39 40 38 39 40 40 41 42 42 42 41 40 38 37 37
26 27 25 25 26 29 32 33 32 30 28 29 28 29 30 29 29 29 29 29 30 31 32 33 33 35 37 37 38 39 38 38 38 39 39 40 41 41 40 40 39 38 37 37
25 28 26 26 27 29 32 33 32 31 30 28 29 29 28 28 28 29 30 30 30 31 31 31 33 36 36 37 38 39 40 39 38 39 40 41 41 40 39 39 38 38 37 38
29 27 25 22 27 28 29 33 31 29 25 26 28 27 27 28 28 29 30 30 30 29 30 31 34 35 35 37 37 39 40 40 39 39 40 41 40 41 39 38 38 40 40 40

GFSCGP_sfc_dewp_105.txt.gz
Dewpoint
31 33 28 28 29 32 30 23 19 20 14 27 25 30 31 34 38 38 40 40 42 47 51 58 58 60 61 60 62 61 62 62 62 64 64 63 63 63 63 62 62 61 61 63
32 29 28 36 34 35 34 25 23 22 24 26 25 29 29 33 35 36 38 40 43 47 55 57 57 57 57 60 61 62 62 62 62 63 63 65 65 65 64 64 63 62 62 63
32 31 35 36 31 28 28 25 24 32 27 27 25 28 32 36 39 38 39 39 43 47 55 55 55 56 57 59 61 61 61 62 62 62 63 64 65 65 65 66 65 65 64 66
35 34 35 35 30 25 21 22 29 33 28 28 29 26 33 37 39 38 36 41 45 49 55 55 55 56 58 58 61 61 61 61 62 62 62 62 62 62 64 65 66 66 66 66
34 33 34 33 27 25 26 28 27 32 30 33 34 34 33 37 37 38 42 41 46 49 54 55 56 57 58 59 60 61 61 61 61 62 62 63 61 62 64 64 63 64 64 65
35 37 36 33 32 29 32 31 36 37 35 26 29 29 33 34 38 41 40 43 46 48 50 53 55 57 58 60 60 61 61 60 60 61 61 62 61 61 62 62 62 63 63 63
36 36 37 38 33 35 36 35 31 29 29 24 30 29 35 35 35 41 41 35 45 47 47 48 48 48 49 55 59 60 60 60 60 61 61 61 61 60 61 61 61 61 61 59
33 29 36 37 37 36 34 33 28 24 24 25 29 29 33 36 37 40 40 35 39 41 41 41 43 45 46 48 49 51 56 59 59 61 60 61 61 61 61 62 62 62 61 60
33 33 37 36 37 36 31 28 27 25 22 24 28 31 35 29 33 39 38 34 35 37 38 39 41 42 42 43 44 45 46 47 51 57 60 61 62 62 62 62 62 62 60 59
33 31 35 36 37 36 30 28 27 32 20 17 25 29 30 27 27 32 32 32 33 34 34 36 37 40 43 45 45 45 43 43 46 50 54 56 60 61 61 61 61 60 59 57
32 33 34 34 32 32 31 28 25 25 21 14 16 21 25 25 28 28 30 32 33 33 33 34 36 38 40 43 46 46 46 45 47 51 53 55 56 58 59 59 59 59 58 56
30 31 31 30 32 31 32 29 26 28 18 21 19 22 27 28 29 29 30 31 32 34 33 33 34 35 36 38 41 44 46 46 48 49 51 52 53 54 55 56 57 57 56 55
29 27 29 27 28 29 28 27 26 26 32 25 20 22 27 29 29 29 30 31 32 33 34 34 34 34 34 35 37 39 42 45 46 47 47 48 49 50 52 54 54 54 54 53
34 28 27 27 28 30 28 27 27 31 34 22 23 25 25 26 28 30 31 31 32 33 34 35 35 34 34 34 35 35 37 40 44 46 46 46 47 48 49 51 52 51 51 51
31 29 30 27 27 30 27 26 27 31 26 27 24 24 27 28 28 30 32 32 32 32 33 34 34 34 34 34 35 36 37 38 39 42 45 46 47 46 47 48 49 50 49 49
30 29 29 26 24 25 23 24 25 26 27 26 26 27 29 30 29 30 31 31 32 32 32 33 34 34 34 35 36 37 37 37 39 39 40 44 46 46 46 46 46 47 47 45
28 28 28 25 23 21 20 22 24 25 26 27 23 29 29 30 31 31 32 31 29 28 28 28 29 31 33 35 36 36 37 38 38 39 39 40 43 45 46 45 45 45 44 44
26 26 27 24 20 17 23 25 24 24 26 28 29 30 31 31 31 30 34 32 27 23 23 25 26 27 29 29 30 33 35 37 38 40 40 41 41 43 46 45 45 45 44 43
29 25 22 20 13 17 21 24 24 23 23 29 29 31 30 30 29 29 33 27 23 23 26 27 29 29 30 30 31 32 32 33 35 37 39 41 42 42 43 46 45 45 44 44
29 27 22 21 16 5 19 27 28 25 19 30 31 29 28 27 22 22 22 22 25 28 29 30 32 32 32 32 33 33 33 33 34 35 37 40 42 42 43 44 45 45 44 43
24 24 23 18 20 15 25 28 28 20 23 31 30 29 27 24 22 22 22 26 29 29 29 30 30 30 32 32 33 35 37 37 37 38 40 40 42 42 43 44 45 45 44 43
20 20 20 22 21 18 27 28 23 28 31 30 30 27 24 22 22 24 27 28 29 29 29 30 31 31 32 33 35 37 37 39 40 39 39 39 41 42 42 44 45 44 42 41
21 22 20 22 21 27 28 29 32 31 30 29 27 23 23 24 25 27 27 27 28 29 31 32 32 32 33 34 36 37 36 36 37 38 37 38 37 40 41 43 44 43 41 40
25 27 24 25 23 26 30 32 32 30 29 28 25 24 26 26 26 25 25 27 28 29 30 30 30 29 30 34 34 34 37 38 38 38 38 37 37 39 40 42 43 42 40 38
23 27 25 24 25 27 29 32 32 30 28 25 25 26 26 26 24 25 26 27 28 29 30 30 30 29 30 32 32 35 37 37 36 38 39 39 39 40 41 42 41 41 40 39
26 23 23 18 23 26 28 31 33 31 29 24 24 24 25 25 26 25 25 26 26 27 29 29 29 29 29 31 31 32 33 35 35 37 40 40 40 41 42 42 41 42 42 41

GFSCGP_sfc_dewp_108.txt.gz
Dewpoint
31 31 27 28 28 26 25 29 25 25 22 22 17 29 31 37 39 39 39 40 41 43 48 54 59 59 61 61 61 62 62 62 61 61 62 62 61 60 60 61 62 64 64 64
33 30 29 28 30 30 32 29 27 27 27 23 25 28 28 30 34 37 38 40 40 44 49 56 57 58 57 59 61 61 61 60 60 61 63 64 64 63 63 63 62 62 62 64
33 31 34 34 32 29 30 26 25 29 32 26 28 30 29 30 32 34 36 39 39 44 52 54 55 56 57 57 60 61 61 61 62 62 62 62 64 64 64 64 63 63 63 64
34 33 34 33 30 28 25 26 28 31 30 27 31 22 27 34 38 38 37 39 41 48 54 53 54 55 57 57 59 61 61 61 62 62 61 60 60 59 61 62 63 64 64 64
34 34 30 29 28 27 23 29 37 32 33 29 27 29 34 38 37 38 40 41 48 51 54 54 55 56 57 58 59 61 61 61 61 61 61 60 60 60 61 62 62 62 63 64
35 36 36 32 34 33 32 35 35 34 33 29 33 33 32 35 35 40 39 44 48 52 55 55 56 56 57 58 58 58 58 60 61 60 61 60 60 59 60 60 61 61 62 62
35 35 37 37 35 36 36 33 28 27 27 27 34 31 32 38 37 40 40 40 50 51 52 54 54 55 56 57 57 59 59 59 60 60 59 60 60 61 60 60 60 60 60 60
30 23 36 38 36 34 35 35 29 23 25 29 30 28 33 39 41 42 41 43 47 49 50 49 48 47 47 52 57 58 59 59 59 59 59 60 60 60 60 60 61 60 60 60
34 31 36 38 38 38 34 32 32 32 26 27 32 34 37 38 38 39 40 43 46 45 44 41 42 43 43 43 44 48 51 53 56 58 58 59 59 59 60 60 61 61 61 61
32 30 34 35 38 38 34 31 28 32 25 23 29 29 30 35 36 35 35 37 42 41 36 37 39 42 45 46 46 45 44 43 45 48 54 58 60 61 61 60 60 60 60 59
33 34 31 34 32 31 31 29 27 25 22 17 21 27 32 35 37 36 32 33 33 33 34 35 37 39 40 42 46 46 46 47 47 50 52 53 55 57 59 60 60 60 58 58
31 31 29 30 31 31 32 26 25 26 24 24 25 27 28 29 30 30 32 33 33 34 34 34 35 35 37 38 40 43 45 46 47 48 49 50 51 53 54 56 58 58 57 57
31 28 25 25 29 30 28 27 29 28 32 22 22 27 28 28 29 30 31 32 34 34 35 35 35 34 34 35 36 37 40 43 46 46 46 47 48 49 50 53 54 55 56 55
37 29 27 23 26 30 27 27 28 32 25 24 26 24 26 28 30 31 31 32 33 33 33 34 34 34 34 35 35 37 37 38 40 43 45 46 46 47 48 51 52 52 53 53
32 27 26 26 28 29 25 26 27 26 26 25 24 26 28 27 29 30 31 32 31 31 31 32 33 34 34 35 36 37 37 38 39 39 40 44 46 46 46 48 50 51 50 51
30 27 27 23 23 24 23 24 27 27 27 27 27 27 29 29 30 31 31 31 29 27 26 27 27 28 29 31 32 34 36 37 39 38 39 40 42 46 46 46 47 48 48 48
28 28 26 22 24 22 21 23 24 25 27 28 26 28 29 30 31 31 32 30 27 23 22 23 24 25 27 28 29 30 31 32 35 37 39 40 41 41 45 45 45 45 46 45
27 26 26 22 21 13 23 26 25 25 27 30 30 30 31 31 31 31 34 30 25 22 23 25 27 28 29 30 30 31 32 32 33 34 35 38 41 42 42 45 45 45 44 44
28 26 22 21 15 16 21 24 25 24 26 29 30 31 31 30 29 32 25 22 21 25 28 29 31 32 32 32 33 34 34 35 35 35 35 36 37 40 41 42 44 43 43 42
29 27 24 20 18 10 21 26 27 26 21 30 30 29 28 27 22 24 21 23 27 29 29 30 30 31 31 31 32 32 33 33 34 36 38 38 38 39 39 41 42 43 43 43
24 24 22 22 19 19 27 28 28 20 23 31 30 29 27 24 23 21 24 27 29 29 29 30 31 31 31 32 33 34 35 35 36 38 38 38 37 37 38 40 42 43 43 43
21 20 22 22 19 15 29 28 24 28 31 31 30 27 26 24 23 25 27 28 29 29 31 32 31 31 31 31 31 32 34 35 35 36 38 38 37 36 37 39 41 42 44 42
21 23 23 22 24 28 29 30 31 31 30 30 30 25 24 23 25 26 27 26 27 28 30 31 30 30 30 31 32 31 33 33 34 35 35 36 38 39 38 37 37 39 42 43
25 27 24 23 24 28 28 31 32 30 30 29 24 24 25 25 26 25 25 26 27 29 29 30 30 29 29 29 29 30 31 31 33 32 34 36 39 39 39 38 40 40 42 41
24 27 25 24 25 26 27 31 32 30 28 25 25 25 25 26 26 25 25 25 26 27 28 28 29 28 28 28 28 29 30 29 29 30 31 34 38 39 40 40 40 40 42 42
27 25 23 22 25 27 28 31 33 30 28 25 25 25 26 26 25 26 25 26 26 26 27 27 29 28 28 28 28 29 29 29 29 30 32 33 35 38 39 41 41 43 43 43

GFSCGP_sfc_dewp_111.txt.gz
Dewpoint
34 30 26 27 30 27 26 26 24 25 30 28 26 24 24 24 31 34 35 27 39 41 45 51 56 57 58 59 60 61 62 60 62 63 63 63 61 62 63 63 62 63 63 62
32 28 30 30 28 28 32 29 27 27 28 28 28 25 26 26 32 35 38 39 40 40 46 53 56 55 56 59 61 61 61 60 60 62 63 63 62 62 62 63 64 63 64 64
30 30 35 34 33 31 30 27 28 26 29 30 26 25 24 25 33 34 37 39 41 41 45 53 55 55 55 57 59 61 61 59 60 61 62 62 63 63 62 62 62 62 64 65
33 33 33 33 32 31 27 28 32 33 28 19 29 21 27 29 29 32 34 38 39 43 51 54 54 54 55 57 58 60 61 60 61 61 61 60 59 59 60 61 63 63 63 62
32 34 34 29 28 29 27 28 31 33 31 29 26 27 33 37 34 38 39 37 40 48 51 53 54 56 57 58 58 59 61 61 61 61 60 59 59 60 60 60 60 61 62 63
35 37 36 33 33 33 35 33 34 34 32 25 29 28 32 34 36 37 40 41 47 50 53 54 55 56 57 57 58 59 60 60 60 61 60 59 59 59 59 59 59 61 61 61
35 34 36 36 36 37 37 32 26 23 23 26 33 30 32 36 39 40 41 39 48 52 53 53 54 55 56 56 57 58 58 59 60 60 60 60 59 60 59 59 59 60 60 60
29 19 34 39 36 34 34 34 28 23 23 28 33 28 31 38 39 41 42 46 49 48 49 49 50 51 50 55 57 57 58 58 59 59 59 60 60 60 60 60 59 60 60 60
30 27 36 37 38 39 36 34 35 32 32 25 30 33 36 37 38 41 44 44 44 44 44 45 45 44 44 44 48 54 55 55 57 59 59 59 59 59 59 60 60 60 60 61
33 30 34 35 39 38 38 34 29 30 24 23 27 29 29 33 36 39 41 41 42 41 41 41 41 42 45 46 46 45 43 45 46 50 57 58 58 59 59 59 60 60 60 61
32 34 30 33 31 30 31 29 27 26 25 24 23 28 33 34 38 35 39 41 39 35 34 35 37 38 39 41 44 46 47 48 49 50 52 53 54 56 59 59 59 59 60 59
31 31 25 28 31 30 30 29 26 24 22 25 26 28 34 38 38 33 33 34 34 35 35 34 34 35 36 36 38 41 43 45 46 47 47 48 50 51 53 54 58 59 58 57
31 27 21 23 25 28 30 27 29 29 27 23 21 29 30 31 31 32 33 33 33 34 34 34 34 34 35 36 37 37 38 39 41 43 45 46 46 47 48 51 54 55 56 56
35 28 25 21 24 29 26 27 28 27 22 25 25 26 27 30 31 31 32 32 32 32 31 31 31 33 33 34 35 35 37 38 39 39 40 41 44 46 46 48 51 53 53 53
31 25 24 27 28 27 25 26 27 24 26 21 25 26 26 29 30 30 31 30 28 26 26 26 26 27 28 29 29 30 32 34 37 37 39 40 40 43 46 46 47 50 51 51
30 26 27 23 23 24 22 24 26 27 27 28 28 27 28 29 31 31 30 28 25 22 22 24 25 26 27 28 29 30 31 32 34 34 36 38 40 40 41 44 46 46 48 48
27 27 24 22 24 21 20 22 24 25 28 28 26 28 29 30 31 32 32 28 25 22 23 25 26 28 29 30 30 31 32 33 33 34 34 35 36 38 40 42 44 45 45 46
27 25 25 19 18 10 23 25 25 26 29 30 30 30 31 31 31 30 27 23 21 24 27 28 30 31 31 32 32 32 33 34 35 35 36 37 37 37 38 39 41 43 43 44
28 26 21 19 17 15 22 24 25 25 24 30 30 31 31 29 31 24 21 22 25 28 29 30 30 30 30 30 32 32 32 32 33 33 34 36 37 37 38 39 40 40 42 43
28 27 23 20 16 10 17 26 26 25 19 29 31 31 28 27 28 29 21 24 27 28 29 29 30 30 31 32 32 31 31 33 33 34 36 35 35 36 36 36 36 38 40 41
23 23 21 21 18 19 25 28 27 18 15 30 31 29 28 25 24 23 25 27 28 29 29 31 32 31 32 31 31 31 31 32 34 34 34 35 35 36 35 37 38 37 38 40
20 20 20 21 19 13 29 28 19 21 31 31 29 28 27 25 23 24 26 27 28 29 30 31 30 30 31 31 31 30 30 32 33 33 34 34 33 33 35 36 38 39 37 38
19 22 20 21 22 25 29 26 29 31 30 30 29 26 25 22 23 25 26 25 27 28 29 31 30 30 30 31 30 28 28 29 30 30 30 30 31 31 33 36 37 38 38 37
24 26 23 22 21 27 29 31 31 30 30 30 27 24 23 22 25 25 25 26 26 27 28 29 29 29 28 29 28 28 28 28 28 27 27 28 30 31 33 34 37 39 39 38
22 26 24 24 25 28 27 30 31 30 30 26 24 24 24 25 26 25 25 25 26 26 27 28 27 29 28 28 28 28 28 28 28 27 27 27 29 30 31 32 35 36 39 41
27 25 23 21 25 25 26 28 32 29 27 26 25 25 26 26 26 25 25 26 26 26 27 27 27 28 28 28 28 28 28 28 28 27 27 27 27 30 31 31 33 36 39 40

GFSCGP_sfc_dewp_114.txt.gz
Dewpoint
34 28 25 25 29 26 25 25 24 25 27 27 27 28 28 30 28 24 25 29 31 30 32 45 54 56 57 57 58 59 60 61 61 61 61 61 62 60 61 60 60 59 59 58
29 27 28 31 29 29 29 28 26 27 28 27 27 28 29 29 27 27 29 31 36 33 41 48 53 54 55 57 58 59 60 60 60 61 63 62 61 61 61 60 60 60 60 60
28 27 33 32 30 29 28 26 26 26 28 30 28 26 27 27 30 29 30 37 38 39 42 50 53 53 56 56 59 60 61 60 60 61 63 63 62 62 62 62 61 62 62 62
32 32 32 32 31 29 26 28 29 29 31 20 24 17 25 35 34 29 29 30 36 40 43 51 52 54 55 54 56 58 59 59 60 61 61 61 60 59 60 60 61 62 64 63
30 33 33 32 29 30 27 30 30 31 33 31 26 19 28 36 35 36 38 40 37 40 48 50 53 54 54 56 56 59 60 59 59 61 61 60 59 60 61 61 60 61 61 62
34 37 36 34 32 30 33 36 34 35 32 22 27 25 31 33 35 35 38 41 42 43 49 51 54 55 55 55 57 58 59 59 60 60 60 60 59 59 59 58 59 60 60 61
33 34 36 36 34 38 38 32 25 22 22 21 34 30 31 34 36 39 40 41 46 49 50 53 53 54 55 56 56 58 59 59 59 60 60 59 59 58 58 59 58 58 58 59
28 21 34 38 37 34 34 33 28 21 22 26 35 27 30 37 42 43 45 45 46 47 48 49 49 49 50 54 55 57 57 58 59 59 59 60 60 59 59 59 59 59 58 59
28 25 33 36 38 38 36 34 36 32 33 24 30 33 36 37 37 41 42 43 44 45 46 47 48 48 47 46 48 52 54 56 57 58 59 59 59 59 59 59 59 59 59 59
32 29 33 35 39 39 37 37 30 30 24 19 24 28 28 32 34 38 39 41 42 43 43 42 42 43 43 44 46 47 47 48 50 52 55 59 59 59 59 59 59 60 60 60
33 32 30 32 30 30 31 30 29 27 30 24 22 27 34 33 36 38 39 39 39 37 38 37 35 36 37 38 39 41 44 45 46 47 48 49 53 56 58 59 60 60 60 60
31 30 26 26 31 31 30 29 27 24 23 26 27 28 37 38 38 38 34 33 33 34 34 34 34 35 35 35 35 36 37 38 40 42 44 45 46 47 49 51 53 56 58 58
30 27 20 16 20 27 29 28 28 27 25 24 22 27 31 35 32 32 32 32 31 30 30 29 30 30 30 30 30 31 33 34 35 37 39 40 41 44 45 47 48 52 55 55
34 28 24 15 22 28 26 26 27 25 20 23 23 27 28 30 31 31 31 30 27 26 25 26 26 27 28 29 30 30 31 32 34 34 35 36 38 40 42 45 46 48 51 52
29 24 23 26 27 28 24 25 27 24 25 21 25 25 27 30 30 31 30 26 23 22 23 24 25 27 28 29 30 31 32 33 34 34 35 35 36 37 38 39 42 44 47 49
29 24 26 23 24 22 22 23 26 26 28 28 27 26 28 30 31 30 28 26 23 21 23 26 28 29 30 31 31 32 33 34 34 34 35 35 36 37 37 38 39 41 43 44
27 26 24 22 22 21 19 21 25 25 28 28 25 26 29 30 31 31 31 27 23 22 26 28 29 30 30 31 32 32 32 34 34 35 35 36 37 37 37 37 38 39 40 41
27 25 25 19 16 8 18 25 24 24 28 30 29 29 30 30 31 30 26 25 22 25 28 28 29 30 30 31 31 32 32 32 33 34 34 36 36 35 36 37 38 38 38 39
28 25 21 16 16 12 21 23 25 22 19 30 29 31 31 29 30 23 21 23 27 27 28 29 29 30 31 32 31 30 30 31 32 32 34 33 33 34 33 33 34 35 36 37
28 26 21 19 13 9 8 24 26 21 14 28 31 31 29 27 16 22 22 26 27 28 29 30 31 31 30 31 30 30 30 30 31 31 32 32 33 33 32 33 33 35 37 37
22 23 20 20 18 19 19 27 25 11 3 30 31 31 29 25 24 23 25 27 27 28 29 32 31 30 30 30 30 30 30 30 30 31 31 32 32 31 31 32 32 33 35 37
18 20 20 21 18 12 27 27 20 19 30 31 31 30 29 25 22 23 26 26 27 28 29 30 30 30 30 30 31 29 29 30 29 30 31 30 30 29 29 30 31 32 34 35
21 21 19 21 20 22 29 25 27 31 30 30 30 29 28 25 22 25 25 25 26 27 28 30 30 29 30 30 31 28 29 29 27 27 29 28 28 27 28 30 30 29 30 33
23 25 24 22 21 24 28 29 30 31 30 31 30 27 25 22 23 24 25 25 26 26 27 27 28 28 28 29 29 29 29 29 28 26 26 27 28 28 29 29 29 29 29 30
23 25 24 23 24 25 26 29 31 30 31 28 26 25 24 22 25 25 25 25 25 26 26 27 27 27 28 28 28 28 28 28 28 27 27 27 28 28 27 27 29 30 30 32
27 25 23 19 23 24 22 27 31 30 30 28 24 24 25 25 25 25 25 25 26 26 27 27 27 27 28 28 28 28 29 28 27 25 26 26 27 27 28 28 28 32 33 35

GFSCGP_sfc_dewp_117.txt.gz
Dewpoint
34 25 24 23 27 26 25 23 24 24 26 27 27 28 28 29 30 29 27 25 24 30 31 35 39 46 55 56 56 56 58 59 60 60 60 60 60 60 60 61 62 63 62 63
29 26 28 29 29 28 27 26 24 25 27 27 26 26 28 30 30 30 29 26 26 31 35 36 44 54 54 54 55 56 58 59 60 61 61 61 61 62 61 61 63 63 63 63
30 26 33 32 30 29 28 25 25 25 28 29 28 26 25 33 30 28 28 28 32 35 37 39 50 53 53 53 54 58 59 59 59 60 61 61 62 61 61 61 62 61 62 62
32 32 32 31 30 30 24 27 28 28 29 24 26 21 23 33 35 34 34 35 31 34 39 43 50 51 52 53 54 56 59 60 59 58 60 58 61 59 60 61 61 62 63 62
26 32 32 32 31 31 27 29 31 34 32 32 28 25 23 34 32 35 36 39 42 41 40 44 50 51 53 54 54 55 58 58 58 58 60 59 60 60 61 61 61 61 62 62
36 36 36 34 33 31 30 31 33 35 32 22 26 25 25 32 34 36 37 39 43 46 43 48 50 52 54 55 56 57 56 58 57 59 59 58 59 59 59 59 59 59 60 60
33 33 35 36 34 37 36 32 21 18 16 19 33 29 31 35 37 40 41 43 46 48 49 49 49 50 51 52 52 53 57 57 58 60 59 59 59 59 59 59 59 58 58 58
26 21 33 37 36 35 35 33 28 20 21 22 32 26 31 37 39 42 44 44 46 47 49 49 49 49 49 50 50 50 58 58 59 59 59 59 59 59 59 59 58 58 58 59
27 26 31 35 38 38 35 33 37 31 32 22 28 32 36 37 36 39 40 43 44 46 46 46 45 46 46 47 48 49 51 52 54 55 57 59 59 59 59 59 59 59 59 59
30 28 32 34 37 39 37 37 31 29 23 20 24 28 28 32 32 35 37 39 42 42 42 41 40 39 37 38 39 40 41 43 46 49 51 55 59 59 59 59 59 59 59 59
32 30 28 31 29 28 30 29 31 28 30 22 21 26 36 34 35 35 37 38 37 36 35 34 32 31 30 30 32 33 34 34 37 39 41 43 46 49 52 56 57 59 59 59
32 29 25 26 30 31 30 29 27 23 22 26 25 27 37 37 38 38 33 32 30 29 29 28 28 28 29 29 30 31 32 33 34 35 37 38 39 41 42 45 47 50 53 56
30 26 19 16 19 26 28 27 28 27 27 23 21 26 31 35 37 32 29 27 25 24 25 26 27 28 29 30 31 32 33 33 34 34 35 35 36 37 38 40 42 44 47 50
33 27 22 16 20 26 25 25 27 25 19 23 24 27 29 31 31 30 27 24 23 23 24 26 27 29 30 31 31 31 32 33 34 34 35 35 35 36 37 38 39 40 42 44
29 23 22 25 27 26 24 23 26 22 25 20 24 26 28 30 30 30 28 24 22 22 24 26 28 29 30 30 31 32 32 33 34 34 35 35 36 37 37 37 37 38 39 40
29 23 26 24 24 23 21 22 24 26 27 27 26 26 28 30 31 30 27 25 22 22 25 27 29 29 30 30 31 32 32 32 33 33 34 35 36 36 35 35 36 37 38 39
27 25 24 20 22 19 15 20 22 25 27 27 25 26 28 29 30 30 30 27 23 23 27 28 29 29 30 31 31 31 32 32 32 33 34 35 35 34 34 34 34 35 36 36
27 24 24 19 15 0 10 25 23 23 25 29 29 29 29 30 31 30 29 27 22 25 27 28 29 29 30 31 31 32 32 31 32 33 33 33 33 33 32 32 33 33 33 33
28 25 20 15 14 10 16 23 24 24 19 28 29 29 30 29 28 27 21 22 25 27 28 29 29 30 30 31 30 30 30 30 31 30 30 31 32 32 31 32 31 32 32 34
28 25 20 19 12 1 2 22 26 20 12 21 30 30 30 28 23 19 21 24 26 27 29 29 31 31 29 29 30 29 29 29 29 29 29 30 31 30 29 29 29 31 31 32
23 23 21 19 17 16 17 26 24 8 -4 27 31 31 29 26 24 22 24 27 28 28 29 30 29 28 29 29 29 29 28 28 29 28 28 28 29 29 28 29 29 29 29 29
18 18 19 20 17 10 26 25 18 14 28 30 31 30 29 26 23 23 25 25 26 27 28 29 29 28 29 29 29 29 29 29 29 28 28 27 27 27 27 28 28 29 28 28
19 21 17 20 19 21 27 25 26 28 30 30 31 30 30 26 23 23 24 25 25 26 27 29 28 28 29 29 29 29 29 29 29 29 28 27 26 26 26 27 26 26 26 26
22 24 23 21 21 23 25 28 29 29 30 32 31 29 28 25 23 22 24 24 25 25 26 26 27 27 27 28 28 28 29 29 28 27 27 25 25 26 26 26 26 26 27 28
22 24 23 23 23 24 25 26 28 30 31 31 30 28 27 24 23 23 24 24 25 25 26 26 27 27 27 27 27 28 28 28 27 27 26 26 26 26 26 26 27 27 28 29
26 25 23 22 23 22 20 26 28 30 30 30 28 25 25 23 23 25 24 25 25 25 26 27 27 27 27 27 27 28 28 28 27 26 26 26 27 28 27 27 26 29 30 31